Temperatur und Luftfeuchte

Temperatur und Luftfeuchte

Nummer Datum und Zeit Sensor ID Temperatur in Celsius gef├╝hlte Temperatur Luftfeuchte in %
154679 2024-05-19 13:02:16 Bahnzimmer 18.40 17.87 60.40
154678 2024-05-19 12:47:27 Aussentemperatur 14.60 14.43 88.70
154677 2024-05-19 12:45:16 Terrasse 15.40 14.85 71.10
154676 2024-05-19 12:32:16 Bahnzimmer 18.50 17.99 60.50
154675 2024-05-19 12:19:14 Aussentemperatur 14.20 14.03 90.00
154674 2024-05-19 12:17:08 Terrasse 15.10 14.55 72.20
154673 2024-05-19 12:02:15 Bahnzimmer 18.50 17.99 60.60
154672 2024-05-19 11:51:01 Aussentemperatur 14.20 14.03 90.00
154671 2024-05-19 11:48:58 Terrasse 15.00 14.45 72.40
154670 2024-05-19 11:32:14 Bahnzimmer 18.60 18.10 60.60
154669 2024-05-19 11:22:53 Aussentemperatur 14.40 14.24 89.70
154668 2024-05-19 11:20:53 Terrasse 15.20 14.66 72.20
154667 2024-05-19 11:02:14 Bahnzimmer 18.80 18.32 60.50
154666 2024-05-19 10:54:40 Aussentemperatur 14.20 14.09 92.30
154665 2024-05-19 10:52:40 Terrasse 14.90 14.39 74.40
154664 2024-05-19 10:32:13 Bahnzimmer 19.00 18.52 59.90
154663 2024-05-19 10:26:26 Aussentemperatur 13.90 13.80 94.10
154662 2024-05-19 10:24:29 Terrasse 14.30 13.79 76.60
154661 2024-05-19 10:02:13 Bahnzimmer 18.80 18.30 59.90
154660 2024-05-19 09:58:14 Aussentemperatur 13.40 13.26 94.50
154659 2024-05-19 09:56:19 Terrasse 13.90 13.37 77.40
154658 2024-05-19 09:32:12 Bahnzimmer 19.00 18.49 58.90
154657 2024-05-19 09:30:04 Aussentemperatur 13.30 13.17 95.30
154656 2024-05-19 09:28:12 Terrasse 13.70 13.16 78.10
154655 2024-05-19 09:02:11 Bahnzimmer 18.50 17.97 60.10
154654 2024-05-19 09:01:50 Aussentemperatur 12.80 12.63 95.70
154653 2024-05-19 09:00:03 Terrasse 13.30 12.73 78.40
154652 2024-05-19 08:33:38 Aussentemperatur 12.50 12.30 95.40
154651 2024-05-19 08:32:11 Bahnzimmer 18.40 17.87 60.20
154650 2024-05-19 08:31:55 Terrasse 13.00 12.40 78.40
154649 2024-05-19 08:05:27 Aussentemperatur 12.50 12.28 94.90
154648 2024-05-19 08:03:46 Terrasse 13.20 12.61 78.00
154647 2024-05-19 08:02:10 Bahnzimmer 18.40 17.87 60.20
154646 2024-05-19 07:37:16 Aussentemperatur 12.50 12.28 94.90
154645 2024-05-19 07:35:39 Terrasse 13.10 12.49 77.50
154644 2024-05-19 07:32:09 Bahnzimmer 18.20 17.65 60.30
154643 2024-05-19 07:09:06 Aussentemperatur 12.50 12.28 94.60
154642 2024-05-19 07:07:32 Terrasse 13.20 12.58 76.60
154641 2024-05-19 07:02:08 Bahnzimmer 18.20 17.65 60.40
154640 2024-05-19 06:40:55 Aussentemperatur 12.50 12.27 94.40
154639 2024-05-19 06:39:25 Terrasse 13.30 12.68 76.20
154638 2024-05-19 06:32:08 Bahnzimmer 18.00 17.44 60.70
154637 2024-05-19 06:12:45 Aussentemperatur 12.50 12.27 94.50
154636 2024-05-19 06:11:18 Terrasse 13.30 12.66 75.50
154635 2024-05-19 06:02:07 Bahnzimmer 18.00 17.44 60.70
154634 2024-05-19 05:44:34 Aussentemperatur 12.50 12.27 94.50
154633 2024-05-19 05:43:11 Terrasse 13.40 12.76 75.10
154632 2024-05-19 05:32:06 Bahnzimmer 18.00 17.44 60.80
154631 2024-05-19 05:16:22 Aussentemperatur 12.50 12.29 95.00
154630 2024-05-19 05:15:04 Terrasse 13.50 12.87 75.40
154629 2024-05-19 05:02:06 Bahnzimmer 18.00 17.44 60.80
154628 2024-05-19 04:48:12 Aussentemperatur 12.70 12.48 94.10
154627 2024-05-19 04:46:57 Terrasse 13.60 12.97 75.00
154626 2024-05-19 04:32:05 Bahnzimmer 18.00 17.44 60.80
154625 2024-05-19 04:20:02 Aussentemperatur 12.80 12.54 92.00
154624 2024-05-19 04:18:51 Terrasse 13.60 12.94 73.70
154623 2024-05-19 04:02:04 Bahnzimmer 18.10 17.55 60.80
154622 2024-05-19 03:51:51 Aussentemperatur 12.70 12.44 92.50
154621 2024-05-19 03:50:44 Terrasse 13.70 13.04 73.30
154620 2024-05-19 03:32:04 Bahnzimmer 18.10 17.55 60.80
154619 2024-05-19 03:23:41 Aussentemperatur 12.70 12.44 92.40
154618 2024-05-19 03:22:37 Terrasse 13.80 13.14 72.90
154617 2024-05-19 03:02:03 Bahnzimmer 18.10 17.56 60.90
154616 2024-05-19 02:55:29 Aussentemperatur 12.70 12.44 92.40
154615 2024-05-19 02:54:29 Terrasse 13.90 13.23 72.30
154614 2024-05-19 02:32:02 Bahnzimmer 18.10 17.56 60.90
154613 2024-05-19 02:27:19 Aussentemperatur 12.90 12.65 92.20
154612 2024-05-19 02:26:24 Terrasse 13.90 13.22 71.80
154611 2024-05-19 02:02:02 Bahnzimmer 18.20 17.67 60.90
154610 2024-05-19 01:59:09 Aussentemperatur 12.80 12.57 93.40
154609 2024-05-19 01:58:18 Terrasse 14.10 13.43 71.60
154608 2024-05-19 01:32:01 Bahnzimmer 18.20 17.67 60.90
154607 2024-05-19 01:30:57 Aussentemperatur 12.70 12.45 92.90
154606 2024-05-19 01:30:12 Terrasse 14.10 13.44 71.80
154605 2024-05-19 01:02:47 Aussentemperatur 12.90 12.68 93.20
154604 2024-05-19 01:02:05 Terrasse 14.30 13.67 72.00
154603 2024-05-19 01:02:00 Bahnzimmer 18.20 17.67 61.00
154602 2024-05-19 00:34:38 Aussentemperatur 13.20 13.03 93.90
154601 2024-05-19 00:33:58 Terrasse 14.50 13.93 73.70
154600 2024-05-19 00:31:59 Bahnzimmer 18.20 17.67 61.00
154599 2024-05-19 00:06:29 Aussentemperatur 13.40 13.29 95.40
154598 2024-05-19 00:05:51 Terrasse 14.70 14.18 74.80
154597 2024-05-19 00:01:59 Bahnzimmer 18.20 17.67 61.10
154596 2024-05-18 23:38:19 Aussentemperatur 13.50 13.39 95.10
154595 2024-05-18 23:37:45 Terrasse 14.80 14.28 74.30
154594 2024-05-18 23:31:58 Bahnzimmer 18.20 17.67 61.10
154593 2024-05-18 23:10:09 Aussentemperatur 13.60 13.51 95.70
154592 2024-05-18 23:09:41 Terrasse 15.00 14.48 73.80
154591 2024-05-18 23:01:58 Bahnzimmer 18.20 17.67 61.20
154590 2024-05-18 22:41:58 Aussentemperatur 13.70 13.62 95.60
154589 2024-05-18 22:41:33 Terrasse 15.20 14.69 73.30
154588 2024-05-18 22:31:57 Bahnzimmer 18.30 17.78 61.20
154587 2024-05-18 22:13:48 Aussentemperatur 13.70 13.62 95.50
154586 2024-05-18 22:13:27 Terrasse 15.30 14.81 73.70
154585 2024-05-18 22:01:56 Bahnzimmer 18.30 17.79 61.30
154584 2024-05-18 21:45:38 Aussentemperatur 13.90 13.87 96.50
154583 2024-05-18 21:45:19 Terrasse 15.40 14.95 75.00
154582 2024-05-18 21:31:56 Bahnzimmer 18.30 17.79 61.30
154581 2024-05-18 21:17:28 Aussentemperatur 13.90 13.85 95.80
154580 2024-05-18 21:17:13 Terrasse 15.60 15.15 74.10
154579 2024-05-18 21:01:55 Bahnzimmer 18.30 17.79 61.30
154578 2024-05-18 20:49:19 Aussentemperatur 14.10 14.06 95.40
154577 2024-05-18 20:49:05 Terrasse 15.60 15.18 75.20
154576 2024-05-18 20:31:54 Bahnzimmer 18.40 17.90 61.30
154575 2024-05-18 20:21:08 Aussentemperatur 14.10 14.03 94.40
154574 2024-05-18 20:20:57 Terrasse 15.60 15.18 75.30
154573 2024-05-18 20:01:54 Bahnzimmer 18.30 17.79 61.50
154572 2024-05-18 19:52:57 Aussentemperatur 14.00 13.89 93.30
154571 2024-05-18 19:52:49 Terrasse 15.60 15.16 74.50
154570 2024-05-18 19:31:53 Bahnzimmer 18.40 17.90 61.60
154569 2024-05-18 19:24:48 Aussentemperatur 14.10 13.98 92.50
154568 2024-05-18 19:24:42 Terrasse 15.60 15.15 73.90
154567 2024-05-18 19:01:52 Bahnzimmer 18.40 17.91 61.70
154566 2024-05-18 18:56:37 Aussentemperatur 14.20 14.07 91.80
154565 2024-05-18 18:56:35 Terrasse 15.70 15.24 73.50
154564 2024-05-18 18:31:47 Bahnzimmer 18.50 18.03 62.10
154563 2024-05-18 18:28:28 Terrasse 15.90 15.44 72.50
154562 2024-05-18 18:28:26 Aussentemperatur 14.20 14.03 90.30
154561 2024-05-18 18:01:46 Bahnzimmer 18.40 17.93 62.70
154560 2024-05-18 18:00:23 Terrasse 16.10 15.65 72.00
154559 2024-05-18 18:00:17 Aussentemperatur 14.40 14.21 88.50
154558 2024-05-18 17:32:20 Terrasse 16.50 16.01 69.00
154557 2024-05-18 17:32:09 Aussentemperatur 14.90 14.69 85.80
154556 2024-05-18 17:31:46 Bahnzimmer 18.30 17.86 64.10
154555 2024-05-18 17:04:16 Terrasse 16.70 16.18 67.20
154554 2024-05-18 17:04:01 Aussentemperatur 15.30 15.06 83.40
154553 2024-05-18 17:01:45 Bahnzimmer 18.30 17.83 62.90
154552 2024-05-18 16:36:10 Terrasse 16.90 16.34 64.90
154551 2024-05-18 16:35:53 Aussentemperatur 15.70 15.45 81.40
154550 2024-05-18 16:31:44 Bahnzimmer 18.50 18.03 62.30
154549 2024-05-18 16:08:03 Terrasse 16.80 16.25 65.50
154548 2024-05-18 16:07:42 Aussentemperatur 15.60 15.35 81.60
154547 2024-05-18 16:01:43 Bahnzimmer 18.50 18.03 62.20
154546 2024-05-18 15:39:54 Terrasse 16.40 15.88 68.20
154545 2024-05-18 15:39:29 Aussentemperatur 15.20 14.92 82.00
154544 2024-05-18 15:31:43 Bahnzimmer 18.50 18.04 62.70
154543 2024-05-18 15:11:48 Terrasse 16.60 16.02 65.40
154542 2024-05-18 15:11:19 Aussentemperatur 15.60 15.33 81.10
154541 2024-05-18 15:01:42 Bahnzimmer 18.30 17.85 63.70
154540 2024-05-18 14:43:40 Terrasse 16.60 16.04 66.20
154539 2024-05-18 14:43:07 Aussentemperatur 15.40 15.15 82.50
154538 2024-05-18 14:31:42 Bahnzimmer 18.60 18.07 59.70
154537 2024-05-18 14:15:37 Terrasse 16.80 16.24 65.30
154536 2024-05-18 14:15:08 Aussentemperatur 15.80 15.56 81.50
154535 2024-05-18 14:01:41 Bahnzimmer 18.50 17.97 59.90
154534 2024-05-18 13:47:23 Terrasse 16.30 15.72 66.30
154533 2024-05-18 13:46:47 Aussentemperatur 15.10 14.85 83.70
154532 2024-05-18 13:31:40 Bahnzimmer 18.50 17.97 59.80
154531 2024-05-18 13:19:14 Terrasse 16.10 15.53 67.70
154530 2024-05-18 13:18:33 Aussentemperatur 14.90 14.66 85.00
154529 2024-05-18 13:01:40 Bahnzimmer 18.50 17.97 60.10
154528 2024-05-18 12:51:09 Terrasse 16.20 15.64 67.60
154527 2024-05-18 12:50:24 Aussentemperatur 15.10 14.88 84.90
154526 2024-05-18 12:31:39 Bahnzimmer 18.50 17.97 60.10
154525 2024-05-18 12:23:04 Terrasse 16.40 15.86 67.60
154524 2024-05-18 12:22:17 Aussentemperatur 15.60 15.46 86.00
154523 2024-05-18 12:01:38 Bahnzimmer 18.50 17.97 60.10
154522 2024-05-18 11:54:52 Terrasse 15.50 14.93 69.80
154521 2024-05-18 11:53:59 Aussentemperatur 14.50 14.30 88.00
154520 2024-05-18 11:31:38 Bahnzimmer 18.50 17.98 60.20
154519 2024-05-18 11:26:44 Terrasse 15.20 14.61 70.10
154518 2024-05-18 11:25:45 Aussentemperatur 14.10 13.88 88.70
154517 2024-05-18 11:01:37 Bahnzimmer 18.60 18.09 60.40
154516 2024-05-18 10:58:37 Terrasse 15.30 14.74 70.90
154515 2024-05-18 10:57:37 Aussentemperatur 14.40 14.22 88.90
154514 2024-05-18 10:31:36 Bahnzimmer 18.50 17.97 60.00
154513 2024-05-18 10:30:29 Terrasse 15.20 14.64 71.40
154512 2024-05-18 10:29:26 Aussentemperatur 14.30 14.12 89.60
154511 2024-05-18 10:02:19 Terrasse 14.80 14.22 72.30
154510 2024-05-18 10:01:36 Bahnzimmer 18.70 18.19 59.90
154509 2024-05-18 10:01:13 Aussentemperatur 13.90 13.71 90.70
154508 2024-05-18 09:34:11 Terrasse 14.70 14.14 73.20
154507 2024-05-18 09:33:02 Aussentemperatur 13.70 13.51 91.50
154506 2024-05-18 09:31:35 Bahnzimmer 18.60 18.08 59.80
154505 2024-05-18 09:06:03 Terrasse 14.30 13.70 73.50
154504 2024-05-18 09:04:49 Aussentemperatur 13.50 13.31 92.10
154503 2024-05-18 09:01:35 Bahnzimmer 18.50 17.97 59.90
154502 2024-05-18 08:37:55 Terrasse 14.20 13.58 72.80
154501 2024-05-18 08:36:38 Aussentemperatur 13.30 13.09 92.00
154500 2024-05-18 08:31:34 Bahnzimmer 18.50 17.97 59.90
154499 2024-05-18 08:09:47 Terrasse 14.10 13.46 72.50
154498 2024-05-18 08:08:25 Aussentemperatur 13.10 12.88 92.50
154497 2024-05-18 08:01:33 Bahnzimmer 18.40 17.86 59.90
154496 2024-05-18 07:41:40 Terrasse 13.90 13.25 73.00
154495 2024-05-18 07:40:14 Aussentemperatur 12.90 12.66 92.40
154494 2024-05-18 07:31:33 Bahnzimmer 18.40 17.86 60.00
154493 2024-05-18 07:13:32 Terrasse 13.90 13.21 71.60
154492 2024-05-18 07:12:02 Aussentemperatur 12.80 12.55 92.50
154491 2024-05-18 07:01:32 Bahnzimmer 18.30 17.75 60.00
154490 2024-05-18 06:45:25 Terrasse 13.90 13.20 71.00
154489 2024-05-18 06:43:52 Aussentemperatur 12.60 12.34 92.70
154488 2024-05-18 06:31:31 Bahnzimmer 18.10 17.54 60.30
154487 2024-05-18 06:17:18 Terrasse 14.00 13.32 71.30
154486 2024-05-18 06:15:42 Aussentemperatur 12.50 12.23 93.00
154485 2024-05-18 06:01:31 Bahnzimmer 18.20 17.65 60.30
154484 2024-05-18 05:49:10 Terrasse 13.90 13.22 71.90
154483 2024-05-18 05:47:32 Aussentemperatur 12.60 12.37 93.90
154482 2024-05-18 05:31:30 Bahnzimmer 18.20 17.65 60.40
154481 2024-05-18 05:21:04 Terrasse 14.00 13.32 71.40
154480 2024-05-18 05:19:20 Aussentemperatur 12.50 12.27 94.30
154479 2024-05-18 05:01:29 Bahnzimmer 18.20 17.65 60.30
154478 2024-05-18 04:52:59 Terrasse 13.90 13.19 70.70
154477 2024-05-18 04:51:09 Aussentemperatur 12.50 12.27 94.40
154476 2024-05-18 04:31:29 Bahnzimmer 18.20 17.65 60.30
154475 2024-05-18 04:24:53 Terrasse 14.10 13.41 70.80
154474 2024-05-18 04:22:59 Aussentemperatur 12.60 12.39 94.60
154473 2024-05-18 04:01:28 Bahnzimmer 18.30 17.76 60.30
154472 2024-05-18 03:56:46 Terrasse 14.10 13.41 70.60
154471 2024-05-18 03:54:49 Aussentemperatur 12.50 12.29 95.00
154470 2024-05-18 03:31:27 Bahnzimmer 18.30 17.76 60.30
154469 2024-05-18 03:28:40 Terrasse 14.20 13.50 70.00
154468 2024-05-18 03:26:40 Aussentemperatur 12.60 12.38 94.20
154467 2024-05-18 03:01:27 Bahnzimmer 18.30 17.76 60.30
154466 2024-05-18 03:00:34 Terrasse 14.40 13.72 70.00
154465 2024-05-18 02:58:30 Aussentemperatur 12.80 12.61 94.60
154464 2024-05-18 02:32:28 Terrasse 14.60 13.94 69.90
154463 2024-05-18 02:31:26 Bahnzimmer 18.40 17.87 60.20
154462 2024-05-18 02:30:21 Aussentemperatur 12.90 12.71 94.50
154461 2024-05-18 02:04:21 Terrasse 14.70 14.06 70.20
154460 2024-05-18 02:02:11 Aussentemperatur 13.00 12.83 94.70
154459 2024-05-18 02:01:26 Bahnzimmer 18.40 17.87 60.30
154458 2024-05-18 01:36:15 Terrasse 14.80 14.17 70.30
154457 2024-05-18 01:34:02 Aussentemperatur 13.10 12.93 94.50
154456 2024-05-18 01:31:25 Bahnzimmer 18.40 17.87 60.20
154455 2024-05-18 01:08:09 Terrasse 14.90 14.29 70.50
154454 2024-05-18 01:05:52 Aussentemperatur 13.30 13.15 94.40
154453 2024-05-18 01:01:24 Bahnzimmer 18.40 17.87 60.20
154452 2024-05-18 00:40:03 Terrasse 15.00 14.41 70.90
154451 2024-05-18 00:37:42 Aussentemperatur 13.20 13.03 94.00
154450 2024-05-18 00:31:24 Bahnzimmer 18.50 17.98 60.20
154449 2024-05-18 00:11:57 Terrasse 15.00 14.40 70.50
154448 2024-05-18 00:09:32 Aussentemperatur 13.30 13.11 93.00
154447 2024-05-18 00:01:23 Bahnzimmer 18.60 18.09 60.20
154446 2024-05-17 23:43:51 Terrasse 15.30 14.74 71.20
154445 2024-05-17 23:41:24 Aussentemperatur 13.60 13.42 92.20
154444 2024-05-17 23:31:22 Bahnzimmer 18.60 18.09 60.20
154443 2024-05-17 23:15:44 Terrasse 15.40 14.83 70.20
154442 2024-05-17 23:13:15 Aussentemperatur 13.80 13.60 90.40
154441 2024-05-17 23:01:22 Bahnzimmer 18.50 17.98 60.20
154440 2024-05-17 22:47:38 Terrasse 15.50 14.95 70.50
154439 2024-05-17 22:45:03 Aussentemperatur 13.90 13.73 91.20
154438 2024-05-17 22:31:21 Bahnzimmer 18.60 18.09 60.20
154437 2024-05-17 22:19:30 Terrasse 15.50 14.94 70.20
154436 2024-05-17 22:16:52 Aussentemperatur 13.80 13.61 91.10
154435 2024-05-17 22:01:20 Bahnzimmer 18.70 18.20 60.20
154434 2024-05-17 21:51:25 Terrasse 15.60 15.04 69.70
154433 2024-05-17 21:48:42 Aussentemperatur 13.90 13.72 90.80
154432 2024-05-17 21:31:20 Bahnzimmer 18.60 18.09 60.30
154431 2024-05-17 21:23:19 Terrasse 15.60 15.02 69.00
154430 2024-05-17 21:20:31 Aussentemperatur 13.90 13.68 89.40
154429 2024-05-17 21:01:19 Bahnzimmer 18.60 18.09 60.20
154428 2024-05-17 20:55:13 Terrasse 15.80 15.23 68.70
154427 2024-05-17 20:52:21 Aussentemperatur 14.00 13.78 89.00
154426 2024-05-17 20:31:18 Bahnzimmer 18.70 18.20 60.30
154425 2024-05-17 20:27:10 Terrasse 16.00 15.44 68.40
154424 2024-05-17 20:24:12 Aussentemperatur 14.20 13.97 87.80
154423 2024-05-17 20:01:18 Bahnzimmer 18.90 18.40 59.70
154422 2024-05-17 19:59:04 Terrasse 16.20 15.65 68.00
154421 2024-05-17 19:56:05 Aussentemperatur 14.60 14.33 84.80
154420 2024-05-17 19:31:17 Bahnzimmer 18.80 18.30 60.00
154419 2024-05-17 19:31:00 Terrasse 16.40 15.83 66.60
154418 2024-05-17 19:27:55 Aussentemperatur 15.10 14.86 84.10
154417 2024-05-17 19:02:57 Terrasse 16.70 16.16 66.40
154416 2024-05-17 19:01:16 Bahnzimmer 18.80 18.29 59.70
154415 2024-05-17 18:59:46 Aussentemperatur 15.40 15.19 84.00
154414 2024-05-17 18:34:50 Terrasse 16.70 16.16 66.50
154413 2024-05-17 18:31:35 Aussentemperatur 15.20 14.97 84.10
154412 2024-05-17 18:31:16 Bahnzimmer 18.80 18.29 59.70
154411 2024-05-17 18:06:44 Terrasse 16.80 16.26 66.00
154410 2024-05-17 18:03:26 Aussentemperatur 15.30 15.09 84.30
154409 2024-05-17 18:01:15 Bahnzimmer 18.90 18.40 59.70
154408 2024-05-17 17:38:36 Terrasse 16.70 16.15 65.90
154407 2024-05-17 17:35:15 Aussentemperatur 15.20 14.99 84.90
154406 2024-05-17 17:31:15 Bahnzimmer 18.90 18.40 59.60
154405 2024-05-17 17:10:29 Terrasse 16.80 16.28 66.80
154404 2024-05-17 17:07:06 Aussentemperatur 15.50 15.34 85.70
154403 2024-05-17 17:01:14 Bahnzimmer 19.00 18.52 59.90
154402 2024-05-17 16:42:22 Terrasse 16.50 15.98 68.00
154401 2024-05-17 16:38:53 Aussentemperatur 15.10 14.94 87.10
154400 2024-05-17 16:31:13 Bahnzimmer 18.90 18.42 60.20
154399 2024-05-17 16:14:14 Terrasse 16.20 15.67 68.90
154398 2024-05-17 16:10:40 Aussentemperatur 14.70 14.52 87.80
154397 2024-05-17 16:01:13 Bahnzimmer 19.10 18.63 60.10
154396 2024-05-17 15:46:05 Terrasse 15.90 15.33 68.50
154395 2024-05-17 15:42:28 Aussentemperatur 14.30 14.04 86.40
154394 2024-05-17 15:31:12 Bahnzimmer 19.20 18.75 60.20
154393 2024-05-17 15:17:59 Terrasse 15.90 15.29 67.00
154392 2024-05-17 15:14:16 Aussentemperatur 14.20 13.89 85.00
154391 2024-05-17 15:01:11 Bahnzimmer 19.10 18.63 59.90
154390 2024-05-17 14:49:55 Terrasse 16.10 15.49 66.20
154389 2024-05-17 14:46:06 Aussentemperatur 14.30 14.02 85.60
154388 2024-05-17 14:31:11 Bahnzimmer 19.40 18.94 59.20
154387 2024-05-17 14:21:51 Terrasse 16.40 15.83 66.30
154386 2024-05-17 14:17:58 Aussentemperatur 14.60 14.37 86.50
154385 2024-05-17 14:01:10 Bahnzimmer 19.10 18.63 59.80
154384 2024-05-17 13:53:45 Terrasse 16.40 15.87 68.10
154383 2024-05-17 13:49:47 Aussentemperatur 14.40 14.16 86.70
154382 2024-05-17 13:31:09 Bahnzimmer 19.10 18.62 59.70
154381 2024-05-17 13:25:39 Terrasse 16.30 15.75 67.50
154380 2024-05-17 13:21:37 Aussentemperatur 14.40 14.14 86.10
154379 2024-05-17 13:01:09 Bahnzimmer 19.00 18.52 60.10
154378 2024-05-17 12:57:34 Terrasse 16.40 15.86 67.40
154377 2024-05-17 12:53:29 Aussentemperatur 14.60 14.33 84.80
154376 2024-05-17 12:31:08 Bahnzimmer 19.10 18.63 59.80
154375 2024-05-17 12:29:28 Terrasse 16.50 15.94 66.50
154374 2024-05-17 12:25:19 Aussentemperatur 14.80 14.50 82.80
154373 2024-05-17 12:01:24 Terrasse 16.60 15.98 63.70
154372 2024-05-17 12:01:07 Bahnzimmer 19.00 18.51 59.70
154371 2024-05-17 11:57:10 Aussentemperatur 15.00 14.61 78.80
154370 2024-05-17 11:33:19 Terrasse 16.70 16.02 61.10
154369 2024-05-17 11:31:07 Bahnzimmer 19.20 18.72 59.20
154368 2024-05-17 11:29:01 Aussentemperatur 15.10 14.68 77.30
154367 2024-05-17 11:05:13 Terrasse 16.90 16.23 60.50
154366 2024-05-17 11:01:06 Bahnzimmer 19.20 18.72 59.30
154365 2024-05-17 11:00:52 Aussentemperatur 15.30 14.90 77.30
154364 2024-05-17 10:37:07 Terrasse 17.20 16.53 59.70
154363 2024-05-17 10:32:44 Aussentemperatur 15.80 15.45 77.20
154362 2024-05-17 10:31:06 Bahnzimmer 19.10 18.61 59.20
154361 2024-05-17 10:09:04 Terrasse 17.20 16.56 60.60
154360 2024-05-17 10:04:37 Aussentemperatur 15.80 15.47 78.00
154359 2024-05-17 10:01:05 Bahnzimmer 19.10 18.61 59.00
154358 2024-05-17 09:40:55 Terrasse 16.80 16.17 62.50
154357 2024-05-17 09:36:24 Aussentemperatur 15.30 14.96 79.30
154356 2024-05-17 09:31:04 Bahnzimmer 19.00 18.49 58.70
154355 2024-05-17 09:12:46 Terrasse 16.40 15.76 63.90
154354 2024-05-17 09:08:09 Aussentemperatur 14.80 14.46 81.20
154353 2024-05-17 09:01:03 Bahnzimmer 19.30 18.81 58.30
154352 2024-05-17 08:44:38 Terrasse 16.40 15.76 63.70
154351 2024-05-17 08:39:59 Aussentemperatur 14.70 14.35 81.20
154350 2024-05-17 08:31:03 Bahnzimmer 18.90 18.39 59.10
154349 2024-05-17 08:16:31 Terrasse 16.50 15.87 63.70
154348 2024-05-17 08:11:47 Aussentemperatur 14.80 14.47 81.70
154347 2024-05-17 08:01:02 Bahnzimmer 18.80 18.27 58.90
154346 2024-05-17 07:48:25 Terrasse 16.40 15.77 64.30
154345 2024-05-17 07:43:37 Aussentemperatur 14.50 14.17 82.90
154344 2024-05-17 07:31:01 Bahnzimmer 18.90 18.37 58.20
154343 2024-05-17 07:20:18 Terrasse 16.20 15.54 63.90
154342 2024-05-17 07:15:26 Aussentemperatur 14.30 13.89 80.60
154341 2024-05-17 07:01:01 Bahnzimmer 18.40 17.82 58.50
154340 2024-05-17 06:52:13 Terrasse 16.40 15.75 63.20
154339 2024-05-17 06:47:17 Aussentemperatur 14.70 14.28 78.50
154338 2024-05-17 06:31:00 Bahnzimmer 18.50 17.93 58.40
154337 2024-05-17 06:24:08 Terrasse 16.60 15.89 60.30
154336 2024-05-17 06:19:08 Aussentemperatur 14.80 14.32 76.10
154335 2024-05-17 06:00:59 Bahnzimmer 18.50 17.93 58.50
154334 2024-05-17 05:56:03 Terrasse 16.70 15.99 59.90
154333 2024-05-17 05:50:59 Aussentemperatur 14.90 14.44 76.20
154332 2024-05-17 05:30:59 Bahnzimmer 18.40 17.83 58.70
154331 2024-05-17 05:27:58 Terrasse 16.90 16.21 59.80
154330 2024-05-17 05:22:49 Aussentemperatur 15.00 14.54 75.90
154329 2024-05-17 05:00:58 Bahnzimmer 18.30 17.72 58.90
154328 2024-05-17 04:59:52 Terrasse 17.10 16.42 59.60
154327 2024-05-17 04:54:40 Aussentemperatur 15.20 14.75 75.60
154326 2024-05-17 04:31:46 Terrasse 17.20 16.51 58.70
154325 2024-05-17 04:30:57 Bahnzimmer 18.30 17.72 58.90
154324 2024-05-17 04:26:30 Aussentemperatur 15.30 14.83 74.30
154323 2024-05-17 04:03:42 Terrasse 17.50 16.80 57.30
154322 2024-05-17 04:00:57 Bahnzimmer 18.40 17.83 58.90
154321 2024-05-17 03:58:21 Aussentemperatur 15.40 14.93 74.20
154320 2024-05-17 03:35:36 Terrasse 17.50 16.79 57.00
154319 2024-05-17 03:30:56 Bahnzimmer 18.40 17.83 58.90
154318 2024-05-17 03:30:11 Aussentemperatur 15.60 15.12 73.10
154317 2024-05-17 03:07:30 Terrasse 17.60 16.89 56.30
154316 2024-05-17 03:02:00 Aussentemperatur 15.50 15.01 72.90
154315 2024-05-17 03:00:56 Bahnzimmer 18.40 17.83 58.90
154314 2024-05-17 02:39:23 Terrasse 17.80 17.10 56.10
154313 2024-05-17 02:33:50 Aussentemperatur 15.60 15.10 72.10
154312 2024-05-17 02:30:55 Bahnzimmer 18.50 17.94 58.80
154311 2024-05-17 02:11:18 Terrasse 18.10 17.40 55.10
154310 2024-05-17 02:05:40 Aussentemperatur 15.80 15.32 72.30
154309 2024-05-17 02:00:54 Bahnzimmer 18.40 17.84 59.00
154308 2024-05-17 01:43:15 Terrasse 18.20 17.52 55.40
154307 2024-05-17 01:37:30 Aussentemperatur 16.00 15.55 72.70
154306 2024-05-17 01:30:54 Bahnzimmer 18.40 17.83 58.90
154305 2024-05-17 01:15:09 Terrasse 18.40 17.73 54.80
154304 2024-05-17 01:09:20 Aussentemperatur 15.90 15.44 72.40
154303 2024-05-17 01:00:53 Bahnzimmer 18.50 17.95 59.00
154302 2024-05-17 00:47:04 Terrasse 18.50 17.84 55.00
154301 2024-05-17 00:41:11 Aussentemperatur 16.00 15.58 73.60
154300 2024-05-17 00:30:52 Bahnzimmer 18.50 17.94 58.90
154299 2024-05-17 00:18:58 Terrasse 18.60 17.99 56.60
154298 2024-05-17 00:13:00 Aussentemperatur 16.10 15.68 73.30
154297 2024-05-17 00:00:52 Bahnzimmer 18.50 17.94 58.90
154296 2024-05-16 23:50:53 Terrasse 18.70 18.09 56.10
154295 2024-05-16 23:44:49 Aussentemperatur 16.20 15.78 73.10
154294 2024-05-16 23:30:51 Bahnzimmer 18.60 18.05 58.80
154293 2024-05-16 23:22:49 Terrasse 19.00 18.40 55.50
154292 2024-05-16 23:16:39 Aussentemperatur 16.40 15.99 72.70
154291 2024-05-16 23:00:50 Bahnzimmer 18.60 18.05 58.80
154290 2024-05-16 22:54:43 Terrasse 19.40 18.82 54.60
154289 2024-05-16 22:48:30 Aussentemperatur 16.70 16.30 71.80
154288 2024-05-16 22:30:50 Bahnzimmer 18.70 18.16 58.80
154287 2024-05-16 22:26:38 Terrasse 19.70 19.14 54.20
154286 2024-05-16 22:20:21 Aussentemperatur 16.90 16.49 70.70
154285 2024-05-16 22:00:49 Bahnzimmer 18.70 18.16 58.70
154284 2024-05-16 21:58:34 Terrasse 20.00 19.44 52.90
154283 2024-05-16 21:52:11 Aussentemperatur 17.00 16.60 70.70
154282 2024-05-16 21:30:48 Bahnzimmer 18.80 18.27 58.90
154281 2024-05-16 21:30:30 Terrasse 20.30 19.76 52.50
154280 2024-05-16 21:24:03 Aussentemperatur 17.40 17.00 69.10
154279 2024-05-16 21:02:26 Terrasse 20.80 20.27 51.10
154278 2024-05-16 21:00:48 Bahnzimmer 18.80 18.27 58.90
154277 2024-05-16 20:55:55 Aussentemperatur 17.90 17.52 68.00
154276 2024-05-16 20:34:22 Terrasse 21.10 20.59 50.70
154275 2024-05-16 20:30:47 Bahnzimmer 18.90 18.38 58.80
154274 2024-05-16 20:27:46 Aussentemperatur 18.20 17.82 66.70
154273 2024-05-16 20:06:19 Terrasse 21.60 21.12 50.10
154272 2024-05-16 20:00:47 Bahnzimmer 19.00 18.49 58.70
154271 2024-05-16 19:59:38 Aussentemperatur 18.60 18.24 66.20
154270 2024-05-16 19:38:14 Terrasse 22.00 21.57 50.50
154269 2024-05-16 19:31:30 Aussentemperatur 19.10 18.76 64.90
154268 2024-05-16 19:30:46 Bahnzimmer 19.10 18.60 58.60
154267 2024-05-16 19:10:09 Terrasse 22.30 21.90 50.50
154266 2024-05-16 19:03:22 Aussentemperatur 19.70 19.37 62.80
154265 2024-05-16 19:00:45 Bahnzimmer 19.20 18.68 57.80
154264 2024-05-16 18:42:02 Terrasse 22.30 21.80 46.50
154263 2024-05-16 18:35:12 Aussentemperatur 19.80 19.38 59.30
154262 2024-05-16 18:30:45 Bahnzimmer 19.50 19.00 57.10
154261 2024-05-16 18:13:59 Terrasse 22.70 22.20 45.00
154260 2024-05-16 18:07:08 Aussentemperatur 20.80 20.41 56.30
154259 2024-05-16 18:00:44 Bahnzimmer 19.40 18.92 58.40
154258 2024-05-16 17:45:51 Terrasse 22.90 22.39 43.90
154257 2024-05-16 17:39:00 Aussentemperatur 20.70 20.33 57.70
154256 2024-05-16 17:30:43 Bahnzimmer 19.40 18.93 58.60
154255 2024-05-16 17:17:48 Terrasse 23.40 22.93 43.50
154254 2024-05-16 17:10:53 Aussentemperatur 21.10 20.78 58.00
154253 2024-05-16 17:00:42 Bahnzimmer 19.10 18.62 59.50
154252 2024-05-16 16:49:40 Terrasse 23.30 22.87 45.20
154251 2024-05-16 16:42:37 Aussentemperatur 20.70 20.41 60.60
154250 2024-05-16 16:30:42 Bahnzimmer 19.10 18.63 59.80
154249 2024-05-16 16:21:36 Terrasse 23.00 22.58 46.90
154248 2024-05-16 16:14:35 Aussentemperatur 21.10 20.85 60.80
154247 2024-05-16 16:00:41 Bahnzimmer 18.90 18.43 60.60
154246 2024-05-16 15:53:26 Terrasse 22.50 22.04 47.40
154245 2024-05-16 15:46:17 Aussentemperatur 20.30 20.05 63.60
154244 2024-05-16 15:30:40 Bahnzimmer 18.70 18.19 59.90
154243 2024-05-16 15:25:15 Terrasse 21.60 21.18 52.40
154242 2024-05-16 15:18:07 Aussentemperatur 20.10 19.87 65.30
154241 2024-05-16 15:00:40 Bahnzimmer 18.50 17.93 58.40
154240 2024-05-16 14:57:02 Terrasse 20.70 20.20 52.80
154239 2024-05-16 14:49:54 Aussentemperatur 19.60 19.36 67.00
154238 2024-05-16 14:30:39 Bahnzimmer 18.50 17.94 58.70
154237 2024-05-16 14:28:48 Terrasse 20.10 19.60 54.80
154236 2024-05-16 14:21:37 Aussentemperatur 18.60 18.35 70.20
154235 2024-05-16 14:00:48 Terrasse 21.00 20.58 54.70
154234 2024-05-16 14:00:38 Bahnzimmer 18.50 17.93 58.50
154233 2024-05-16 13:53:28 Aussentemperatur 19.50 19.34 70.10
154232 2024-05-16 13:32:40 Terrasse 20.00 19.51 55.70
154231 2024-05-16 13:30:38 Bahnzimmer 18.40 17.83 58.70
154230 2024-05-16 13:25:34 Aussentemperatur 19.80 19.66 69.70
154229 2024-05-16 13:04:29 Terrasse 19.50 19.02 58.00
154228 2024-05-16 13:00:36 Bahnzimmer 18.40 17.84 59.00
154227 2024-05-16 12:57:30 Aussentemperatur 20.60 20.63 73.30
154226 2024-05-16 12:36:13 Terrasse 18.20 17.72 63.00
154225 2024-05-16 12:30:35 Bahnzimmer 18.50 17.95 59.00
154224 2024-05-16 12:28:34 Aussentemperatur 16.20 15.99 81.10
154223 2024-05-16 12:08:06 Terrasse 17.50 16.96 63.50
154222 2024-05-16 12:00:35 Bahnzimmer 18.50 17.95 59.30
154221 2024-05-16 12:00:22 Aussentemperatur 16.00 15.81 82.50
154220 2024-05-16 11:39:59 Terrasse 17.10 16.55 64.50
154219 2024-05-16 11:32:11 Aussentemperatur 15.60 15.39 83.30
154218 2024-05-16 11:30:34 Bahnzimmer 18.40 17.90 61.60
154217 2024-05-16 11:11:51 Terrasse 16.80 16.25 65.50
154216 2024-05-16 11:03:57 Aussentemperatur 15.30 15.09 84.60
154215 2024-05-16 11:00:33 Bahnzimmer 18.30 17.70 57.90
154214 2024-05-16 10:43:47 Terrasse 16.80 16.26 65.90
154213 2024-05-16 10:35:47 Aussentemperatur 15.20 14.98 84.40
154212 2024-05-16 10:30:33 Bahnzimmer 18.30 17.69 57.80
154211 2024-05-16 10:15:39 Terrasse 16.40 15.82 65.90
154210 2024-05-16 10:07:36 Aussentemperatur 15.00 14.77 84.80
154209 2024-05-16 10:00:32 Bahnzimmer 18.40 17.81 58.00
154208 2024-05-16 09:47:35 Terrasse 16.70 16.11 64.70
154207 2024-05-16 09:39:25 Aussentemperatur 15.00 14.79 85.70
154206 2024-05-16 09:30:32 Bahnzimmer 18.30 17.71 58.20
154205 2024-05-16 09:19:25 Terrasse 15.90 15.31 67.60
154204 2024-05-16 09:11:12 Aussentemperatur 14.60 14.39 87.30
154203 2024-05-16 09:00:31 Bahnzimmer 18.30 17.71 58.40
154202 2024-05-16 08:51:17 Terrasse 15.40 14.82 70.00
154201 2024-05-16 08:42:59 Aussentemperatur 14.10 13.88 88.60
154200 2024-05-16 08:30:30 Bahnzimmer 18.30 17.71 58.40
154199 2024-05-16 08:23:14 Terrasse 15.40 14.81 69.40
154198 2024-05-16 08:14:48 Aussentemperatur 14.10 13.88 88.50
154197 2024-05-16 08:00:30 Bahnzimmer 18.20 17.61 58.60
154196 2024-05-16 07:55:08 Terrasse 15.50 14.91 69.10
154195 2024-05-16 07:46:39 Aussentemperatur 14.10 13.88 88.70
154194 2024-05-16 07:30:29 Bahnzimmer 18.10 17.50 58.80
154193 2024-05-16 07:27:03 Terrasse 15.50 14.91 69.00
154192 2024-05-16 07:18:27 Aussentemperatur 14.20 14.00 89.00
154191 2024-05-16 07:00:28 Bahnzimmer 18.00 17.39 58.90
154190 2024-05-16 06:58:59 Terrasse 15.60 15.00 68.20
154189 2024-05-16 06:50:18 Aussentemperatur 14.20 13.99 88.50
154188 2024-05-16 06:30:54 Terrasse 15.80 15.23 68.70
154187 2024-05-16 06:30:28 Bahnzimmer 18.00 17.39 58.70
154186 2024-05-16 06:22:07 Aussentemperatur 14.00 13.80 89.70
154185 2024-05-16 06:03:00 Terrasse 15.90 15.33 68.20
154184 2024-05-16 06:00:27 Bahnzimmer 18.00 17.39 58.70
154183 2024-05-16 05:53:57 Aussentemperatur 14.10 13.92 90.00
154182 2024-05-16 05:34:51 Terrasse 16.00 15.44 68.40
154181 2024-05-16 05:30:26 Bahnzimmer 18.00 17.39 58.80
154180 2024-05-16 05:25:47 Aussentemperatur 14.20 14.03 90.10
154179 2024-05-16 05:06:45 Terrasse 16.00 15.46 69.00
154178 2024-05-16 05:00:26 Bahnzimmer 17.90 17.28 58.90
154177 2024-05-16 04:57:36 Aussentemperatur 14.20 14.02 89.70
154176 2024-05-16 04:38:42 Terrasse 16.20 15.63 67.30
154175 2024-05-16 04:30:25 Bahnzimmer 17.90 17.28 58.90
154174 2024-05-16 04:29:26 Aussentemperatur 14.40 14.24 89.80
154173 2024-05-16 04:10:36 Terrasse 16.30 15.76 68.00
154172 2024-05-16 04:01:16 Aussentemperatur 14.50 14.34 89.50
154171 2024-05-16 04:00:24 Bahnzimmer 18.00 17.39 58.90
154170 2024-05-16 03:42:30 Terrasse 16.30 15.75 67.70
154169 2024-05-16 03:33:08 Aussentemperatur 14.50 14.32 88.60
154168 2024-05-16 03:30:24 Bahnzimmer 18.00 17.39 58.90
154167 2024-05-16 03:14:24 Terrasse 16.20 15.65 67.80
154166 2024-05-16 03:04:58 Aussentemperatur 14.60 14.41 88.00
154165 2024-05-16 03:00:23 Bahnzimmer 18.00 17.39 58.90
154164 2024-05-16 02:46:18 Terrasse 16.20 15.68 69.00
154163 2024-05-16 02:36:47 Aussentemperatur 14.50 14.32 88.50
154162 2024-05-16 02:30:23 Bahnzimmer 18.00 17.39 58.90
154161 2024-05-16 02:18:13 Terrasse 16.40 15.88 68.50
154160 2024-05-16 02:08:35 Aussentemperatur 14.60 14.41 87.80
154159 2024-05-16 02:00:22 Bahnzimmer 18.00 17.39 58.90
154158 2024-05-16 01:50:11 Terrasse 17.00 16.48 65.90
154157 2024-05-16 01:40:27 Aussentemperatur 14.80 14.63 88.00
154156 2024-05-16 01:30:21 Bahnzimmer 18.00 17.39 58.90
154155 2024-05-16 01:22:06 Terrasse 17.20 16.69 65.60
154154 2024-05-16 01:12:17 Aussentemperatur 14.80 14.62 87.40
154153 2024-05-16 01:00:21 Bahnzimmer 18.00 17.39 58.90
154152 2024-05-16 00:54:01 Terrasse 17.10 16.55 64.60
154151 2024-05-16 00:44:08 Aussentemperatur 14.90 14.72 87.10
154150 2024-05-16 00:30:20 Bahnzimmer 18.00 17.39 58.90
154149 2024-05-16 00:25:54 Terrasse 17.20 16.68 65.40
154148 2024-05-16 00:15:57 Aussentemperatur 14.70 14.47 85.90
154147 2024-05-16 00:00:19 Bahnzimmer 18.00 17.39 58.90
154146 2024-05-15 23:57:50 Terrasse 17.50 16.99 64.40
154145 2024-05-15 23:47:48 Aussentemperatur 15.00 14.78 85.20
154144 2024-05-15 23:30:19 Bahnzimmer 18.10 17.50 58.80
154143 2024-05-15 23:29:45 Terrasse 17.60 17.08 63.60
154142 2024-05-15 23:19:37 Aussentemperatur 15.10 14.86 84.20
154141 2024-05-15 23:01:41 Terrasse 17.70 17.19 63.60
154140 2024-05-15 23:00:18 Bahnzimmer 18.10 17.50 58.80
154139 2024-05-15 22:51:30 Aussentemperatur 15.30 15.05 82.90
154138 2024-05-15 22:33:35 Terrasse 17.70 17.15 62.20
154137 2024-05-15 22:30:17 Bahnzimmer 18.20 17.61 58.70
154136 2024-05-15 22:23:21 Aussentemperatur 15.40 15.13 81.60
154135 2024-05-15 22:05:33 Terrasse 18.20 17.67 61.20
154134 2024-05-15 22:00:17 Bahnzimmer 18.20 17.61 58.70
154133 2024-05-15 21:55:13 Aussentemperatur 15.70 15.39 78.90
154132 2024-05-15 21:37:29 Terrasse 18.50 18.03 62.30
154131 2024-05-15 21:30:16 Bahnzimmer 18.20 17.61 58.60
154130 2024-05-15 21:27:07 Aussentemperatur 16.40 16.09 76.20
154129 2024-05-15 21:09:26 Terrasse 19.10 18.62 59.40
154128 2024-05-15 21:00:15 Bahnzimmer 18.20 17.60 58.50
154127 2024-05-15 20:59:01 Aussentemperatur 17.20 16.81 70.30
154126 2024-05-15 20:41:23 Terrasse 19.70 19.16 54.80
154125 2024-05-15 20:30:52 Aussentemperatur 17.40 17.02 70.00
154124 2024-05-15 20:30:15 Bahnzimmer 18.30 17.72 58.70
154123 2024-05-15 20:13:19 Terrasse 19.90 19.36 54.10
154122 2024-05-15 20:02:43 Aussentemperatur 17.60 17.22 69.10
154121 2024-05-15 20:00:14 Bahnzimmer 18.30 17.72 58.70
154120 2024-05-15 19:45:13 Terrasse 20.00 19.45 53.40
154119 2024-05-15 19:34:33 Aussentemperatur 17.80 17.39 67.20
154118 2024-05-15 19:30:13 Bahnzimmer 18.40 17.83 58.70
154117 2024-05-15 19:17:07 Terrasse 19.90 19.36 54.10
154116 2024-05-15 19:06:23 Aussentemperatur 18.00 17.59 66.60
154115 2024-05-15 19:00:13 Bahnzimmer 18.40 17.83 58.70
154114 2024-05-15 18:49:02 Terrasse 20.00 19.43 52.60
154113 2024-05-15 18:38:11 Aussentemperatur 17.80 17.34 65.20
154112 2024-05-15 18:30:12 Bahnzimmer 18.60 18.05 58.80
154111 2024-05-15 18:20:58 Terrasse 20.30 19.69 49.80
154110 2024-05-15 18:10:01 Aussentemperatur 17.80 17.30 63.60
154109 2024-05-15 18:00:12 Bahnzimmer 18.60 18.07 59.50
154108 2024-05-15 17:52:52 Terrasse 20.30 19.66 48.80
154107 2024-05-15 17:41:51 Aussentemperatur 18.00 17.50 63.00
154106 2024-05-15 17:30:11 Bahnzimmer 18.60 18.06 59.30
154105 2024-05-15 17:24:48 Terrasse 20.50 19.87 48.30
154104 2024-05-15 17:13:42 Aussentemperatur 18.10 17.63 63.70
154103 2024-05-15 17:00:10 Bahnzimmer 18.70 18.17 59.00
154102 2024-05-15 16:56:47 Terrasse 20.60 19.99 48.90
154101 2024-05-15 16:45:35 Aussentemperatur 18.40 17.93 62.50
154100 2024-05-15 16:30:10 Bahnzimmer 18.80 18.24 57.80
154099 2024-05-15 16:28:44 Terrasse 21.10 20.50 47.40
154098 2024-05-15 16:17:24 Aussentemperatur 18.70 18.30 64.20
154097 2024-05-15 16:00:32 Terrasse 20.30 19.67 49.10
154096 2024-05-15 16:00:09 Bahnzimmer 18.80 18.25 57.90
154095 2024-05-15 15:49:11 Aussentemperatur 17.80 17.32 64.70
154094 2024-05-15 15:32:28 Terrasse 20.20 19.63 52.00
154093 2024-05-15 15:30:08 Bahnzimmer 19.00 18.43 56.60
154092 2024-05-15 15:20:57 Aussentemperatur 17.50 17.04 66.30
154091 2024-05-15 15:04:21 Terrasse 20.00 19.42 52.20
154090 2024-05-15 15:00:08 Bahnzimmer 18.80 18.22 56.70
154089 2024-05-15 14:52:44 Aussentemperatur 17.20 16.72 67.00
154088 2024-05-15 14:36:19 Terrasse 20.30 19.71 50.90
154087 2024-05-15 14:30:07 Bahnzimmer 18.50 17.89 56.90
154086 2024-05-15 14:24:35 Aussentemperatur 17.20 16.70 66.10
154085 2024-05-15 14:08:19 Terrasse 20.80 20.18 47.60
154084 2024-05-15 14:00:06 Bahnzimmer 18.60 18.01 57.10
154083 2024-05-15 13:56:24 Aussentemperatur 17.40 16.84 62.80
154082 2024-05-15 13:40:16 Terrasse 21.50 20.92 46.50
154081 2024-05-15 13:30:06 Bahnzimmer 18.50 17.88 56.60
154080 2024-05-15 13:28:15 Aussentemperatur 17.50 16.88 60.20
154079 2024-05-15 13:12:14 Terrasse 21.00 20.31 44.10
154078 2024-05-15 13:00:08 Aussentemperatur 18.10 17.47 57.60
154077 2024-05-15 13:00:05 Bahnzimmer 18.70 18.12 57.40
154076 2024-05-15 12:44:21 Terrasse 21.50 20.83 43.20
154075 2024-05-15 12:32:00 Aussentemperatur 18.50 17.86 55.90
154074 2024-05-15 12:30:04 Bahnzimmer 18.90 18.34 57.30
154073 2024-05-15 12:16:15 Terrasse 22.20 21.53 40.40
154072 2024-05-15 12:08:24 Bahnzimmer 24.00 23.76 50.00
154071 2024-05-15 12:04:40 Bahnzimmer 18.80 18.24 57.60
154070 2024-05-15 12:03:52 Aussentemperatur 18.90 18.30 55.80
154069 2024-05-15 11:48:06 Terrasse 21.90 21.21 40.60
154068 2024-05-15 11:35:37 Aussentemperatur 18.20 17.55 56.50
154067 2024-05-15 11:34:39 Bahnzimmer 18.70 18.13 57.50
154066 2024-05-15 11:19:58 Terrasse 21.30 20.57 41.50
154065 2024-05-15 11:07:23 Aussentemperatur 17.60 16.92 57.60
154064 2024-05-15 11:04:39 Bahnzimmer 18.70 18.12 57.30
154063 2024-05-15 10:51:49 Terrasse 20.30 19.50 42.60
154062 2024-05-15 10:39:10 Aussentemperatur 17.20 16.47 57.30
154061 2024-05-15 10:34:38 Bahnzimmer 18.50 17.90 57.40
154060 2024-05-15 10:23:43 Terrasse 20.30 19.48 41.80
154059 2024-05-15 10:10:57 Aussentemperatur 17.00 16.24 56.90
154058 2024-05-15 10:04:37 Bahnzimmer 18.40 17.78 57.00
154057 2024-05-15 09:55:35 Terrasse 19.70 18.84 42.50
154056 2024-05-15 09:42:45 Aussentemperatur 16.60 15.84 58.50
154055 2024-05-15 09:34:36 Bahnzimmer 18.50 17.89 56.80
154054 2024-05-15 09:27:27 Terrasse 19.20 18.30 43.10
154053 2024-05-15 09:14:31 Aussentemperatur 16.10 15.27 57.70
154052 2024-05-15 09:04:36 Bahnzimmer 18.20 17.56 57.00
154051 2024-05-15 08:59:17 Terrasse 18.50 17.53 43.20
154050 2024-05-15 08:46:19 Aussentemperatur 16.00 15.15 57.20
154049 2024-05-15 08:34:35 Bahnzimmer 18.80 18.19 55.80
154048 2024-05-15 08:31:10 Terrasse 18.20 17.19 42.80
154047 2024-05-15 08:18:10 Aussentemperatur 15.90 15.03 56.80
154046 2024-05-15 08:04:34 Bahnzimmer 18.00 17.34 56.90
154045 2024-05-15 08:03:04 Terrasse 18.20 17.19 42.70
154044 2024-05-15 07:49:58 Aussentemperatur 15.60 14.75 58.70
154043 2024-05-15 07:34:58 Terrasse 18.00 16.98 42.90
154042 2024-05-15 07:34:33 Bahnzimmer 18.00 17.34 56.80
154041 2024-05-15 07:21:46 Aussentemperatur 15.40 14.54 59.00
154040 2024-05-15 07:06:53 Terrasse 18.00 16.98 43.20
154039 2024-05-15 07:04:32 Bahnzimmer 18.00 17.34 56.80
154038 2024-05-15 06:53:35 Aussentemperatur 15.20 14.35 60.30
154037 2024-05-15 06:38:47 Terrasse 18.00 16.99 43.40
154036 2024-05-15 06:34:32 Bahnzimmer 18.10 17.45 56.80
154035 2024-05-15 06:25:24 Aussentemperatur 15.00 14.14 60.50
154034 2024-05-15 06:10:43 Terrasse 18.00 16.99 43.50
154033 2024-05-15 06:04:31 Bahnzimmer 18.10 17.45 56.80
154032 2024-05-15 05:57:13 Aussentemperatur 15.00 14.14 60.80
154031 2024-05-15 05:42:40 Terrasse 18.10 17.11 43.70
154030 2024-05-15 05:34:31 Bahnzimmer 18.00 17.34 56.70
154029 2024-05-15 05:29:03 Aussentemperatur 15.00 14.15 61.20
154028 2024-05-15 05:14:36 Terrasse 18.40 17.44 43.90
154027 2024-05-15 05:04:30 Bahnzimmer 18.00 17.34 57.00
154026 2024-05-15 05:00:54 Aussentemperatur 15.20 14.39 61.70
154025 2024-05-15 04:46:34 Terrasse 18.70 17.78 44.20
154024 2024-05-15 04:34:29 Bahnzimmer 18.00 17.34 57.00
154023 2024-05-15 04:32:47 Aussentemperatur 15.40 14.59 61.20
154022 2024-05-15 04:18:32 Terrasse 19.00 18.10 43.90
154021 2024-05-15 04:04:38 Aussentemperatur 15.60 14.81 61.10
154020 2024-05-15 04:04:29 Bahnzimmer 18.00 17.34 56.90
154019 2024-05-15 03:50:29 Terrasse 19.20 18.31 43.30
154018 2024-05-15 03:36:30 Aussentemperatur 15.60 14.80 60.50
154017 2024-05-15 03:34:28 Bahnzimmer 18.00 17.34 56.90
154016 2024-05-15 03:22:26 Terrasse 19.50 18.63 43.10
154015 2024-05-15 03:08:21 Aussentemperatur 16.00 15.22 60.10
154014 2024-05-15 03:04:27 Bahnzimmer 18.00 17.34 56.90
154013 2024-05-15 02:54:22 Terrasse 19.90 19.05 42.40
154012 2024-05-15 02:40:14 Aussentemperatur 16.40 15.64 59.20
154011 2024-05-15 02:34:27 Bahnzimmer 18.10 17.45 56.80
154010 2024-05-15 02:26:17 Terrasse 20.30 19.48 41.90
154009 2024-05-15 02:12:05 Aussentemperatur 16.70 15.95 58.40
154008 2024-05-15 02:04:26 Bahnzimmer 18.10 17.45 56.80
154007 2024-05-15 01:58:14 Terrasse 20.50 19.69 41.50
154006 2024-05-15 01:43:56 Aussentemperatur 17.00 16.26 57.70
154005 2024-05-15 01:34:26 Bahnzimmer 18.10 17.45 56.70
154004 2024-05-15 01:30:14 Terrasse 20.80 20.01 41.20
154003 2024-05-15 01:15:48 Aussentemperatur 17.20 16.47 57.40
154002 2024-05-15 01:04:25 Bahnzimmer 18.10 17.45 56.70
154001 2024-05-15 01:02:11 Terrasse 21.10 20.33 40.70
154000 2024-05-15 00:47:39 Aussentemperatur 17.40 16.68 56.90
153999 2024-05-15 00:34:24 Bahnzimmer 18.10 17.45 56.70
153998 2024-05-15 00:34:09 Terrasse 21.50 20.75 39.90
153997 2024-05-15 00:19:29 Aussentemperatur 17.70 16.99 56.20
153996 2024-05-15 00:06:06 Terrasse 21.90 21.16 39.00
153995 2024-05-15 00:04:24 Bahnzimmer 18.20 17.55 56.60
153994 2024-05-14 23:51:19 Aussentemperatur 17.80 17.09 55.80
153993 2024-05-14 23:38:03 Terrasse 22.20 21.48 38.30
153992 2024-05-14 23:34:23 Bahnzimmer 18.20 17.55 56.50
153991 2024-05-14 23:23:10 Aussentemperatur 17.80 17.13 57.20
153990 2024-05-14 23:10:01 Terrasse 22.50 21.81 38.50
153989 2024-05-14 22:55:01 Aussentemperatur 18.00 17.35 57.40
153988 2024-05-14 22:41:59 Terrasse 23.00 22.38 39.10
153987 2024-05-14 22:34:16 Bahnzimmer 18.30 17.66 56.40
153986 2024-05-14 22:26:52 Aussentemperatur 18.20 17.58 57.80
153985 2024-05-14 22:13:56 Terrasse 23.40 22.81 38.70
153984 2024-05-14 22:04:16 Bahnzimmer 18.40 17.77 56.40
153983 2024-05-14 21:58:44 Aussentemperatur 18.60 17.99 56.60
153982 2024-05-14 21:45:54 Terrasse 23.90 23.33 37.70
153981 2024-05-14 21:34:15 Bahnzimmer 18.50 17.88 56.40
153980 2024-05-14 21:30:38 Aussentemperatur 19.10 18.52 55.60
153979 2024-05-14 21:17:52 Terrasse 24.40 23.86 37.10
153978 2024-05-14 21:04:15 Bahnzimmer 18.50 17.87 56.20
153977 2024-05-14 21:02:31 Aussentemperatur 19.70 19.14 54.30
153976 2024-05-14 20:49:51 Terrasse 25.10 24.62 36.50
153975 2024-05-14 20:34:23 Aussentemperatur 20.40 19.87 52.70
153974 2024-05-14 20:34:14 Bahnzimmer 18.70 18.08 55.90
153973 2024-05-14 20:21:50 Terrasse 25.80 25.36 35.60
153972 2024-05-14 20:06:17 Aussentemperatur 21.20 20.68 50.00
153971 2024-05-14 20:04:13 Bahnzimmer 18.90 18.29 55.50
153970 2024-05-14 19:53:52 Terrasse 26.60 26.35 34.50
153969 2024-05-14 19:38:09 Aussentemperatur 21.80 21.28 47.50
153968 2024-05-14 19:34:13 Bahnzimmer 19.20 18.61 55.10
153967 2024-05-14 19:25:43 Terrasse 26.30 25.95 37.10
153966 2024-05-14 19:10:02 Aussentemperatur 22.50 22.02 46.40
153965 2024-05-14 19:04:12 Bahnzimmer 19.70 19.14 54.20
153964 2024-05-14 18:57:43 Terrasse 26.60 26.35 34.40
153963 2024-05-14 18:41:54 Aussentemperatur 22.70 22.28 48.10
153962 2024-05-14 18:34:11 Bahnzimmer 19.70 19.13 53.70
153961 2024-05-14 18:29:39 Terrasse 26.80 26.48 34.60
153960 2024-05-14 18:13:45 Aussentemperatur 22.80 22.36 47.00
153959 2024-05-14 18:04:11 Bahnzimmer 19.80 19.24 53.90
153958 2024-05-14 18:01:38 Terrasse 27.20 26.75 34.70
153957 2024-05-14 17:45:34 Aussentemperatur 23.20 22.81 47.30
153956 2024-05-14 17:34:10 Bahnzimmer 19.70 19.16 55.10
153955 2024-05-14 17:33:38 Terrasse 27.50 26.94 34.30
153954 2024-05-14 17:17:28 Aussentemperatur 23.80 23.44 46.30
153953 2024-05-14 17:06:20 Terrasse 27.80 27.13 33.70
153952 2024-05-14 17:04:09 Bahnzimmer 19.70 19.16 54.90
153951 2024-05-14 16:49:19 Aussentemperatur 24.30 23.98 45.70
153950 2024-05-14 16:37:59 Terrasse 28.00 27.31 34.30
153949 2024-05-14 16:34:09 Bahnzimmer 19.50 18.94 55.10
153948 2024-05-14 16:21:05 Aussentemperatur 24.00 23.67 46.40
153947 2024-05-14 16:09:52 Terrasse 27.70 27.07 34.00
153946 2024-05-14 16:04:08 Bahnzimmer 19.30 18.72 55.10
153945 2024-05-14 15:52:54 Aussentemperatur 24.10 23.77 46.10
153944 2024-05-14 15:41:45 Terrasse 27.80 27.15 34.10
153943 2024-05-14 15:34:07 Bahnzimmer 19.20 18.62 55.30
153942 2024-05-14 15:24:44 Aussentemperatur 23.60 23.23 46.50
153941 2024-05-14 15:13:41 Terrasse 27.50 26.97 35.00
153940 2024-05-14 15:04:07 Bahnzimmer 19.10 18.56 57.10
153939 2024-05-14 14:56:33 Aussentemperatur 23.60 23.21 45.90
153938 2024-05-14 14:45:34 Terrasse 27.10 26.73 35.80
153937 2024-05-14 14:34:06 Bahnzimmer 18.80 18.23 57.40
153936 2024-05-14 14:28:24 Aussentemperatur 23.70 23.36 47.40
153935 2024-05-14 14:17:29 Terrasse 27.20 26.80 35.80
153934 2024-05-14 14:04:06 Bahnzimmer 18.80 18.27 58.70
153933 2024-05-14 14:00:20 Aussentemperatur 24.00 23.67 46.50
153932 2024-05-14 13:49:29 Terrasse 27.50 26.99 35.30
153931 2024-05-14 13:34:05 Bahnzimmer 18.30 17.83 63.00
153930 2024-05-14 13:32:13 Aussentemperatur 24.00 23.70 47.60
153929 2024-05-14 13:21:20 Terrasse 26.50 26.37 36.60
153928 2024-05-14 13:04:31 Aussentemperatur 25.60 25.52 50.00
153927 2024-05-14 13:04:04 Bahnzimmer 18.00 17.52 63.60
153926 2024-05-14 12:53:16 Terrasse 26.30 26.06 41.10
153925 2024-05-14 12:36:10 Aussentemperatur 25.60 25.57 52.00
153924 2024-05-14 12:34:04 Bahnzimmer 17.50 16.95 63.10
153923 2024-05-14 12:24:46 Terrasse 21.00 20.42 48.60
153922 2024-05-14 12:07:00 Aussentemperatur 18.90 18.51 63.70
153921 2024-05-14 12:04:03 Bahnzimmer 17.40 16.82 62.10
153920 2024-05-14 11:38:48 Aussentemperatur 18.40 17.97 64.20
153919 2024-05-14 11:34:02 Bahnzimmer 17.50 16.93 62.20
153918 2024-05-14 11:31:01 Bahnzimmer 16.80 16.04 57.70
153917 2024-05-14 11:10:35 Aussentemperatur 18.20 17.75 64.00
153916 2024-05-14 11:01:01 Bahnzimmer 16.90 16.15 57.70
153915 2024-05-14 10:42:22 Aussentemperatur 17.70 17.20 64.20
153914 2024-05-14 10:14:10 Aussentemperatur 17.20 16.65 64.30
153913 2024-05-14 09:45:56 Aussentemperatur 16.80 16.20 63.70
153912 2024-05-14 09:17:44 Aussentemperatur 16.60 15.98 63.60
153911 2024-05-14 08:49:33 Aussentemperatur 16.20 15.54 63.60
153910 2024-05-14 08:21:21 Aussentemperatur 16.00 15.30 63.00
153909 2024-05-14 07:53:11 Aussentemperatur 15.80 15.08 62.80
153908 2024-05-14 07:25:02 Aussentemperatur 15.60 14.87 63.40
153907 2024-05-14 06:56:54 Aussentemperatur 15.40 14.66 63.90
153906 2024-05-14 06:28:43 Aussentemperatur 15.40 14.64 62.90
153905 2024-05-14 06:00:34 Aussentemperatur 15.40 14.62 62.30
153904 2024-05-14 05:32:25 Aussentemperatur 15.50 14.73 62.20
153903 2024-05-14 05:04:16 Aussentemperatur 15.60 14.83 62.00
153902 2024-05-14 04:36:08 Aussentemperatur 15.80 15.05 62.00
153901 2024-05-14 04:07:58 Aussentemperatur 15.90 15.19 62.90
153900 2024-05-14 03:39:48 Aussentemperatur 15.90 15.23 64.40
153899 2024-05-14 03:11:39 Aussentemperatur 16.10 15.47 65.40
153898 2024-05-14 02:43:31 Aussentemperatur 16.40 15.85 67.20
153897 2024-05-14 02:15:23 Aussentemperatur 16.50 16.03 69.70
153896 2024-05-14 01:47:12 Aussentemperatur 16.70 16.30 71.70
153895 2024-05-14 01:19:02 Aussentemperatur 16.70 16.30 71.90
153894 2024-05-14 00:50:53 Aussentemperatur 16.60 16.21 72.50
153893 2024-05-14 00:22:44 Aussentemperatur 16.70 16.33 72.80
153892 2024-05-13 23:54:35 Aussentemperatur 16.90 16.54 72.50
153891 2024-05-13 23:26:26 Aussentemperatur 17.20 16.84 71.50
153890 2024-05-13 22:58:18 Aussentemperatur 17.60 17.24 70.00
153889 2024-05-13 22:30:10 Aussentemperatur 17.90 17.54 68.70
153888 2024-05-13 22:02:02 Aussentemperatur 18.30 17.95 67.50
153887 2024-05-13 21:33:53 Aussentemperatur 18.80 18.48 67.00
153886 2024-05-13 21:05:46 Aussentemperatur 19.30 19.01 66.00
153885 2024-05-13 20:37:38 Aussentemperatur 19.70 19.41 64.70
153884 2024-05-13 20:09:31 Aussentemperatur 20.30 20.00 61.80
153883 2024-05-13 19:41:23 Aussentemperatur 20.90 20.61 59.80
153882 2024-05-13 19:13:15 Aussentemperatur 21.30 21.01 58.40
153881 2024-05-13 18:45:11 Aussentemperatur 22.30 21.99 53.80
153880 2024-05-13 18:17:07 Aussentemperatur 23.00 22.73 52.60
153879 2024-05-13 17:48:57 Aussentemperatur 23.20 23.00 54.60
153878 2024-05-13 17:20:49 Aussentemperatur 23.50 23.35 55.20
153877 2024-05-13 16:52:43 Aussentemperatur 24.30 24.16 52.70
153876 2024-05-13 16:24:29 Aussentemperatur 23.50 23.32 54.00
153875 2024-05-13 15:56:13 Aussentemperatur 22.40 22.12 54.60
153874 2024-05-13 15:28:05 Aussentemperatur 22.60 22.28 52.40
153873 2024-05-13 14:59:58 Aussentemperatur 23.30 23.01 50.90
153872 2024-05-13 14:31:50 Aussentemperatur 24.00 23.79 51.00
153871 2024-05-13 14:03:44 Aussentemperatur 24.00 23.78 50.80
153870 2024-05-13 13:35:41 Aussentemperatur 24.40 24.28 53.00
153869 2024-05-13 13:07:51 Aussentemperatur 25.10 25.05 53.00
153868 2024-05-13 12:38:43 Aussentemperatur 20.70 20.41 60.50
153867 2024-05-13 12:10:17 Aussentemperatur 19.50 19.20 65.00
153866 2024-05-13 11:42:02 Aussentemperatur 18.60 18.24 66.20
153865 2024-05-13 11:13:48 Aussentemperatur 18.10 17.74 67.80
153864 2024-05-13 10:45:35 Aussentemperatur 17.50 17.09 68.50
153863 2024-05-13 10:17:19 Aussentemperatur 17.20 16.80 70.00
153862 2024-05-13 09:49:05 Aussentemperatur 16.60 16.15 70.20
153861 2024-05-13 09:20:53 Aussentemperatur 16.20 15.71 70.30
153860 2024-05-13 08:52:42 Aussentemperatur 15.80 15.27 70.30
153859 2024-05-13 08:24:32 Aussentemperatur 15.60 15.03 69.40
153858 2024-05-13 07:56:21 Aussentemperatur 15.50 14.88 68.10
153857 2024-05-13 07:28:10 Aussentemperatur 15.40 14.76 67.70
153856 2024-05-13 07:00:00 Aussentemperatur 15.10 14.42 67.20
153855 2024-05-13 06:31:52 Aussentemperatur 15.10 14.36 64.80
153854 2024-05-13 06:03:42 Aussentemperatur 15.00 14.23 64.30
153853 2024-05-13 05:35:34 Aussentemperatur 15.20 14.44 63.90
153852 2024-05-13 05:07:26 Aussentemperatur 15.50 14.76 63.20
153851 2024-05-13 04:39:18 Aussentemperatur 15.80 15.05 62.00
153850 2024-05-13 04:11:09 Aussentemperatur 16.00 15.26 61.40
153849 2024-05-13 03:43:00 Aussentemperatur 16.10 15.37 61.40
153848 2024-05-13 03:14:51 Aussentemperatur 16.40 15.68 60.80
153847 2024-05-13 02:46:42 Aussentemperatur 16.50 15.78 60.20
153846 2024-05-13 02:18:33 Aussentemperatur 16.70 15.97 59.00
153845 2024-05-13 01:50:24 Aussentemperatur 16.80 16.07 58.80
153844 2024-05-13 01:22:15 Aussentemperatur 16.90 16.17 58.30
153843 2024-05-13 00:57:47 Terrasse 19.30 18.42 43.60
153842 2024-05-13 00:54:05 Aussentemperatur 17.20 16.50 58.30
153841 2024-05-13 00:25:56 Aussentemperatur 17.40 16.70 57.70
153840 2024-05-13 00:23:21 Terrasse 19.50 18.62 42.80
153839 2024-05-12 23:57:47 Aussentemperatur 17.40 16.72 58.20
153838 2024-05-12 23:29:38 Aussentemperatur 17.50 16.81 57.80
153837 2024-05-12 23:01:29 Aussentemperatur 17.80 17.15 58.10
153836 2024-05-12 22:33:21 Aussentemperatur 18.00 17.36 57.50
153835 2024-05-12 22:05:13 Aussentemperatur 18.30 17.66 56.30
153834 2024-05-12 21:37:06 Aussentemperatur 18.90 18.27 54.70
153833 2024-05-12 21:08:59 Aussentemperatur 19.40 18.80 53.80
153832 2024-05-12 20:40:52 Aussentemperatur 20.00 19.44 52.90
153831 2024-05-12 20:19:16 Terrasse 24.00 23.41 36.60
153830 2024-05-12 20:12:45 Aussentemperatur 20.50 19.96 51.70
153829 2024-05-12 19:51:02 Terrasse 25.20 24.68 34.80
153828 2024-05-12 19:44:41 Aussentemperatur 21.50 20.94 47.10
153827 2024-05-12 19:22:46 Terrasse 26.00 25.51 32.80
153826 2024-05-12 19:16:36 Aussentemperatur 22.20 21.69 46.60
153825 2024-05-12 18:54:31 Terrasse 27.10 26.53 31.30
153824 2024-05-12 18:48:29 Aussentemperatur 22.90 22.37 43.10
153823 2024-05-12 18:26:16 Terrasse 28.10 27.18 30.30
153822 2024-05-12 18:20:25 Aussentemperatur 23.80 23.34 42.20
153821 2024-05-12 17:58:01 Terrasse 29.10 27.92 29.40
153820 2024-05-12 17:52:17 Aussentemperatur 24.30 23.92 43.50
153819 2024-05-12 17:29:46 Terrasse 30.30 28.95 28.90
153818 2024-05-12 17:24:08 Aussentemperatur 24.60 24.22 42.20
153817 2024-05-12 17:01:33 Terrasse 31.10 29.67 28.10
153816 2024-05-12 16:55:59 Aussentemperatur 24.80 24.45 42.60
153815 2024-05-12 16:33:13 Terrasse 31.40 29.92 27.50
153814 2024-05-12 16:27:48 Aussentemperatur 24.50 24.13 43.00
153813 2024-05-12 16:04:48 Terrasse 30.50 29.14 28.80
153812 2024-05-12 15:59:37 Aussentemperatur 24.00 23.57 42.80
153811 2024-05-12 15:36:28 Terrasse 30.70 29.33 28.80
153810 2024-05-12 15:31:28 Aussentemperatur 24.20 23.81 43.50
153809 2024-05-12 15:08:18 Terrasse 33.40 32.26 28.40
153808 2024-05-12 15:03:29 Aussentemperatur 25.20 24.90 43.20
153807 2024-05-12 14:39:55 Terrasse 33.80 32.58 27.20
153806 2024-05-12 14:35:15 Aussentemperatur 25.00 24.69 43.50
153805 2024-05-12 14:11:33 Terrasse 33.30 31.98 27.20
153804 2024-05-12 14:07:02 Aussentemperatur 24.60 24.30 45.30
153803 2024-05-12 13:43:18 Terrasse 33.50 32.52 29.30
153802 2024-05-12 13:38:59 Aussentemperatur 24.40 24.17 48.80
153801 2024-05-12 13:14:58 Terrasse 33.60 32.84 30.50
153800 2024-05-12 13:11:10 Aussentemperatur 25.00 24.85 49.40
153799 2024-05-12 12:46:38 Terrasse 33.40 32.79 31.80
153798 2024-05-12 12:42:50 Aussentemperatur 25.70 25.71 52.90
153797 2024-05-12 12:18:14 Terrasse 32.50 31.72 32.40
153796 2024-05-12 12:13:22 Aussentemperatur 18.80 18.41 64.00
153795 2024-05-12 11:49:50 Terrasse 31.50 30.67 33.60
153794 2024-05-12 11:45:08 Aussentemperatur 18.00 17.57 65.80
153793 2024-05-12 11:21:25 Terrasse 30.60 29.80 34.90
153792 2024-05-12 11:16:56 Aussentemperatur 17.70 17.24 65.80
153791 2024-05-12 10:52:56 Terrasse 29.40 28.67 36.20
153790 2024-05-12 10:48:43 Aussentemperatur 17.20 16.72 66.70
153789 2024-05-12 10:24:25 Terrasse 27.40 27.07 38.20
153788 2024-05-12 10:20:32 Aussentemperatur 16.70 16.15 66.00
153787 2024-05-12 09:55:51 Terrasse 25.20 24.82 40.20
153786 2024-05-12 09:52:19 Aussentemperatur 16.20 15.62 66.90
153785 2024-05-12 09:27:19 Terrasse 23.30 22.81 43.10
153784 2024-05-12 09:24:08 Aussentemperatur 15.60 15.01 68.80
153783 2024-05-12 08:58:27 Terrasse 20.50 19.84 47.20
153782 2024-05-12 08:55:56 Aussentemperatur 15.30 14.71 70.00
153781 2024-05-12 08:29:51 Terrasse 18.10 17.31 51.40
153780 2024-05-12 08:27:47 Aussentemperatur 15.00 14.38 69.90
153779 2024-05-12 08:01:26 Terrasse 17.00 16.15 53.60
153778 2024-05-12 07:59:37 Aussentemperatur 14.80 14.15 69.60
153777 2024-05-12 07:33:04 Terrasse 16.40 15.51 54.20
153776 2024-05-12 07:31:26 Aussentemperatur 14.70 14.05 69.80
153775 2024-05-12 07:04:42 Terrasse 16.00 15.08 54.70
153774 2024-05-12 07:03:16 Aussentemperatur 14.50 13.80 68.90
153773 2024-05-12 06:36:22 Terrasse 15.80 14.86 54.40
153772 2024-05-12 06:35:08 Aussentemperatur 14.50 13.79 68.30
153771 2024-05-12 06:08:03 Terrasse 15.80 14.84 53.90
153770 2024-05-12 06:06:58 Aussentemperatur 14.40 13.66 67.40
153769 2024-05-12 05:39:44 Terrasse 16.00 15.04 52.90
153768 2024-05-12 05:38:50 Aussentemperatur 14.70 13.96 66.30
153767 2024-05-12 05:11:25 Terrasse 16.10 15.13 52.20
153766 2024-05-12 05:10:43 Aussentemperatur 14.80 14.04 65.40
153765 2024-05-12 04:43:07 Terrasse 16.20 15.23 51.70
153764 2024-05-12 04:42:34 Aussentemperatur 14.90 14.14 64.90
153763 2024-05-12 04:14:50 Terrasse 16.40 15.42 50.80
153762 2024-05-12 04:14:27 Aussentemperatur 15.00 14.22 63.80
153761 2024-05-12 03:46:32 Terrasse 16.60 15.61 49.50
153760 2024-05-12 03:46:19 Aussentemperatur 15.20 14.42 62.90
153759 2024-05-12 03:18:14 Terrasse 16.80 15.80 48.30
153758 2024-05-12 03:18:12 Aussentemperatur 15.40 14.61 62.00
153757 2024-05-12 02:50:03 Aussentemperatur 15.50 14.70 61.10
153756 2024-05-12 02:49:56 Terrasse 17.00 15.98 47.00
153755 2024-05-12 02:21:54 Aussentemperatur 15.60 14.80 60.80
153754 2024-05-12 02:21:37 Terrasse 17.20 16.18 46.10
153753 2024-05-12 01:53:46 Aussentemperatur 15.80 15.02 60.50
153752 2024-05-12 01:53:18 Terrasse 17.40 16.40 46.30
153751 2024-05-12 01:25:36 Aussentemperatur 15.90 15.13 60.70
153750 2024-05-12 01:25:00 Terrasse 17.50 16.50 45.80
153749 2024-05-12 00:57:28 Aussentemperatur 16.00 15.25 60.90
153748 2024-05-12 00:56:40 Terrasse 17.60 16.61 45.70
153747 2024-05-12 00:29:17 Aussentemperatur 15.80 15.05 61.90
153746 2024-05-12 00:28:22 Terrasse 17.60 16.62 46.10
153745 2024-05-12 00:01:08 Aussentemperatur 15.80 15.04 61.60
153744 2024-05-12 00:00:03 Terrasse 17.60 16.62 46.20
153743 2024-05-11 23:33:00 Aussentemperatur 16.10 15.35 60.80
153742 2024-05-11 23:31:46 Terrasse 17.90 16.95 46.00
153741 2024-05-11 23:04:53 Aussentemperatur 16.50 15.77 60.00
153740 2024-05-11 23:03:28 Terrasse 18.30 17.36 44.90
153739 2024-05-11 22:36:55 Aussentemperatur 16.90 16.21 59.80
153738 2024-05-11 22:35:11 Terrasse 18.80 17.88 44.00
153737 2024-05-11 22:08:45 Aussentemperatur 17.20 16.52 59.10
153736 2024-05-11 22:06:56 Terrasse 19.70 18.85 43.20
153735 2024-05-11 21:40:38 Aussentemperatur 17.60 16.93 57.90
153734 2024-05-11 21:38:40 Terrasse 20.30 19.47 41.60
153733 2024-05-11 21:12:33 Aussentemperatur 18.10 17.45 56.70
153732 2024-05-11 21:10:26 Terrasse 21.00 20.22 40.70
153731 2024-05-11 20:44:28 Aussentemperatur 19.00 18.39 54.90
153730 2024-05-11 20:42:11 Terrasse 22.00 21.29 39.80
153729 2024-05-11 20:16:21 Aussentemperatur 19.70 19.09 52.10
153728 2024-05-11 20:13:55 Terrasse 22.90 22.21 36.80
153727 2024-05-11 19:48:15 Aussentemperatur 20.30 19.69 50.00
153726 2024-05-11 19:45:41 Terrasse 23.80 23.17 35.70
153725 2024-05-11 19:20:07 Aussentemperatur 20.90 20.34 49.40
153724 2024-05-11 19:17:26 Terrasse 24.60 24.01 34.30
153723 2024-05-11 18:52:01 Aussentemperatur 21.60 21.06 47.80
153722 2024-05-11 18:49:11 Terrasse 25.80 25.30 33.30
153721 2024-05-11 18:23:57 Aussentemperatur 22.50 22.00 45.70
153720 2024-05-11 18:20:57 Terrasse 26.90 26.44 32.10
153719 2024-05-11 17:55:53 Aussentemperatur 23.20 22.71 43.60
153718 2024-05-11 17:52:42 Terrasse 28.10 27.22 31.00
153717 2024-05-11 17:27:45 Aussentemperatur 23.50 23.06 44.10
153716 2024-05-11 17:24:28 Terrasse 29.20 27.98 28.90
153715 2024-05-11 16:59:35 Aussentemperatur 23.80 23.34 42.30
153714 2024-05-11 16:56:14 Terrasse 30.10 28.77 28.90
153713 2024-05-11 16:31:26 Aussentemperatur 24.00 23.60 43.70
153712 2024-05-11 16:27:57 Terrasse 30.90 29.52 28.70
153711 2024-05-11 16:03:15 Aussentemperatur 23.80 23.36 43.10
153710 2024-05-11 15:59:39 Terrasse 31.60 30.18 28.10
153709 2024-05-11 15:35:01 Aussentemperatur 23.60 23.16 43.70
153708 2024-05-11 15:31:18 Terrasse 31.60 30.29 29.20
153707 2024-05-11 15:06:52 Aussentemperatur 24.00 23.58 43.20
153706 2024-05-11 15:03:00 Terrasse 32.20 30.74 27.30
153705 2024-05-11 14:38:41 Aussentemperatur 23.90 23.50 44.40
153704 2024-05-11 14:34:41 Terrasse 32.80 31.46 27.70
153703 2024-05-11 14:10:28 Aussentemperatur 23.80 23.39 44.40
153702 2024-05-11 14:06:19 Terrasse 32.40 31.04 28.00
153701 2024-05-11 13:42:26 Aussentemperatur 23.60 23.18 44.70
153700 2024-05-11 13:38:06 Terrasse 32.50 31.31 29.30
153699 2024-05-11 13:14:24 Aussentemperatur 23.90 23.55 46.30
153698 2024-05-11 13:09:45 Terrasse 32.50 31.31 29.30
153697 2024-05-11 12:46:11 Aussentemperatur 25.10 24.85 45.50
153696 2024-05-11 12:41:22 Terrasse 32.20 31.01 29.70
153695 2024-05-11 12:16:45 Aussentemperatur 19.50 18.97 56.00
153694 2024-05-11 12:12:56 Terrasse 31.30 30.07 30.20
153693 2024-05-11 11:48:30 Aussentemperatur 17.40 16.75 59.70
153692 2024-05-11 11:44:32 Terrasse 30.90 29.72 31.00
153691 2024-05-11 11:20:17 Aussentemperatur 16.90 16.24 61.00
153690 2024-05-11 11:16:07 Terrasse 29.80 28.69 31.70
153689 2024-05-11 10:52:05 Aussentemperatur 16.10 15.37 61.60
153688 2024-05-11 10:47:41 Terrasse 29.00 28.11 33.70
153687 2024-05-11 10:23:55 Aussentemperatur 15.90 15.17 62.40
153686 2024-05-11 10:19:03 Terrasse 26.50 26.36 36.30
153685 2024-05-11 09:55:43 Aussentemperatur 15.70 14.93 61.50
153684 2024-05-11 09:50:30 Terrasse 24.20 23.66 37.80
153683 2024-05-11 09:27:31 Aussentemperatur 15.40 14.69 64.90
153682 2024-05-11 09:21:52 Terrasse 21.90 21.21 40.90
153681 2024-05-11 08:59:16 Aussentemperatur 14.10 13.37 69.00
153680 2024-05-11 08:53:00 Terrasse 19.40 18.52 43.10
153679 2024-05-11 08:31:05 Aussentemperatur 13.70 12.97 70.80
153678 2024-05-11 08:24:23 Terrasse 16.90 15.91 48.40
153677 2024-05-11 08:02:55 Aussentemperatur 13.40 12.65 71.20
153676 2024-05-11 07:55:58 Terrasse 15.50 14.48 52.80
153675 2024-05-11 07:34:45 Aussentemperatur 13.30 12.51 69.80
153674 2024-05-11 07:27:34 Terrasse 14.80 13.71 52.70
153673 2024-05-11 07:06:35 Aussentemperatur 12.80 11.93 68.70
153672 2024-05-11 06:59:12 Terrasse 13.90 12.74 53.60
153671 2024-05-11 06:38:26 Aussentemperatur 12.60 11.67 67.10
153670 2024-05-11 06:30:52 Terrasse 13.70 12.50 52.50
153669 2024-05-11 06:10:18 Aussentemperatur 12.60 11.64 66.00
153668 2024-05-11 06:02:34 Terrasse 13.70 12.46 51.00
153667 2024-05-11 05:42:09 Aussentemperatur 12.70 11.72 65.00
153666 2024-05-11 05:34:16 Terrasse 14.00 12.78 50.70
153665 2024-05-11 05:14:02 Aussentemperatur 13.00 12.03 64.10
153664 2024-05-11 05:05:57 Terrasse 14.40 13.17 49.00
153663 2024-05-11 04:45:55 Aussentemperatur 13.20 12.22 63.00
153662 2024-05-11 04:37:40 Terrasse 14.70 13.49 48.30
153661 2024-05-11 04:17:47 Aussentemperatur 13.50 12.53 62.10
153660 2024-05-11 04:09:22 Terrasse 15.00 13.80 47.80
153659 2024-05-11 03:49:39 Aussentemperatur 13.80 12.83 61.10
153658 2024-05-11 03:41:05 Terrasse 15.30 14.10 46.50
153657 2024-05-11 03:21:30 Aussentemperatur 14.00 13.06 61.60
153656 2024-05-11 03:12:47 Terrasse 15.60 14.42 46.20
153655 2024-05-11 02:53:22 Aussentemperatur 14.20 13.26 60.70
153654 2024-05-11 02:44:28 Terrasse 15.80 14.62 45.40
153653 2024-05-11 02:25:14 Aussentemperatur 14.30 13.37 60.80
153652 2024-05-11 02:16:09 Terrasse 15.80 14.62 45.30
153651 2024-05-11 01:57:04 Aussentemperatur 14.20 13.28 61.60
153650 2024-05-11 01:47:49 Terrasse 15.80 14.63 45.80
153649 2024-05-11 01:28:55 Aussentemperatur 14.10 13.19 62.30
153648 2024-05-11 01:19:30 Terrasse 15.70 14.54 46.60
153647 2024-05-11 01:00:47 Aussentemperatur 14.30 13.41 62.10
153646 2024-05-11 00:51:13 Terrasse 15.80 14.68 47.60
153645 2024-05-11 00:32:40 Aussentemperatur 14.50 13.62 61.80
153644 2024-05-11 00:22:56 Terrasse 16.10 14.99 46.90
153643 2024-05-11 00:04:33 Aussentemperatur 14.80 13.93 61.10
153642 2024-05-10 23:54:38 Terrasse 16.60 15.52 46.00
153641 2024-05-10 23:36:26 Aussentemperatur 15.00 14.13 60.30
153640 2024-05-10 23:26:20 Terrasse 16.90 15.84 45.60
153639 2024-05-10 23:08:19 Aussentemperatur 15.40 14.54 59.10
153638 2024-05-10 22:58:03 Terrasse 17.30 16.26 44.80
153637 2024-05-10 22:40:12 Aussentemperatur 15.80 14.95 57.90
153636 2024-05-10 22:29:47 Terrasse 17.80 16.77 43.30
153635 2024-05-10 22:12:05 Aussentemperatur 16.10 15.24 56.30
153634 2024-05-10 22:01:30 Terrasse 18.00 16.97 42.70
153633 2024-05-10 21:43:57 Aussentemperatur 16.50 15.66 55.70
153632 2024-05-10 21:33:14 Terrasse 18.50 17.52 42.50
153631 2024-05-10 21:15:50 Aussentemperatur 17.00 16.17 54.30
153630 2024-05-10 21:04:59 Terrasse 19.30 18.36 41.10
153629 2024-05-10 20:47:44 Aussentemperatur 17.50 16.70 53.50
153628 2024-05-10 20:36:45 Terrasse 20.30 19.41 39.30
153627 2024-05-10 20:19:36 Aussentemperatur 18.00 17.23 52.80
153626 2024-05-10 20:08:30 Terrasse 21.40 20.55 36.60
153625 2024-05-10 19:51:30 Aussentemperatur 18.60 17.84 50.60
153624 2024-05-10 19:40:14 Terrasse 22.10 21.28 35.00
153623 2024-05-10 19:23:24 Aussentemperatur 19.20 18.43 48.20
153622 2024-05-10 19:12:01 Terrasse 23.30 22.55 33.20
153621 2024-05-10 18:55:20 Aussentemperatur 20.30 19.57 45.40
153620 2024-05-10 18:43:47 Terrasse 24.70 24.06 32.10
153619 2024-05-10 18:27:17 Aussentemperatur 21.10 20.41 43.80
153618 2024-05-10 18:15:33 Terrasse 25.80 25.22 30.20
153617 2024-05-10 17:59:10 Aussentemperatur 21.90 21.28 43.30
153616 2024-05-10 17:47:19 Terrasse 27.00 26.42 30.00
153615 2024-05-10 17:31:00 Aussentemperatur 21.90 21.31 44.70
153614 2024-05-10 17:19:03 Terrasse 27.70 26.90 30.50
153613 2024-05-10 17:02:55 Aussentemperatur 22.30 21.73 43.70
153612 2024-05-10 16:50:48 Terrasse 28.80 27.69 29.60
153611 2024-05-10 16:34:37 Aussentemperatur 21.60 20.99 44.90
153610 2024-05-10 16:22:25 Terrasse 27.70 26.89 30.20
153609 2024-05-10 16:06:35 Aussentemperatur 22.40 21.84 44.00
153608 2024-05-10 15:54:04 Terrasse 29.70 28.45 29.60
153607 2024-05-10 15:38:20 Aussentemperatur 21.90 21.30 44.30
153606 2024-05-10 15:25:49 Terrasse 30.00 28.65 28.60
153605 2024-05-10 15:10:13 Aussentemperatur 22.60 22.06 43.70
153604 2024-05-10 14:57:33 Terrasse 31.50 30.14 28.80
153603 2024-05-10 14:42:03 Aussentemperatur 22.90 22.37 43.20
153602 2024-05-10 14:29:10 Terrasse 31.30 29.84 27.70
153601 2024-05-10 14:13:51 Aussentemperatur 22.60 22.05 43.30
153600 2024-05-10 14:00:52 Terrasse 31.30 29.84 27.80
153599 2024-05-10 13:45:48 Aussentemperatur 22.60 22.04 43.20
153598 2024-05-10 13:32:38 Terrasse 31.60 30.23 28.60
153597 2024-05-10 13:17:34 Aussentemperatur 22.20 21.62 44.00
153596 2024-05-10 13:04:21 Terrasse 31.80 30.40 28.20
153595 2024-05-10 12:49:34 Aussentemperatur 25.00 24.75 45.70
153594 2024-05-10 12:35:55 Terrasse 31.00 29.69 29.50
153593 2024-05-10 12:20:33 Aussentemperatur 19.90 19.36 54.00
153592 2024-05-10 12:07:31 Terrasse 30.30 28.96 29.00
153591 2024-05-10 11:52:13 Aussentemperatur 16.10 15.26 57.20
153590 2024-05-10 11:39:07 Terrasse 29.60 28.55 32.30
153589 2024-05-10 11:24:02 Aussentemperatur 15.60 14.81 61.10
153588 2024-05-10 11:10:41 Terrasse 28.50 27.59 32.20
153587 2024-05-10 10:55:50 Aussentemperatur 15.00 14.18 62.20
153586 2024-05-10 10:42:13 Terrasse 27.50 26.95 34.60
153585 2024-05-10 10:27:40 Aussentemperatur 14.90 14.09 63.00
153584 2024-05-10 10:13:44 Terrasse 25.60 25.13 35.10
153583 2024-05-10 09:59:26 Aussentemperatur 13.90 13.06 65.80
153582 2024-05-10 09:45:11 Terrasse 23.40 22.81 39.00
153581 2024-05-10 09:31:13 Aussentemperatur 13.20 12.40 69.80
153580 2024-05-10 09:16:30 Terrasse 20.70 19.91 41.60
153579 2024-05-10 09:03:02 Aussentemperatur 12.70 11.89 71.50
153578 2024-05-10 08:47:31 Terrasse 17.80 16.83 45.90
153577 2024-05-10 08:34:54 Aussentemperatur 12.70 11.87 70.70
153576 2024-05-10 08:19:00 Terrasse 15.00 13.87 50.30
153575 2024-05-10 08:06:43 Aussentemperatur 12.20 11.36 72.30
153574 2024-05-10 07:50:33 Terrasse 13.80 12.61 52.80
153573 2024-05-10 07:38:34 Aussentemperatur 11.90 11.03 72.10
153572 2024-05-10 07:22:11 Terrasse 12.90 11.67 54.70
153571 2024-05-10 07:10:23 Aussentemperatur 11.50 10.58 71.70
153570 2024-05-10 06:53:49 Terrasse 12.30 11.06 56.60
153569 2024-05-10 06:42:14 Aussentemperatur 11.50 10.56 70.90
153568 2024-05-10 06:25:30 Terrasse 12.00 10.74 56.70
153567 2024-05-10 06:14:07 Aussentemperatur 11.40 10.43 70.40
153566 2024-05-10 05:57:11 Terrasse 11.80 10.52 56.90
153565 2024-05-10 05:45:59 Aussentemperatur 11.50 10.52 69.50
153564 2024-05-10 05:28:52 Terrasse 12.00 10.72 56.00
153563 2024-05-10 05:17:53 Aussentemperatur 11.50 10.52 69.40
153562 2024-05-10 05:00:35 Terrasse 12.10 10.82 55.80
153561 2024-05-10 04:49:46 Aussentemperatur 11.70 10.70 67.90
153560 2024-05-10 04:32:18 Terrasse 12.40 11.13 55.10
153559 2024-05-10 04:21:39 Aussentemperatur 11.90 10.91 67.40
153558 2024-05-10 04:04:00 Terrasse 12.60 11.33 54.10
153557 2024-05-10 03:53:32 Aussentemperatur 12.10 11.10 66.30
153556 2024-05-10 03:35:42 Terrasse 12.60 11.31 53.60
153555 2024-05-10 03:25:25 Aussentemperatur 12.00 11.03 67.80
153554 2024-05-10 03:07:24 Terrasse 12.80 11.54 53.80
153553 2024-05-10 02:57:17 Aussentemperatur 12.00 11.05 68.60
153552 2024-05-10 02:39:07 Terrasse 13.00 11.75 53.30
153551 2024-05-10 02:29:11 Aussentemperatur 12.10 11.15 68.40
153550 2024-05-10 02:10:49 Terrasse 13.10 11.84 52.80
153549 2024-05-10 02:01:04 Aussentemperatur 12.30 11.37 68.20
153548 2024-05-10 01:42:30 Terrasse 13.30 12.07 53.10
153547 2024-05-10 01:32:57 Aussentemperatur 12.40 11.47 67.90
153546 2024-05-10 01:14:13 Terrasse 13.60 12.41 53.60
153545 2024-05-10 01:04:51 Aussentemperatur 12.50 11.58 68.00
153544 2024-05-10 00:45:55 Terrasse 13.90 12.73 53.10
153543 2024-05-10 00:36:43 Aussentemperatur 12.80 11.89 67.30
153542 2024-05-10 00:17:38 Terrasse 14.20 13.04 52.20
153541 2024-05-10 00:08:36 Aussentemperatur 13.10 12.20 66.50
153540 2024-05-09 23:49:20 Terrasse 14.50 13.35 51.50
153539 2024-05-09 23:40:29 Aussentemperatur 13.10 12.19 65.90
153538 2024-05-09 23:21:03 Terrasse 14.80 13.66 50.90
153537 2024-05-09 23:12:22 Aussentemperatur 13.50 12.59 64.70
153536 2024-05-09 22:52:44 Terrasse 15.00 13.88 50.70
153535 2024-05-09 22:44:14 Aussentemperatur 13.90 13.00 63.20
153534 2024-05-09 22:24:29 Terrasse 15.50 14.38 48.80
153533 2024-05-09 22:16:08 Aussentemperatur 14.20 13.27 61.10
153532 2024-05-09 21:56:12 Terrasse 16.00 14.89 47.30
153531 2024-05-09 21:48:01 Aussentemperatur 14.60 13.68 60.10
153530 2024-05-09 21:27:59 Terrasse 16.70 15.63 46.10
153529 2024-05-09 21:19:56 Aussentemperatur 15.20 14.31 58.90
153528 2024-05-09 20:59:45 Terrasse 17.70 16.68 44.40
153527 2024-05-09 20:51:51 Aussentemperatur 15.80 14.97 58.90
153526 2024-05-09 20:31:31 Terrasse 18.90 17.92 41.20
153525 2024-05-09 20:23:46 Aussentemperatur 16.40 15.59 57.10
153524 2024-05-09 20:03:18 Terrasse 20.10 19.18 39.00
153523 2024-05-09 19:55:40 Aussentemperatur 17.00 16.19 55.10
153522 2024-05-09 19:35:01 Terrasse 20.70 19.82 38.20
153521 2024-05-09 19:27:34 Aussentemperatur 17.60 16.76 51.60
153520 2024-05-09 19:06:46 Terrasse 21.40 20.54 36.20
153519 2024-05-09 18:59:29 Aussentemperatur 18.20 17.38 49.80
153518 2024-05-09 18:38:31 Terrasse 21.90 21.09 36.30
153517 2024-05-09 18:31:22 Aussentemperatur 18.70 17.95 50.80
153516 2024-05-09 18:10:18 Terrasse 23.50 22.83 35.40
153515 2024-05-09 18:03:18 Aussentemperatur 19.50 18.80 49.40
153514 2024-05-09 17:42:09 Terrasse 25.60 25.08 33.30
153513 2024-05-09 17:35:11 Aussentemperatur 20.50 19.84 47.10
153512 2024-05-09 17:13:50 Terrasse 25.80 25.30 33.00
153511 2024-05-09 17:06:57 Aussentemperatur 20.00 19.34 49.20
153510 2024-05-09 16:45:33 Terrasse 26.40 25.97 33.40
153509 2024-05-09 16:38:47 Aussentemperatur 20.30 19.63 47.70
153508 2024-05-09 16:17:21 Terrasse 27.30 26.72 32.50
153507 2024-05-09 16:10:39 Aussentemperatur 20.50 19.85 47.70
153506 2024-05-09 15:49:00 Terrasse 26.20 25.74 33.20
153505 2024-05-09 15:42:35 Aussentemperatur 20.70 20.09 48.50
153504 2024-05-09 15:20:35 Terrasse 27.40 26.80 32.80
153503 2024-05-09 15:14:22 Aussentemperatur 20.30 19.68 49.70
153502 2024-05-09 14:52:16 Terrasse 27.80 27.05 32.10
153501 2024-05-09 14:46:15 Aussentemperatur 21.00 20.43 48.90
153500 2024-05-09 14:23:46 Terrasse 27.80 27.10 33.10
153499 2024-05-09 14:18:04 Aussentemperatur 20.60 19.98 48.30
153498 2024-05-09 13:55:37 Terrasse 29.90 28.71 30.70
153497 2024-05-09 13:49:58 Aussentemperatur 21.10 20.52 48.00
153496 2024-05-09 13:27:21 Terrasse 29.70 28.53 30.80
153495 2024-05-09 13:21:54 Aussentemperatur 21.00 20.45 49.40
153494 2024-05-09 12:59:00 Terrasse 29.70 28.59 31.60
153493 2024-05-09 12:54:04 Aussentemperatur 23.70 23.37 47.50
153492 2024-05-09 12:30:38 Terrasse 29.20 28.17 32.10
153491 2024-05-09 12:25:24 Aussentemperatur 19.60 19.08 56.00
153490 2024-05-09 12:02:11 Terrasse 28.10 27.37 33.90
153489 2024-05-09 11:56:50 Aussentemperatur 14.70 13.87 62.80
153488 2024-05-09 11:33:47 Terrasse 27.20 26.74 34.60
153487 2024-05-09 11:28:40 Aussentemperatur 14.20 13.38 65.40
153486 2024-05-09 11:05:23 Terrasse 26.60 26.44 36.70
153485 2024-05-09 11:00:28 Aussentemperatur 13.60 12.85 70.20
153484 2024-05-09 10:36:54 Terrasse 25.30 24.93 39.90
153483 2024-05-09 10:32:18 Aussentemperatur 13.20 12.49 73.20
153482 2024-05-09 10:08:20 Terrasse 22.90 22.40 44.40
153481 2024-05-09 10:04:07 Aussentemperatur 12.80 12.09 74.80
153480 2024-05-09 09:39:45 Terrasse 20.70 20.08 48.00
153479 2024-05-09 09:35:56 Aussentemperatur 12.20 11.49 77.20
153478 2024-05-09 09:10:58 Terrasse 17.50 16.71 53.80
153477 2024-05-09 09:07:46 Aussentemperatur 11.50 10.78 79.40
153476 2024-05-09 08:42:07 Terrasse 14.70 13.76 58.80
153475 2024-05-09 08:39:34 Aussentemperatur 11.10 10.35 79.70
153474 2024-05-09 08:13:34 Terrasse 11.70 10.62 65.00
153473 2024-05-09 08:11:22 Aussentemperatur 10.10 9.30 81.70
153472 2024-05-09 07:45:10 Terrasse 10.20 9.10 69.70
153471 2024-05-09 07:43:12 Aussentemperatur 9.80 8.95 80.80
153470 2024-05-09 07:16:48 Terrasse 9.60 8.44 69.70
153469 2024-05-09 07:15:04 Aussentemperatur 9.40 8.47 79.50
153468 2024-05-09 06:48:27 Terrasse 9.00 7.77 69.50
153467 2024-05-09 06:46:55 Aussentemperatur 9.20 8.24 79.20
153466 2024-05-09 06:20:08 Terrasse 9.00 7.75 68.90
153465 2024-05-09 06:18:47 Aussentemperatur 9.20 8.23 78.50
153464 2024-05-09 05:51:49 Terrasse 9.00 7.73 67.90
153463 2024-05-09 05:50:40 Aussentemperatur 9.20 8.21 78.10
153462 2024-05-09 05:23:30 Terrasse 9.20 7.95 67.80
153461 2024-05-09 05:22:32 Aussentemperatur 9.30 8.31 77.70
153460 2024-05-09 04:55:11 Terrasse 9.20 7.93 67.20
153459 2024-05-09 04:54:26 Aussentemperatur 9.40 8.41 77.10
153458 2024-05-09 04:26:55 Terrasse 9.50 8.24 66.40
153457 2024-05-09 04:26:20 Aussentemperatur 9.50 8.51 76.80
153456 2024-05-09 03:58:36 Terrasse 9.70 8.45 66.10
153455 2024-05-09 03:58:13 Aussentemperatur 9.60 8.62 76.90
153454 2024-05-09 03:30:19 Terrasse 9.90 8.66 65.60
153453 2024-05-09 03:30:07 Aussentemperatur 9.90 8.94 76.20
153452 2024-05-09 03:02:11 Terrasse 10.30 9.07 64.50
153451 2024-05-09 03:02:02 Aussentemperatur 10.20 9.26 76.10
153450 2024-05-09 02:33:56 Aussentemperatur 10.30 9.36 75.70
153449 2024-05-09 02:33:51 Terrasse 10.70 9.49 63.90
153448 2024-05-09 02:05:49 Aussentemperatur 10.50 9.57 75.20
153447 2024-05-09 02:05:33 Terrasse 11.10 9.91 62.90
153446 2024-05-09 01:37:42 Aussentemperatur 10.60 9.66 74.60
153445 2024-05-09 01:37:15 Terrasse 11.30 10.13 62.80
153444 2024-05-09 01:09:35 Aussentemperatur 10.80 9.88 74.30
153443 2024-05-09 01:08:58 Terrasse 11.50 10.33 62.20
153442 2024-05-09 00:41:30 Aussentemperatur 11.00 10.07 73.20
153441 2024-05-09 00:40:40 Terrasse 11.80 10.64 61.50
153440 2024-05-09 00:13:25 Aussentemperatur 11.30 10.37 72.20
153439 2024-05-09 00:12:21 Terrasse 11.90 10.73 60.80
153438 2024-05-08 23:45:18 Aussentemperatur 11.40 10.47 71.60
153437 2024-05-08 23:44:04 Terrasse 12.00 10.82 60.00
153436 2024-05-08 23:17:12 Aussentemperatur 11.70 10.78 70.90
153435 2024-05-08 23:15:48 Terrasse 12.50 11.35 59.30
153434 2024-05-08 22:49:03 Aussentemperatur 11.80 10.85 69.60
153433 2024-05-08 22:47:30 Terrasse 12.80 11.64 57.50
153432 2024-05-08 22:20:57 Aussentemperatur 12.00 11.04 68.30
153431 2024-05-08 22:19:13 Terrasse 13.10 11.94 56.60
153430 2024-05-08 21:53:00 Aussentemperatur 12.20 11.22 66.70
153429 2024-05-08 21:50:58 Terrasse 13.50 12.34 54.80
153428 2024-05-08 21:24:51 Aussentemperatur 12.70 11.71 64.60
153427 2024-05-08 21:22:43 Terrasse 14.00 12.79 51.30
153426 2024-05-08 20:56:48 Aussentemperatur 13.30 12.32 62.70
153425 2024-05-08 20:54:29 Terrasse 14.90 13.72 48.70
153424 2024-05-08 20:28:41 Aussentemperatur 13.90 13.01 63.60
153423 2024-05-08 20:26:16 Terrasse 15.90 14.83 49.10
153422 2024-05-08 20:00:34 Aussentemperatur 14.40 13.56 63.70
153421 2024-05-08 19:58:02 Terrasse 17.00 16.01 48.10
153420 2024-05-08 19:32:30 Aussentemperatur 15.40 14.54 59.20
153419 2024-05-08 19:29:47 Terrasse 18.00 17.00 43.70
153418 2024-05-08 19:04:25 Aussentemperatur 15.80 14.91 56.40
153417 2024-05-08 19:01:33 Terrasse 18.70 17.74 42.80
153416 2024-05-08 18:36:20 Aussentemperatur 16.50 15.67 56.00
153415 2024-05-08 18:33:19 Terrasse 19.50 18.60 41.90
153414 2024-05-08 18:08:14 Aussentemperatur 17.20 16.40 54.40
153413 2024-05-08 18:05:03 Terrasse 20.30 19.47 41.70
153412 2024-05-08 17:40:10 Aussentemperatur 17.50 16.65 51.40
153411 2024-05-08 17:36:49 Terrasse 21.10 20.20 35.80
153410 2024-05-08 17:11:52 Aussentemperatur 16.60 15.78 56.20
153409 2024-05-08 17:08:20 Terrasse 20.20 19.35 41.30
153408 2024-05-08 16:43:40 Aussentemperatur 15.90 15.13 60.80
153407 2024-05-08 16:40:03 Terrasse 19.80 18.96 43.00
153406 2024-05-08 16:15:41 Aussentemperatur 17.00 16.26 57.80
153405 2024-05-08 16:11:57 Terrasse 22.20 21.55 41.30
153404 2024-05-08 15:47:24 Aussentemperatur 16.20 15.46 60.60
153403 2024-05-08 15:43:35 Terrasse 21.10 20.39 42.90
153402 2024-05-08 15:19:09 Aussentemperatur 16.20 15.49 61.90
153401 2024-05-08 15:15:03 Terrasse 20.90 20.19 43.80
153400 2024-05-08 14:50:53 Aussentemperatur 15.80 15.05 62.00
153399 2024-05-08 14:46:23 Terrasse 19.80 19.02 45.40
153398 2024-05-08 14:22:51 Aussentemperatur 15.60 14.83 61.90
153397 2024-05-08 14:18:14 Terrasse 20.40 19.62 43.20
153396 2024-05-08 13:54:58 Aussentemperatur 17.30 16.66 60.20
153395 2024-05-08 13:50:02 Terrasse 23.30 22.78 41.90
153394 2024-05-08 13:26:46 Aussentemperatur 15.60 14.85 62.50
153393 2024-05-08 13:21:45 Terrasse 21.30 20.63 44.00
153392 2024-05-08 12:58:34 Aussentemperatur 16.30 15.69 65.40
153391 2024-05-08 12:53:05 Terrasse 20.20 19.47 45.70
153390 2024-05-08 12:30:12 Aussentemperatur 14.20 13.50 70.00
153389 2024-05-08 12:24:40 Terrasse 18.90 18.11 48.40
153388 2024-05-08 12:01:57 Aussentemperatur 13.50 12.75 70.60
153387 2024-05-08 11:56:23 Terrasse 18.70 17.92 49.50
153386 2024-05-08 11:33:45 Aussentemperatur 13.00 12.25 72.60
153385 2024-05-08 11:27:53 Terrasse 18.00 17.17 50.50
153384 2024-05-08 11:05:32 Aussentemperatur 12.50 11.70 72.50
153383 2024-05-08 10:59:45 Terrasse 18.00 17.16 49.80
153382 2024-05-08 10:37:20 Aussentemperatur 11.90 11.09 74.30
153381 2024-05-08 10:31:18 Terrasse 16.90 16.04 53.30
153380 2024-05-08 10:09:11 Aussentemperatur 12.00 11.19 74.00
153379 2024-05-08 10:03:30 Terrasse 19.40 18.68 49.30
153378 2024-05-08 09:40:57 Aussentemperatur 11.20 10.33 75.00
153377 2024-05-08 09:34:27 Terrasse 15.00 14.03 56.50
153376 2024-05-08 09:12:47 Aussentemperatur 10.80 9.93 76.30
153375 2024-05-08 09:05:55 Terrasse 12.50 11.43 62.30
153374 2024-05-08 08:44:41 Aussentemperatur 10.90 10.02 75.70
153373 2024-05-08 08:37:31 Terrasse 11.90 10.81 63.60
153372 2024-05-08 08:16:30 Aussentemperatur 10.80 9.94 76.90
153371 2024-05-08 08:09:06 Terrasse 11.10 9.98 65.50
153370 2024-05-08 07:48:19 Aussentemperatur 10.50 9.65 78.20
153369 2024-05-08 07:40:45 Terrasse 10.50 9.35 66.90
153368 2024-05-08 07:20:09 Aussentemperatur 10.30 9.43 78.30
153367 2024-05-08 07:12:22 Terrasse 10.00 8.82 67.50
153366 2024-05-08 06:51:58 Aussentemperatur 10.00 9.10 78.20
153365 2024-05-08 06:44:00 Terrasse 9.60 8.40 68.50
153364 2024-05-08 06:23:47 Aussentemperatur 9.60 8.69 79.30
153363 2024-05-08 06:15:39 Terrasse 9.30 8.08 68.90
153362 2024-05-08 05:55:37 Aussentemperatur 9.30 8.36 79.50
153361 2024-05-08 05:47:21 Terrasse 9.40 8.17 68.10
153360 2024-05-08 05:27:32 Aussentemperatur 9.60 8.67 78.50
153359 2024-05-08 05:19:03 Terrasse 9.80 8.58 66.90
153358 2024-05-08 04:59:24 Aussentemperatur 9.90 8.98 78.00
153357 2024-05-08 04:50:45 Terrasse 10.00 8.78 66.00
153356 2024-05-08 04:31:16 Aussentemperatur 10.10 9.22 78.50
153355 2024-05-08 04:22:26 Terrasse 10.10 8.89 66.10
153354 2024-05-08 04:03:08 Aussentemperatur 10.10 9.24 79.30
153353 2024-05-08 03:54:08 Terrasse 10.30 9.14 67.20
153352 2024-05-08 03:35:01 Aussentemperatur 10.30 9.49 80.60
153351 2024-05-08 03:25:50 Terrasse 10.60 9.50 68.50
153350 2024-05-08 03:06:54 Aussentemperatur 10.40 9.64 82.20
153349 2024-05-08 02:57:33 Terrasse 10.80 9.76 69.90
153348 2024-05-08 02:38:47 Aussentemperatur 10.80 10.08 82.00
153347 2024-05-08 02:29:15 Terrasse 11.10 10.10 70.20
153346 2024-05-08 02:10:40 Aussentemperatur 10.90 10.18 81.70
153345 2024-05-08 02:00:57 Terrasse 11.10 10.08 69.50
153344 2024-05-08 01:42:33 Aussentemperatur 11.00 10.28 81.20
153343 2024-05-08 01:32:39 Terrasse 11.40 10.39 68.90
153342 2024-05-08 01:14:27 Aussentemperatur 11.30 10.60 81.10
153341 2024-05-08 01:04:22 Terrasse 11.80 10.82 68.20
153340 2024-05-08 00:46:20 Aussentemperatur 11.50 10.80 80.20
153339 2024-05-08 00:36:04 Terrasse 12.20 11.24 67.40
153338 2024-05-08 00:18:14 Aussentemperatur 11.80 11.12 80.00
153337 2024-05-08 00:07:47 Terrasse 12.80 11.87 66.60
153336 2024-05-07 23:50:10 Aussentemperatur 12.30 11.65 79.10
153335 2024-05-07 23:39:31 Terrasse 13.10 12.19 66.20
153334 2024-05-07 23:22:02 Aussentemperatur 12.50 11.86 78.80
153333 2024-05-07 23:11:13 Terrasse 13.30 12.42 66.50
153332 2024-05-07 22:53:55 Aussentemperatur 12.50 11.86 78.70
153331 2024-05-07 22:42:55 Terrasse 13.40 12.52 66.00
153330 2024-05-07 22:25:47 Aussentemperatur 12.60 11.97 78.60
153329 2024-05-07 22:14:37 Terrasse 13.50 12.62 65.50
153328 2024-05-07 21:57:39 Aussentemperatur 12.80 12.17 78.00
153327 2024-05-07 21:46:19 Terrasse 13.70 12.81 64.60
153326 2024-05-07 21:29:31 Aussentemperatur 13.00 12.37 77.20
153325 2024-05-07 21:18:01 Terrasse 13.90 13.00 63.50
153324 2024-05-07 21:01:23 Aussentemperatur 13.00 12.36 76.80
153323 2024-05-07 20:49:43 Terrasse 14.20 13.31 62.70
153322 2024-05-07 20:33:16 Aussentemperatur 13.10 12.45 75.90
153321 2024-05-07 20:21:25 Terrasse 14.50 13.62 62.00
153320 2024-05-07 20:05:09 Aussentemperatur 13.30 12.65 75.30
153319 2024-05-07 19:53:07 Terrasse 15.00 14.12 60.10
153318 2024-05-07 19:37:02 Aussentemperatur 13.60 12.96 74.60
153317 2024-05-07 19:24:51 Terrasse 15.60 14.75 58.70
153316 2024-05-07 19:08:55 Aussentemperatur 13.70 13.08 74.70
153315 2024-05-07 18:56:32 Terrasse 16.00 15.14 57.00
153314 2024-05-07 18:40:46 Aussentemperatur 14.00 13.42 75.10
153313 2024-05-07 18:28:22 Terrasse 16.40 15.63 58.70
153312 2024-05-07 18:12:39 Aussentemperatur 14.10 13.51 74.60
153311 2024-05-07 17:59:59 Terrasse 16.90 16.17 58.40
153310 2024-05-07 17:44:31 Aussentemperatur 14.30 13.75 75.20
153309 2024-05-07 17:31:40 Terrasse 17.00 16.25 57.30
153308 2024-05-07 17:16:23 Aussentemperatur 14.30 13.71 73.70
153307 2024-05-07 17:03:24 Terrasse 17.50 16.75 55.30
153306 2024-05-07 16:48:16 Aussentemperatur 14.60 14.05 74.00
153305 2024-05-07 16:35:03 Terrasse 17.50 16.75 55.30
153304 2024-05-07 16:20:08 Aussentemperatur 14.60 14.06 74.40
153303 2024-05-07 16:06:45 Terrasse 17.80 17.08 55.40
153302 2024-05-07 15:51:58 Aussentemperatur 14.40 13.85 74.80
153301 2024-05-07 15:38:22 Terrasse 17.50 16.78 56.50
153300 2024-05-07 15:23:47 Aussentemperatur 14.20 13.67 76.40
153299 2024-05-07 15:09:58 Terrasse 16.90 16.18 58.90
153298 2024-05-07 14:55:36 Aussentemperatur 13.70 13.19 79.00
153297 2024-05-07 14:41:38 Terrasse 16.80 16.10 59.80
153296 2024-05-07 14:27:28 Aussentemperatur 13.90 13.38 78.00
153295 2024-05-07 14:13:17 Terrasse 17.10 16.35 56.80
153294 2024-05-07 13:59:21 Aussentemperatur 14.10 13.59 77.50
153293 2024-05-07 13:44:57 Terrasse 17.20 16.52 59.00
153292 2024-05-07 13:31:10 Aussentemperatur 14.00 13.51 78.80
153291 2024-05-07 13:16:35 Terrasse 16.90 16.20 59.40
153290 2024-05-07 13:03:00 Aussentemperatur 13.90 13.44 80.10
153289 2024-05-07 12:48:11 Terrasse 16.80 16.14 61.50
153288 2024-05-07 12:34:50 Aussentemperatur 13.80 13.37 81.90
153287 2024-05-07 12:19:53 Terrasse 16.90 16.23 60.50
153286 2024-05-07 12:06:42 Aussentemperatur 13.90 13.48 81.80
153285 2024-05-07 11:51:26 Terrasse 16.40 15.69 60.90
153284 2024-05-07 11:38:31 Aussentemperatur 13.50 13.02 81.00
153283 2024-05-07 11:23:18 Terrasse 16.40 15.66 59.80
153282 2024-05-07 11:10:20 Aussentemperatur 13.40 13.00 84.40
153281 2024-05-07 10:54:48 Terrasse 15.30 14.54 63.50
153280 2024-05-07 10:42:08 Aussentemperatur 13.00 12.59 85.40
153279 2024-05-07 10:26:24 Terrasse 14.50 13.73 66.20
153278 2024-05-07 10:13:57 Aussentemperatur 12.70 12.35 88.90
153277 2024-05-07 09:57:59 Terrasse 13.90 13.12 67.80
153276 2024-05-07 09:45:48 Aussentemperatur 12.50 12.15 89.70
153275 2024-05-07 09:29:37 Terrasse 13.50 12.77 71.50
153274 2024-05-07 09:17:38 Aussentemperatur 12.30 11.99 92.20
153273 2024-05-07 09:01:17 Terrasse 13.50 12.82 73.30
153272 2024-05-07 08:49:29 Aussentemperatur 12.10 11.80 93.20
153271 2024-05-07 08:32:54 Terrasse 13.30 12.64 75.00
153270 2024-05-07 08:21:17 Aussentemperatur 11.80 11.49 94.10
153269 2024-05-07 08:04:33 Terrasse 12.80 12.12 76.00
153268 2024-05-07 07:53:09 Aussentemperatur 11.70 11.39 94.20
153267 2024-05-07 07:36:13 Terrasse 12.50 11.81 76.70
153266 2024-05-07 07:25:00 Aussentemperatur 11.70 11.39 94.30
153265 2024-05-07 07:07:50 Terrasse 12.00 11.28 77.70
153264 2024-05-07 06:56:52 Aussentemperatur 11.70 11.39 94.40
153263 2024-05-07 06:39:30 Terrasse 11.90 11.21 79.00
153262 2024-05-07 06:28:43 Aussentemperatur 11.50 11.18 94.90
153261 2024-05-07 06:11:11 Terrasse 11.90 11.22 79.50
153260 2024-05-07 06:00:36 Aussentemperatur 11.70 11.43 95.80
153259 2024-05-07 05:42:52 Terrasse 12.00 11.37 81.10
153258 2024-05-07 05:32:27 Aussentemperatur 11.70 11.44 96.20
153257 2024-05-07 05:14:31 Terrasse 11.90 11.27 81.30
153256 2024-05-07 05:04:19 Aussentemperatur 11.70 11.43 96.00
153255 2024-05-07 04:46:11 Terrasse 11.80 11.16 81.20
153254 2024-05-07 04:36:11 Aussentemperatur 11.60 11.32 96.00
153253 2024-05-07 04:17:53 Terrasse 11.70 11.05 81.20
153252 2024-05-07 04:08:01 Aussentemperatur 11.70 11.42 95.70
153251 2024-05-07 03:49:34 Terrasse 11.60 10.93 80.90
153250 2024-05-07 03:39:54 Aussentemperatur 11.60 11.31 95.40
153249 2024-05-07 03:21:15 Terrasse 11.70 11.03 80.70
153248 2024-05-07 03:11:45 Aussentemperatur 11.60 11.30 95.30
153247 2024-05-07 02:52:56 Terrasse 11.70 11.03 80.50
153246 2024-05-07 02:43:37 Aussentemperatur 11.70 11.41 95.20
153245 2024-05-07 02:24:36 Terrasse 11.70 11.03 80.50
153244 2024-05-07 02:15:29 Aussentemperatur 11.70 11.40 94.80
153243 2024-05-07 01:56:16 Terrasse 11.70 11.02 80.20
153242 2024-05-07 01:47:21 Aussentemperatur 11.60 11.30 95.00
153241 2024-05-07 01:28:08 Terrasse 11.70 11.03 80.50
153240 2024-05-07 01:19:13 Aussentemperatur 11.70 11.41 95.20
153239 2024-05-07 00:59:46 Terrasse 11.90 11.22 79.50
153238 2024-05-07 00:51:06 Aussentemperatur 11.70 11.40 94.80
153237 2024-05-07 00:31:26 Terrasse 12.10 11.47 80.50
153236 2024-05-07 00:22:58 Aussentemperatur 11.80 11.55 96.20
153235 2024-05-07 00:03:08 Terrasse 12.00 11.35 80.10
153234 2024-05-06 23:54:49 Aussentemperatur 11.80 11.56 96.50
153233 2024-05-06 23:34:47 Terrasse 12.10 11.43 79.20
153232 2024-05-06 23:26:42 Aussentemperatur 12.00 11.78 96.50
153231 2024-05-06 23:06:29 Terrasse 12.30 11.65 79.00
153230 2024-05-06 22:58:37 Aussentemperatur 12.00 11.79 97.00
153229 2024-05-06 22:38:11 Terrasse 12.60 11.98 79.20
153228 2024-05-06 22:30:30 Aussentemperatur 12.30 12.13 97.30
153227 2024-05-06 22:09:53 Terrasse 13.00 12.46 80.50
153226 2024-05-06 22:02:23 Aussentemperatur 12.50 12.41 99.60
153225 2024-05-06 21:41:34 Terrasse 13.10 12.56 80.40
153224 2024-05-06 21:34:15 Aussentemperatur 12.50 12.39 99.10
153223 2024-05-06 21:13:15 Terrasse 13.30 12.74 78.70
153222 2024-05-06 21:06:06 Aussentemperatur 12.60 12.48 98.30
153221 2024-05-06 20:44:57 Terrasse 13.50 12.93 77.40
153220 2024-05-06 20:37:57 Aussentemperatur 12.70 12.59 98.20
153219 2024-05-06 20:16:39 Terrasse 13.70 13.13 76.60
153218 2024-05-06 20:09:49 Aussentemperatur 12.80 12.68 97.50
153217 2024-05-06 19:48:21 Terrasse 14.10 13.56 76.50
153216 2024-05-06 19:41:42 Aussentemperatur 13.10 13.02 97.70
153215 2024-05-06 19:20:03 Terrasse 14.50 14.02 77.10
153214 2024-05-06 19:13:35 Aussentemperatur 13.30 13.25 98.30
153213 2024-05-06 18:51:45 Terrasse 14.80 14.34 76.80
153212 2024-05-06 18:45:26 Aussentemperatur 13.30 13.25 98.30
153211 2024-05-06 18:23:23 Terrasse 14.80 14.39 78.70
153210 2024-05-06 18:17:17 Aussentemperatur 13.20 13.18 99.90
153209 2024-05-06 17:55:01 Terrasse 14.20 13.73 78.60
153208 2024-05-06 17:49:08 Aussentemperatur 12.90 12.84 99.40
153207 2024-05-06 17:26:38 Terrasse 13.90 13.39 78.20
153206 2024-05-06 17:21:00 Aussentemperatur 12.70 12.62 99.20
153205 2024-05-06 16:58:20 Terrasse 13.90 13.37 77.60
153204 2024-05-06 16:52:50 Aussentemperatur 12.90 12.82 98.70
153203 2024-05-06 16:30:02 Terrasse 14.20 13.69 77.20
153202 2024-05-06 16:24:44 Aussentemperatur 12.90 12.82 98.50
153201 2024-05-06 16:01:44 Terrasse 14.20 13.71 78.00
153200 2024-05-06 15:56:36 Aussentemperatur 13.00 12.92 98.40
153199 2024-05-06 15:33:25 Terrasse 14.30 13.80 77.30
153198 2024-05-06 15:28:29 Aussentemperatur 13.10 13.03 98.30
153197 2024-05-06 15:05:05 Terrasse 14.30 13.82 78.00
153196 2024-05-06 15:00:22 Aussentemperatur 13.10 13.02 98.00
153195 2024-05-06 14:36:48 Terrasse 14.80 14.36 77.60
153194 2024-05-06 14:32:17 Aussentemperatur 13.50 13.45 97.30
153193 2024-05-06 14:08:33 Terrasse 15.60 15.19 75.60
153192 2024-05-06 14:04:11 Aussentemperatur 13.90 13.89 97.50
153191 2024-05-06 13:40:11 Terrasse 15.40 14.97 75.50
153190 2024-05-06 13:36:02 Aussentemperatur 13.60 13.55 97.10
153189 2024-05-06 13:11:54 Terrasse 15.80 15.38 74.30
153188 2024-05-06 13:07:56 Aussentemperatur 13.90 13.86 96.20
153187 2024-05-06 12:43:31 Terrasse 15.60 15.16 74.60
153186 2024-05-06 12:39:45 Aussentemperatur 13.70 13.66 96.90
153185 2024-05-06 12:15:10 Terrasse 15.60 15.17 75.00
153184 2024-05-06 12:11:36 Aussentemperatur 13.60 13.52 96.00
153183 2024-05-06 11:46:57 Terrasse 15.50 15.06 74.90
153182 2024-05-06 11:43:26 Aussentemperatur 13.50 13.43 96.60
153181 2024-05-06 11:18:33 Terrasse 14.90 14.42 75.60
153180 2024-05-06 11:15:19 Aussentemperatur 13.30 13.19 95.80
153179 2024-05-06 10:50:10 Terrasse 14.50 14.00 76.30
153178 2024-05-06 10:47:10 Aussentemperatur 13.10 12.96 95.50
153177 2024-05-06 10:21:48 Terrasse 14.10 13.58 77.30
153176 2024-05-06 10:19:01 Aussentemperatur 13.10 12.96 95.40
153175 2024-05-06 09:53:28 Terrasse 13.90 13.36 77.10
153174 2024-05-06 09:50:54 Aussentemperatur 12.90 12.72 94.70
153173 2024-05-06 09:25:53 Terrasse 13.90 13.34 76.20
153172 2024-05-06 09:22:47 Aussentemperatur 12.90 12.71 94.40
153171 2024-05-06 08:57:09 Terrasse 13.90 13.33 76.10
153170 2024-05-06 08:54:39 Aussentemperatur 12.80 12.59 94.00
153169 2024-05-06 08:52:43 Bahnzimmer 17.00 16.25 57.10
153168 2024-05-06 08:28:49 Terrasse 13.70 13.13 76.70
153167 2024-05-06 08:26:31 Aussentemperatur 12.80 12.58 93.50
153166 2024-05-06 08:22:43 Bahnzimmer 17.00 16.23 56.60
153165 2024-05-06 08:00:27 Terrasse 13.40 12.79 76.40
153164 2024-05-06 07:58:22 Aussentemperatur 12.50 12.23 92.90
153163 2024-05-06 07:52:42 Bahnzimmer 17.00 16.23 56.50
153162 2024-05-06 07:32:08 Terrasse 13.30 12.70 77.10
153161 2024-05-06 07:30:14 Aussentemperatur 12.50 12.23 92.80
153160 2024-05-06 07:22:41 Bahnzimmer 17.00 16.23 56.50
153159 2024-05-06 07:03:50 Terrasse 13.10 12.48 77.10
153158 2024-05-06 07:02:08 Aussentemperatur 12.50 12.21 92.20
153157 2024-05-06 06:52:41 Bahnzimmer 17.00 16.23 56.40
153156 2024-05-06 06:35:30 Terrasse 13.10 12.47 76.80
153155 2024-05-06 06:34:01 Aussentemperatur 12.50 12.19 91.40
153154 2024-05-06 06:22:40 Bahnzimmer 17.00 16.23 56.40
153153 2024-05-06 06:07:19 Terrasse 13.30 12.66 75.70
153152 2024-05-06 06:05:56 Aussentemperatur 12.60 12.27 90.10
153151 2024-05-06 05:52:39 Bahnzimmer 17.00 16.23 56.40
153150 2024-05-06 05:39:00 Terrasse 13.50 12.86 74.90
153149 2024-05-06 05:37:48 Aussentemperatur 12.80 12.47 89.60
153148 2024-05-06 05:22:38 Bahnzimmer 17.00 16.23 56.40
153147 2024-05-06 05:10:46 Terrasse 13.70 13.06 73.90
153146 2024-05-06 05:09:42 Aussentemperatur 12.80 12.46 89.00
153145 2024-05-06 04:52:38 Bahnzimmer 17.00 16.23 56.40
153144 2024-05-06 04:42:27 Terrasse 13.90 13.27 73.60
153143 2024-05-06 04:41:35 Aussentemperatur 12.90 12.56 88.50
153142 2024-05-06 04:22:37 Bahnzimmer 17.00 16.23 56.50
153141 2024-05-06 04:14:12 Terrasse 13.80 13.17 74.10
153140 2024-05-06 04:13:29 Aussentemperatur 13.00 12.66 88.10
153139 2024-05-06 03:52:36 Bahnzimmer 17.00 16.23 56.40
153138 2024-05-06 03:45:53 Terrasse 13.90 13.26 73.40
153137 2024-05-06 03:45:22 Aussentemperatur 13.00 12.63 87.30
153136 2024-05-06 03:22:36 Bahnzimmer 17.00 16.23 56.40
153135 2024-05-06 03:17:35 Terrasse 13.90 13.24 72.50
153134 2024-05-06 03:17:18 Aussentemperatur 13.10 12.72 86.50
153133 2024-05-06 02:52:35 Bahnzimmer 17.00 16.23 56.50
153132 2024-05-06 02:49:15 Terrasse 14.00 13.32 71.50
153131 2024-05-06 02:49:09 Aussentemperatur 13.00 12.60 85.90
153130 2024-05-06 02:22:34 Bahnzimmer 17.00 16.23 56.50
153129 2024-05-06 02:21:04 Aussentemperatur 13.00 12.58 85.10
153128 2024-05-06 02:20:57 Terrasse 14.00 13.29 70.10
153127 2024-05-06 01:52:58 Aussentemperatur 13.00 12.56 84.50
153126 2024-05-06 01:52:36 Terrasse 14.00 13.26 69.20
153125 2024-05-06 01:52:34 Bahnzimmer 17.00 16.23 56.40
153124 2024-05-06 01:24:52 Aussentemperatur 13.00 12.55 84.00
153123 2024-05-06 01:24:18 Terrasse 14.10 13.37 69.10
153122 2024-05-06 01:22:33 Bahnzimmer 17.00 16.23 56.40
153121 2024-05-06 00:56:46 Aussentemperatur 13.10 12.64 83.30
153120 2024-05-06 00:56:00 Terrasse 14.20 13.46 68.20
153119 2024-05-06 00:52:32 Bahnzimmer 17.10 16.34 56.50
153118 2024-05-06 00:28:42 Aussentemperatur 13.20 12.72 82.30
153117 2024-05-06 00:27:40 Terrasse 14.20 13.43 67.30
153116 2024-05-06 00:22:31 Bahnzimmer 17.00 16.23 56.50
153115 2024-05-06 00:00:37 Aussentemperatur 13.30 12.84 82.50
153114 2024-05-05 23:59:23 Terrasse 14.60 13.87 67.20
153113 2024-05-05 23:52:31 Bahnzimmer 17.10 16.34 56.50
153112 2024-05-05 23:32:31 Aussentemperatur 13.40 12.92 81.20
153111 2024-05-05 23:31:03 Terrasse 14.60 13.85 66.30
153110 2024-05-05 23:22:30 Bahnzimmer 17.10 16.34 56.50
153109 2024-05-05 23:04:27 Aussentemperatur 13.50 13.00 80.30
153108 2024-05-05 23:02:46 Terrasse 14.80 14.04 65.30
153107 2024-05-05 22:52:29 Bahnzimmer 17.20 16.45 56.40
153106 2024-05-05 22:36:22 Aussentemperatur 13.60 13.07 78.60
153105 2024-05-05 22:34:27 Terrasse 15.00 14.22 63.80
153104 2024-05-05 22:22:29 Bahnzimmer 17.20 16.45 56.40
153103 2024-05-05 22:08:17 Aussentemperatur 13.80 13.30 79.10
153102 2024-05-05 22:06:08 Terrasse 15.30 14.54 63.30
153101 2024-05-05 21:52:28 Bahnzimmer 17.20 16.44 56.20
153100 2024-05-05 21:40:11 Aussentemperatur 13.90 13.37 77.60
153099 2024-05-05 21:37:50 Terrasse 15.60 14.86 62.90
153098 2024-05-05 21:22:27 Bahnzimmer 17.30 16.55 56.20
153097 2024-05-05 21:12:05 Aussentemperatur 14.10 13.55 75.90
153096 2024-05-05 21:09:32 Terrasse 15.80 15.04 61.50
153095 2024-05-05 20:52:27 Bahnzimmer 17.30 16.55 56.20
153094 2024-05-05 20:44:00 Aussentemperatur 14.40 13.83 74.10
153093 2024-05-05 20:42:09 Terrasse 16.20 15.42 59.00
153092 2024-05-05 20:22:26 Bahnzimmer 17.40 16.66 56.20
153091 2024-05-05 20:15:53 Aussentemperatur 14.60 14.00 72.00
153090 2024-05-05 20:13:10 Terrasse 16.60 15.80 56.90
153089 2024-05-05 19:52:25 Bahnzimmer 17.30 16.56 56.40
153088 2024-05-05 19:47:47 Aussentemperatur 14.80 14.15 69.50
153087 2024-05-05 19:44:55 Terrasse 17.00 16.21 55.60
153086 2024-05-05 19:22:25 Bahnzimmer 17.30 16.56 56.30
153085 2024-05-05 19:19:42 Aussentemperatur 15.00 14.30 66.80
153084 2024-05-05 19:16:37 Terrasse 17.40 16.60 53.70
153083 2024-05-05 18:52:24 Bahnzimmer 17.40 16.67 56.30
153082 2024-05-05 18:51:34 Aussentemperatur 15.20 14.47 64.80
153081 2024-05-05 18:48:17 Terrasse 17.50 16.63 50.70
153080 2024-05-05 18:23:28 Aussentemperatur 15.20 14.46 64.60
153079 2024-05-05 18:22:23 Bahnzimmer 17.40 16.66 56.10
153078 2024-05-05 18:20:01 Terrasse 17.80 16.95 50.30
153077 2024-05-05 17:55:24 Aussentemperatur 15.60 14.85 62.50
153076 2024-05-05 17:52:23 Bahnzimmer 17.50 16.77 56.10
153075 2024-05-05 17:51:47 Terrasse 18.60 17.77 48.20
153074 2024-05-05 17:27:19 Aussentemperatur 16.00 15.28 62.20
153073 2024-05-05 17:23:29 Terrasse 18.90 18.07 46.90
153072 2024-05-05 17:22:22 Bahnzimmer 17.50 16.77 56.10
153071 2024-05-05 16:59:15 Aussentemperatur 16.00 15.25 61.20
153070 2024-05-05 16:55:11 Terrasse 19.20 18.39 46.50
153069 2024-05-05 16:52:22 Bahnzimmer 17.50 16.77 56.10
153068 2024-05-05 16:31:07 Aussentemperatur 15.70 14.94 62.00
153067 2024-05-05 16:26:52 Terrasse 19.00 18.16 46.30
153066 2024-05-05 16:22:21 Bahnzimmer 17.60 16.88 56.00
153065 2024-05-05 16:03:07 Aussentemperatur 16.20 15.46 60.70
153064 2024-05-05 15:58:41 Terrasse 20.40 19.65 44.30
153063 2024-05-05 15:52:20 Bahnzimmer 17.50 16.77 56.20
153062 2024-05-05 15:35:05 Aussentemperatur 16.80 16.12 60.50
153061 2024-05-05 15:30:15 Terrasse 20.80 20.08 43.70
153060 2024-05-05 15:22:19 Bahnzimmer 17.50 16.77 56.10
153059 2024-05-05 15:06:59 Aussentemperatur 16.10 15.35 60.70
153058 2024-05-05 15:02:02 Terrasse 20.30 19.55 44.50
153057 2024-05-05 14:52:19 Bahnzimmer 17.40 16.67 56.60
153056 2024-05-05 14:39:00 Aussentemperatur 16.80 16.09 59.50
153055 2024-05-05 14:33:46 Terrasse 21.70 21.04 42.80
153054 2024-05-05 14:22:18 Bahnzimmer 17.30 16.57 56.70
153053 2024-05-05 14:10:46 Aussentemperatur 15.40 14.63 62.50
153052 2024-05-05 14:05:22 Terrasse 19.50 18.71 46.20
153051 2024-05-05 13:52:17 Bahnzimmer 17.40 16.67 56.60
153050 2024-05-05 13:42:45 Aussentemperatur 15.80 15.01 60.30
153049 2024-05-05 13:37:17 Terrasse 21.00 20.28 43.00
153048 2024-05-05 13:22:17 Bahnzimmer 17.40 16.68 56.70
153047 2024-05-05 13:15:01 Aussentemperatur 17.80 17.20 60.00
153046 2024-05-05 13:08:57 Terrasse 22.70 22.13 42.40
153045 2024-05-05 12:52:16 Bahnzimmer 17.40 16.67 56.60
153044 2024-05-05 12:46:54 Aussentemperatur 17.90 17.31 60.10
153043 2024-05-05 12:41:00 Terrasse 23.60 23.12 42.20
153042 2024-05-05 12:22:16 Bahnzimmer 17.30 16.58 57.30
153041 2024-05-05 12:17:55 Aussentemperatur 15.60 15.05 70.20
153040 2024-05-05 12:12:18 Terrasse 21.50 20.91 46.00
153039 2024-05-05 11:52:15 Bahnzimmer 17.40 16.69 57.10
153038 2024-05-05 11:49:42 Aussentemperatur 12.90 12.15 72.90
153037 2024-05-05 11:43:43 Terrasse 16.60 15.66 51.60
153036 2024-05-05 11:22:14 Bahnzimmer 17.20 16.47 57.20
153035 2024-05-05 11:21:35 Aussentemperatur 12.90 12.22 75.60
153034 2024-05-05 11:15:36 Terrasse 18.80 18.07 51.00
153033 2024-05-05 10:53:29 Aussentemperatur 12.50 11.83 77.70
153032 2024-05-05 10:52:14 Bahnzimmer 17.20 16.42 55.40
153031 2024-05-05 10:47:01 Terrasse 14.40 13.48 60.50
153030 2024-05-05 10:25:20 Aussentemperatur 12.20 11.53 78.80
153029 2024-05-05 10:22:13 Bahnzimmer 17.30 16.54 55.80
153028 2024-05-05 10:18:38 Terrasse 13.80 12.84 61.40
153027 2024-05-05 09:57:14 Aussentemperatur 12.00 11.33 79.30
153026 2024-05-05 09:52:12 Bahnzimmer 17.60 16.84 54.60
153025 2024-05-05 09:50:14 Terrasse 13.40 12.42 62.10
153024 2024-05-05 09:29:07 Aussentemperatur 11.80 11.16 81.20
153023 2024-05-05 09:22:12 Bahnzimmer 17.20 16.42 55.30
153022 2024-05-05 09:21:52 Terrasse 13.00 12.05 64.80
153021 2024-05-05 09:01:01 Aussentemperatur 11.70 11.10 83.20
153020 2024-05-05 08:53:31 Terrasse 12.70 11.75 66.00
153019 2024-05-05 08:52:11 Bahnzimmer 17.10 16.31 55.30
153018 2024-05-05 08:32:55 Aussentemperatur 11.40 10.80 84.30
153017 2024-05-05 08:25:12 Terrasse 12.50 11.57 67.50
153016 2024-05-05 08:22:10 Bahnzimmer 17.20 16.42 55.30
153015 2024-05-05 08:04:48 Aussentemperatur 11.40 10.86 86.80
153014 2024-05-05 07:56:52 Terrasse 12.20 11.33 70.90
153013 2024-05-05 07:52:10 Bahnzimmer 17.20 16.42 55.40
153012 2024-05-05 07:36:42 Aussentemperatur 11.30 10.82 89.30
153011 2024-05-05 07:28:32 Terrasse 11.80 10.99 74.80
153010 2024-05-05 07:22:09 Bahnzimmer 17.20 16.42 55.40
153009 2024-05-05 07:08:36 Aussentemperatur 11.20 10.71 89.40
153008 2024-05-05 07:00:14 Terrasse 11.50 10.70 76.20
153007 2024-05-05 06:52:08 Bahnzimmer 17.20 16.42 55.40
153006 2024-05-05 06:40:30 Aussentemperatur 11.20 10.72 89.60
153005 2024-05-05 06:32:01 Terrasse 11.50 10.70 76.50
153004 2024-05-05 06:22:08 Bahnzimmer 17.20 16.42 55.40
153003 2024-05-05 06:12:24 Aussentemperatur 11.30 10.83 89.90
153002 2024-05-05 06:03:59 Terrasse 11.50 10.72 77.00
153001 2024-05-05 05:52:07 Bahnzimmer 17.20 16.42 55.30
153000 2024-05-05 05:44:17 Aussentemperatur 11.40 10.95 90.10
152999 2024-05-05 05:35:42 Terrasse 11.70 10.93 76.70
152998 2024-05-05 05:22:06 Bahnzimmer 17.20 16.42 55.30
152997 2024-05-05 05:16:11 Aussentemperatur 11.50 11.06 90.10
152996 2024-05-05 05:07:27 Terrasse 11.90 11.14 76.20
152995 2024-05-05 04:52:06 Bahnzimmer 17.20 16.42 55.30
152994 2024-05-05 04:48:04 Aussentemperatur 11.60 11.17 90.10
152993 2024-05-05 04:39:17 Terrasse 12.00 11.25 76.20
152992 2024-05-05 04:22:05 Bahnzimmer 17.20 16.42 55.30
152991 2024-05-05 04:19:57 Aussentemperatur 11.70 11.29 90.40
152990 2024-05-05 04:11:04 Terrasse 12.20 11.46 76.00
152989 2024-05-05 03:52:04 Bahnzimmer 17.30 16.53 55.30
152988 2024-05-05 03:51:51 Aussentemperatur 11.90 11.50 90.30
152987 2024-05-05 03:42:46 Terrasse 12.20 11.46 76.00
152986 2024-05-05 03:23:45 Aussentemperatur 11.90 11.48 89.50
152985 2024-05-05 03:22:04 Bahnzimmer 17.30 16.53 55.20
152984 2024-05-05 03:14:34 Terrasse 12.50 11.80 76.20
152983 2024-05-05 02:55:39 Aussentemperatur 11.90 11.47 88.90
152982 2024-05-05 02:52:03 Bahnzimmer 17.30 16.53 55.20
152981 2024-05-05 02:46:19 Terrasse 12.50 11.77 75.20
152980 2024-05-05 02:27:34 Aussentemperatur 12.00 11.56 88.20
152979 2024-05-05 02:22:02 Bahnzimmer 17.30 16.53 55.20
152978 2024-05-05 02:18:03 Terrasse 12.50 11.74 74.00
152977 2024-05-05 01:59:28 Aussentemperatur 12.00 11.55 87.70
152976 2024-05-05 01:52:02 Bahnzimmer 17.40 16.64 55.20
152975 2024-05-05 01:49:45 Terrasse 12.70 11.93 73.10
152974 2024-05-05 01:31:23 Aussentemperatur 12.00 11.53 87.10
152973 2024-05-05 01:22:01 Bahnzimmer 17.40 16.64 55.20
152972 2024-05-05 01:21:38 Terrasse 12.80 12.02 72.10
152971 2024-05-05 01:03:17 Aussentemperatur 12.00 11.51 86.50
152970 2024-05-05 00:53:21 Terrasse 12.90 12.09 70.70
152969 2024-05-05 00:52:01 Bahnzimmer 17.40 16.64 55.20
152968 2024-05-05 00:35:12 Aussentemperatur 12.20 11.71 85.70
152967 2024-05-05 00:25:06 Terrasse 13.30 12.47 68.50
152966 2024-05-05 00:22:00 Bahnzimmer 17.40 16.64 55.20
152965 2024-05-05 00:07:08 Aussentemperatur 12.40 11.90 84.50
152964 2024-05-04 23:56:48 Terrasse 13.60 12.78 67.60
152963 2024-05-04 23:51:59 Bahnzimmer 17.40 16.63 55.10
152962 2024-05-04 23:39:03 Aussentemperatur 12.50 11.92 81.00
152961 2024-05-04 23:28:32 Terrasse 14.10 13.23 63.80
152960 2024-05-04 23:21:59 Bahnzimmer 17.40 16.63 55.10
152959 2024-05-04 23:10:58 Aussentemperatur 12.70 12.13 80.60
152958 2024-05-04 23:00:13 Terrasse 14.20 13.32 63.10
152957 2024-05-04 22:51:58 Bahnzimmer 17.50 16.74 55.00
152956 2024-05-04 22:42:53 Aussentemperatur 12.70 12.13 80.50
152955 2024-05-04 22:31:56 Terrasse 14.50 13.64 62.50
152954 2024-05-04 22:21:57 Bahnzimmer 17.50 16.74 55.10
152953 2024-05-04 22:14:50 Aussentemperatur 13.00 12.38 77.50
152952 2024-05-04 22:03:38 Terrasse 15.00 14.05 57.40
152951 2024-05-04 21:51:57 Bahnzimmer 17.50 16.74 55.10
152950 2024-05-04 21:46:45 Aussentemperatur 13.30 12.59 72.90
152949 2024-05-04 21:35:21 Terrasse 15.20 14.25 56.30
152948 2024-05-04 21:21:56 Bahnzimmer 17.50 16.74 55.10
152947 2024-05-04 21:18:40 Aussentemperatur 13.40 12.70 73.10
152946 2024-05-04 21:07:30 Terrasse 15.50 14.58 56.40
152945 2024-05-04 20:51:55 Bahnzimmer 17.50 16.75 55.30
152944 2024-05-04 20:50:36 Aussentemperatur 13.70 12.96 70.30
152943 2024-05-04 20:39:02 Terrasse 15.90 14.93 53.10
152942 2024-05-04 20:22:31 Aussentemperatur 13.90 13.15 69.30
152941 2024-05-04 20:21:55 Bahnzimmer 17.50 16.75 55.20
152940 2024-05-04 20:10:46 Terrasse 16.40 15.41 50.40
152939 2024-05-04 19:54:27 Aussentemperatur 14.00 13.25 68.80
152938 2024-05-04 19:51:54 Bahnzimmer 17.80 17.06 54.60
152937 2024-05-04 19:42:32 Terrasse 17.20 16.26 49.10
152936 2024-05-04 19:26:23 Aussentemperatur 14.40 13.61 65.80
152935 2024-05-04 19:21:53 Bahnzimmer 17.60 16.85 54.80
152934 2024-05-04 19:14:21 Terrasse 18.60 17.71 45.70
152933 2024-05-04 18:58:21 Aussentemperatur 15.00 14.19 62.60
152932 2024-05-04 18:51:52 Bahnzimmer 17.70 16.96 54.80
152931 2024-05-04 18:46:14 Terrasse 22.00 21.32 40.60
152930 2024-05-04 18:30:18 Aussentemperatur 15.30 14.50 62.00
152929 2024-05-04 18:21:52 Bahnzimmer 17.80 17.06 54.70
152928 2024-05-04 18:17:35 Terrasse 19.00 18.29 51.00
152927 2024-05-04 18:02:14 Aussentemperatur 15.50 14.68 60.20
152926 2024-05-04 17:51:51 Bahnzimmer 17.80 17.06 54.60
152925 2024-05-04 17:49:17 Terrasse 19.00 18.11 44.40
152924 2024-05-04 17:34:10 Aussentemperatur 16.00 15.19 58.80
152923 2024-05-04 17:21:50 Bahnzimmer 17.80 17.06 54.70
152922 2024-05-04 17:20:56 Terrasse 19.20 18.32 44.00
152921 2024-05-04 17:06:04 Aussentemperatur 15.70 14.88 59.70
152920 2024-05-04 16:52:36 Terrasse 19.30 18.44 44.40
152919 2024-05-04 16:51:50 Bahnzimmer 17.70 16.96 54.80
152918 2024-05-04 16:37:56 Aussentemperatur 15.30 14.44 59.70
152917 2024-05-04 16:24:14 Terrasse 18.80 17.90 44.50
152916 2024-05-04 16:21:49 Bahnzimmer 17.80 17.07 54.80
152915 2024-05-04 16:09:49 Aussentemperatur 15.20 14.40 62.20
152914 2024-05-04 15:56:07 Terrasse 19.00 18.10 43.90
152913 2024-05-04 15:51:48 Bahnzimmer 17.80 17.07 54.80
152912 2024-05-04 15:41:43 Aussentemperatur 15.10 14.25 60.50
152911 2024-05-04 15:28:02 Terrasse 19.70 18.82 42.10
152910 2024-05-04 15:21:48 Bahnzimmer 17.80 17.07 54.80
152909 2024-05-04 15:13:45 Aussentemperatur 16.00 15.25 61.20
152908 2024-05-04 14:59:41 Terrasse 21.30 20.59 42.20
152907 2024-05-04 14:51:47 Bahnzimmer 17.80 17.07 55.00
152906 2024-05-04 14:45:39 Aussentemperatur 15.90 15.17 62.10
152905 2024-05-04 14:31:23 Terrasse 21.40 20.72 43.10
152904 2024-05-04 14:21:46 Bahnzimmer 17.70 16.97 55.40
152903 2024-05-04 14:17:34 Aussentemperatur 15.90 15.22 64.10
152902 2024-05-04 14:03:01 Terrasse 21.50 20.87 44.50
152901 2024-05-04 13:51:46 Bahnzimmer 17.50 16.79 56.80
152900 2024-05-04 13:49:30 Aussentemperatur 16.00 15.35 64.80
152899 2024-05-04 13:34:54 Terrasse 22.80 22.26 43.10
152898 2024-05-04 13:21:45 Bahnzimmer 17.60 16.85 54.90
152897 2024-05-04 13:21:22 Aussentemperatur 15.40 14.83 70.40
152896 2024-05-04 13:05:59 Terrasse 17.80 17.00 52.10
152895 2024-05-04 12:53:06 Aussentemperatur 13.40 12.79 76.50
152894 2024-05-04 12:51:44 Bahnzimmer 17.50 16.75 55.30
152893 2024-05-04 12:37:28 Terrasse 16.40 15.57 56.50
152892 2024-05-04 12:24:54 Aussentemperatur 12.50 11.81 76.80
152891 2024-05-04 12:21:44 Bahnzimmer 17.80 17.06 54.60
152890 2024-05-04 12:09:16 Terrasse 16.80 15.98 55.20
152889 2024-05-04 11:56:48 Aussentemperatur 12.70 11.99 75.40
152888 2024-05-04 11:51:43 Bahnzimmer 17.50 16.75 55.20
152887 2024-05-04 11:40:54 Terrasse 16.50 15.65 55.50
152886 2024-05-04 11:28:41 Aussentemperatur 12.40 11.72 77.50
152885 2024-05-04 11:21:42 Bahnzimmer 17.50 16.75 55.30
152884 2024-05-04 11:12:38 Terrasse 16.40 15.54 55.40
152883 2024-05-04 11:00:34 Aussentemperatur 12.30 11.63 78.20
152882 2024-05-04 10:51:42 Bahnzimmer 17.50 16.75 55.30
152881 2024-05-04 10:44:09 Terrasse 15.20 14.32 59.20
152880 2024-05-04 10:32:27 Aussentemperatur 11.70 11.08 82.40
152879 2024-05-04 10:21:41 Bahnzimmer 17.50 16.75 55.30
152878 2024-05-04 10:15:42 Terrasse 14.70 13.82 61.20
152877 2024-05-04 10:04:19 Aussentemperatur 11.30 10.65 82.90
152876 2024-05-04 09:51:40 Bahnzimmer 17.60 16.85 55.10
152875 2024-05-04 09:47:13 Terrasse 13.50 12.58 64.10
152874 2024-05-04 09:36:12 Aussentemperatur 11.00 10.35 83.90
152873 2024-05-04 09:21:40 Bahnzimmer 17.90 17.17 54.40
152872 2024-05-04 09:18:44 Terrasse 12.40 11.50 69.00
152871 2024-05-04 09:08:05 Aussentemperatur 10.50 9.81 84.60
152870 2024-05-04 08:51:39 Bahnzimmer 17.60 16.85 54.80
152869 2024-05-04 08:50:19 Terrasse 11.30 10.31 69.70
152868 2024-05-04 08:39:59 Aussentemperatur 10.10 9.37 84.40
152867 2024-05-04 08:21:56 Terrasse 10.70 9.67 70.70
152866 2024-05-04 08:21:38 Bahnzimmer 17.50 16.73 54.70
152865 2024-05-04 08:11:53 Aussentemperatur 9.90 9.14 84.10
152864 2024-05-04 07:53:50 Terrasse 10.00 8.94 72.30
152863 2024-05-04 07:43:44 Aussentemperatur 9.20 8.37 83.90
152862 2024-05-04 07:25:18 Terrasse 8.70 7.53 73.00
152861 2024-05-04 07:21:32 Bahnzimmer 17.20 16.41 55.00
152860 2024-05-04 07:15:36 Aussentemperatur 8.60 7.68 83.00
152859 2024-05-04 06:56:58 Terrasse 8.20 6.95 71.60
152858 2024-05-04 06:51:31 Bahnzimmer 17.30 16.52 55.10
152857 2024-05-04 06:47:31 Aussentemperatur 8.40 7.46 82.80
152856 2024-05-04 06:28:40 Terrasse 8.10 6.83 71.30
152855 2024-05-04 06:21:31 Bahnzimmer 17.40 16.63 55.10
152854 2024-05-04 06:19:27 Aussentemperatur 8.30 7.35 82.80
152853 2024-05-04 06:00:22 Terrasse 8.30 7.04 70.90
152852 2024-05-04 05:51:30 Bahnzimmer 17.40 16.63 55.10
152851 2024-05-04 05:51:23 Aussentemperatur 8.50 7.56 82.50
152850 2024-05-04 05:32:04 Terrasse 8.60 7.37 70.90
152849 2024-05-04 05:23:20 Aussentemperatur 8.50 7.58 83.10
152848 2024-05-04 05:21:30 Bahnzimmer 17.40 16.63 55.00
152847 2024-05-04 05:03:47 Terrasse 8.70 7.49 71.30
152846 2024-05-04 04:55:17 Aussentemperatur 8.70 7.78 82.50
152845 2024-05-04 04:51:29 Bahnzimmer 17.50 16.74 55.10
152844 2024-05-04 04:35:30 Terrasse 8.80 7.57 70.40
152843 2024-05-04 04:27:13 Aussentemperatur 8.60 7.68 82.80
152842 2024-05-04 04:21:28 Bahnzimmer 17.50 16.74 55.10
152841 2024-05-04 04:07:12 Terrasse 9.00 7.79 70.20
152840 2024-05-04 03:59:09 Aussentemperatur 8.80 7.89 82.70
152839 2024-05-04 03:51:27 Bahnzimmer 17.50 16.74 55.10
152838 2024-05-04 03:38:52 Terrasse 9.00 7.79 70.20
152837 2024-05-04 03:31:07 Aussentemperatur 8.90 7.99 82.20
152836 2024-05-04 03:21:27 Bahnzimmer 17.50 16.74 55.10
152835 2024-05-04 03:10:36 Terrasse 9.40 8.21 69.50
152834 2024-05-04 03:03:03 Aussentemperatur 9.10 8.22 82.70
152833 2024-05-04 02:51:26 Bahnzimmer 17.50 16.75 55.20
152832 2024-05-04 02:42:19 Terrasse 9.60 8.44 69.70
152831 2024-05-04 02:35:00 Aussentemperatur 9.20 8.33 82.40
152830 2024-05-04 02:21:25 Bahnzimmer 17.50 16.75 55.20
152829 2024-05-04 02:14:02 Terrasse 9.80 8.65 69.50
152828 2024-05-04 02:06:56 Aussentemperatur 9.40 8.54 82.30
152827 2024-05-04 01:51:25 Bahnzimmer 17.60 16.86 55.30
152826 2024-05-04 01:45:44 Terrasse 9.80 8.65 69.50
152825 2024-05-04 01:38:52 Aussentemperatur 9.40 8.54 82.10
152824 2024-05-04 01:21:24 Bahnzimmer 17.60 16.86 55.30
152823 2024-05-04 01:17:28 Terrasse 10.00 8.87 69.40
152822 2024-05-04 01:10:47 Aussentemperatur 9.50 8.65 82.10
152821 2024-05-04 00:51:23 Bahnzimmer 17.60 16.86 55.40
152820 2024-05-04 00:49:10 Terrasse 10.10 8.97 69.10
152819 2024-05-04 00:42:43 Aussentemperatur 9.60 8.75 81.90
152818 2024-05-04 00:21:23 Bahnzimmer 17.60 16.86 55.50
152817 2024-05-04 00:20:49 Terrasse 10.20 9.08 69.20
152816 2024-05-04 00:14:40 Aussentemperatur 9.70 8.86 81.60
152815 2024-05-03 23:52:32 Terrasse 10.40 9.29 68.70
152814 2024-05-03 23:51:22 Bahnzimmer 17.70 16.97 55.50
152813 2024-05-03 23:46:36 Aussentemperatur 10.00 9.18 81.30
152812 2024-05-03 23:24:13 Terrasse 10.20 9.07 68.70
152811 2024-05-03 23:21:21 Bahnzimmer 17.80 17.08 55.50
152810 2024-05-03 23:18:33 Aussentemperatur 10.00 9.16 80.70
152809 2024-05-03 22:55:57 Terrasse 10.60 9.50 68.20
152808 2024-05-03 22:51:21 Bahnzimmer 17.80 17.08 55.50
152807 2024-05-03 22:50:31 Aussentemperatur 10.20 9.38 80.70
152806 2024-05-03 22:27:39 Terrasse 10.80 9.68 66.80
152805 2024-05-03 22:22:28 Aussentemperatur 10.30 9.47 79.90
152804 2024-05-03 22:21:20 Bahnzimmer 17.80 17.09 55.60
152803 2024-05-03 21:59:22 Terrasse 11.30 10.21 65.90
152802 2024-05-03 21:54:25 Aussentemperatur 10.50 9.69 80.00
152801 2024-05-03 21:51:19 Bahnzimmer 18.10 17.40 55.00
152800 2024-05-03 21:31:05 Terrasse 11.70 10.64 65.60
152799 2024-05-03 21:26:24 Aussentemperatur 11.00 10.24 80.00
152798 2024-05-03 21:21:19 Bahnzimmer 17.80 17.08 55.40
152797 2024-05-03 21:02:51 Terrasse 12.30 11.30 65.80
152796 2024-05-03 20:58:23 Aussentemperatur 11.40 10.69 80.10
152795 2024-05-03 20:51:18 Bahnzimmer 17.90 17.19 55.50
152794 2024-05-03 20:34:36 Terrasse 13.10 12.16 64.80
152793 2024-05-03 20:30:20 Aussentemperatur 11.90 11.21 79.10
152792 2024-05-03 20:21:17 Bahnzimmer 18.00 17.30 55.30
152791 2024-05-03 20:06:20 Terrasse 13.70 12.71 60.80
152790 2024-05-03 20:02:20 Aussentemperatur 12.20 11.47 76.40
152789 2024-05-03 19:51:17 Bahnzimmer 18.00 17.30 55.30
152788 2024-05-03 19:38:04 Terrasse 14.30 13.32 58.60
152787 2024-05-03 19:34:19 Aussentemperatur 12.50 11.71 73.00
152786 2024-05-03 19:21:16 Bahnzimmer 18.00 17.30 55.40
152785 2024-05-03 19:09:45 Terrasse 14.40 13.42 58.30
152784 2024-05-03 19:06:15 Aussentemperatur 12.50 11.71 72.90
152783 2024-05-03 18:51:15 Bahnzimmer 18.00 17.30 55.50
152782 2024-05-03 18:41:24 Terrasse 14.10 13.08 58.10
152781 2024-05-03 18:38:09 Aussentemperatur 12.50 11.69 72.10
152780 2024-05-03 18:21:15 Bahnzimmer 18.00 17.30 55.50
152779 2024-05-03 18:13:06 Terrasse 14.10 13.04 56.60
152778 2024-05-03 18:10:07 Aussentemperatur 12.50 11.69 72.10
152777 2024-05-03 17:51:14 Bahnzimmer 18.00 17.30 55.50
152776 2024-05-03 17:44:48 Terrasse 14.30 13.34 59.60
152775 2024-05-03 17:42:03 Aussentemperatur 12.50 11.80 76.50
152774 2024-05-03 17:21:13 Bahnzimmer 18.00 17.31 55.70
152773 2024-05-03 17:16:24 Terrasse 13.80 12.83 61.10
152772 2024-05-03 17:13:58 Aussentemperatur 12.20 11.48 76.70
152771 2024-05-03 16:51:12 Bahnzimmer 18.00 17.31 55.70
152770 2024-05-03 16:48:02 Terrasse 13.50 12.50 60.90
152769 2024-05-03 16:45:54 Aussentemperatur 12.00 11.26 76.90
152768 2024-05-03 16:21:12 Bahnzimmer 18.00 17.31 55.60
152767 2024-05-03 16:19:45 Terrasse 14.00 13.08 62.30
152766 2024-05-03 16:17:52 Aussentemperatur 12.10 11.43 78.90
152765 2024-05-03 15:51:24 Terrasse 13.60 12.66 63.10
152764 2024-05-03 15:51:11 Bahnzimmer 18.00 17.30 55.50
152763 2024-05-03 15:49:48 Aussentemperatur 12.00 11.32 78.90
152762 2024-05-03 15:23:07 Terrasse 13.90 12.96 61.80
152761 2024-05-03 15:21:45 Aussentemperatur 11.90 11.21 79.00
152760 2024-05-03 15:21:11 Bahnzimmer 18.00 17.31 55.70
152759 2024-05-03 14:54:38 Terrasse 12.30 11.35 67.40
152758 2024-05-03 14:53:38 Aussentemperatur 11.40 10.71 81.00
152757 2024-05-03 14:51:10 Bahnzimmer 18.00 17.31 55.70
152756 2024-05-03 14:26:15 Terrasse 11.90 10.95 69.30
152755 2024-05-03 14:25:32 Aussentemperatur 10.90 10.20 82.40
152754 2024-05-03 14:21:09 Bahnzimmer 18.00 17.31 55.70
152753 2024-05-03 13:57:58 Terrasse 11.80 10.86 69.90
152752 2024-05-03 13:57:30 Aussentemperatur 11.00 10.32 82.90
152751 2024-05-03 13:51:09 Bahnzimmer 18.00 17.31 55.70
152750 2024-05-03 13:29:38 Terrasse 11.90 10.97 69.80
152749 2024-05-03 13:29:27 Aussentemperatur 10.90 10.22 83.20
152748 2024-05-03 13:21:08 Bahnzimmer 18.10 17.42 55.70
152747 2024-05-03 13:01:25 Aussentemperatur 11.00 10.34 83.60
152746 2024-05-03 13:01:20 Terrasse 11.90 11.01 71.40
152745 2024-05-03 12:51:07 Bahnzimmer 18.10 17.42 55.70
152744 2024-05-03 12:33:23 Aussentemperatur 11.10 10.43 82.80
152743 2024-05-03 12:33:00 Terrasse 12.20 11.34 71.60
152742 2024-05-03 12:21:07 Bahnzimmer 18.20 17.53 55.70
152741 2024-05-03 12:05:21 Aussentemperatur 11.10 10.39 81.30
152740 2024-05-03 12:04:38 Terrasse 11.90 11.01 71.30
152739 2024-05-03 11:51:06 Bahnzimmer 18.20 17.53 55.70
152738 2024-05-03 11:37:19 Aussentemperatur 11.10 10.33 78.90
152737 2024-05-03 11:36:19 Terrasse 11.90 11.01 71.50
152736 2024-05-03 11:21:05 Bahnzimmer 18.40 17.74 55.40
152735 2024-05-03 11:09:20 Aussentemperatur 11.70 10.88 75.00
152734 2024-05-03 11:08:00 Terrasse 11.80 10.90 71.30
152733 2024-05-03 10:51:05 Bahnzimmer 18.60 17.96 55.40
152732 2024-05-03 10:41:59 Aussentemperatur 18.80 18.28 59.20
152731 2024-05-03 10:39:41 Terrasse 11.70 10.79 71.50
152730 2024-05-03 10:21:04 Bahnzimmer 18.70 18.06 55.00
152729 2024-05-03 10:11:26 Terrasse 11.80 10.89 70.90
152728 2024-05-03 09:51:03 Bahnzimmer 18.40 17.75 55.60
152727 2024-05-03 09:43:07 Terrasse 11.80 10.91 71.70
152726 2024-05-03 09:21:03 Bahnzimmer 18.30 17.63 55.50
152725 2024-05-03 09:14:49 Terrasse 11.80 10.92 72.00
152724 2024-05-03 08:51:02 Bahnzimmer 18.50 17.83 54.70
152723 2024-05-03 08:46:27 Terrasse 11.40 10.48 72.20
152722 2024-05-03 08:21:01 Bahnzimmer 18.40 17.72 54.70
152721 2024-05-03 08:18:10 Terrasse 11.50 10.60 72.70
152720 2024-05-03 07:51:01 Bahnzimmer 17.80 17.10 56.10
152719 2024-05-03 07:49:48 Terrasse 11.20 10.31 74.00
152718 2024-05-03 07:21:29 Terrasse 11.50 10.62 73.40
152717 2024-05-03 07:21:00 Bahnzimmer 18.00 17.32 56.20
152716 2024-05-03 06:53:11 Terrasse 11.50 10.64 74.00
152715 2024-05-03 06:24:52 Terrasse 11.70 10.85 73.70
152714 2024-05-03 05:56:33 Terrasse 11.90 11.08 74.00
152713 2024-05-03 05:28:15 Terrasse 12.10 11.26 72.70
152712 2024-05-03 04:59:58 Terrasse 12.40 11.58 72.20
152711 2024-05-03 04:31:44 Terrasse 12.70 11.88 70.90
152710 2024-05-03 04:03:25 Terrasse 13.00 12.24 72.00
152709 2024-05-03 03:35:06 Terrasse 13.30 12.56 71.90
152708 2024-05-03 03:06:49 Terrasse 13.80 13.06 69.80
152707 2024-05-03 02:38:31 Terrasse 14.00 13.29 70.30
152706 2024-05-03 02:10:12 Terrasse 14.20 13.53 71.00
152705 2024-05-03 01:41:55 Terrasse 14.60 13.95 70.10
152704 2024-05-03 01:13:36 Terrasse 14.70 14.06 70.40
152703 2024-05-03 00:45:17 Terrasse 14.90 14.26 69.60
152702 2024-05-03 00:17:00 Terrasse 15.00 14.37 69.50
152701 2024-05-02 23:48:42 Terrasse 15.30 14.68 68.90
152700 2024-05-02 23:20:24 Terrasse 16.00 15.44 68.20
152699 2024-05-02 22:52:04 Terrasse 16.10 15.51 66.70
152698 2024-05-02 22:23:43 Terrasse 16.20 15.56 64.50
152697 2024-05-02 21:55:23 Terrasse 16.30 15.73 66.70
152696 2024-05-02 21:27:06 Terrasse 16.70 16.11 64.50
152695 2024-05-02 20:58:55 Terrasse 16.80 16.25 65.50
152694 2024-05-02 18:45:55 Aussentemperatur 19.70 19.41 64.40
152693 2024-05-02 18:40:24 Terrasse 23.40 23.04 47.50
152692 2024-05-02 18:38:55 Bahnzimmer 19.30 18.70 54.10
152691 2024-05-02 18:17:34 Aussentemperatur 20.70 20.25 54.40
152690 2024-05-02 18:12:18 Terrasse 25.10 24.70 39.50
152689 2024-05-02 18:08:55 Bahnzimmer 19.70 19.12 53.30
152688 2024-05-02 17:49:17 Aussentemperatur 21.90 21.46 50.50
152687 2024-05-02 17:44:21 Terrasse 28.80 27.95 33.90
152686 2024-05-02 17:38:54 Bahnzimmer 19.70 19.13 53.80
152685 2024-05-02 17:20:56 Aussentemperatur 22.90 22.52 48.90
152684 2024-05-02 17:16:06 Terrasse 31.70 30.68 31.80
152683 2024-05-02 17:08:53 Bahnzimmer 19.50 18.92 54.10
152682 2024-05-02 16:52:32 Aussentemperatur 22.80 22.41 48.90
152681 2024-05-02 16:47:42 Terrasse 29.90 28.85 32.50
152680 2024-05-02 16:38:53 Bahnzimmer 19.30 18.72 55.10
152679 2024-05-02 16:24:06 Aussentemperatur 22.80 22.44 50.00
152678 2024-05-02 16:19:26 Terrasse 30.80 29.71 32.00
152677 2024-05-02 16:08:52 Bahnzimmer 19.20 18.61 54.80
152676 2024-05-02 15:55:41 Aussentemperatur 22.70 22.33 50.00
152675 2024-05-02 15:51:09 Terrasse 31.00 29.96 32.30
152674 2024-05-02 15:38:51 Bahnzimmer 18.90 18.27 54.50
152673 2024-05-02 15:27:17 Aussentemperatur 22.70 22.34 50.40
152672 2024-05-02 15:22:53 Terrasse 32.00 31.12 32.50
152671 2024-05-02 15:08:51 Bahnzimmer 18.50 17.83 54.60
152670 2024-05-02 14:58:52 Aussentemperatur 22.60 22.24 50.70
152669 2024-05-02 14:54:25 Terrasse 30.60 29.58 32.80
152668 2024-05-02 14:38:50 Bahnzimmer 18.40 17.72 54.70
152667 2024-05-02 14:30:22 Aussentemperatur 21.70 21.31 52.90
152666 2024-05-02 14:26:02 Terrasse 29.50 28.49 32.70
152665 2024-05-02 14:08:49 Bahnzimmer 18.40 17.73 54.80
152664 2024-05-02 14:01:53 Aussentemperatur 20.90 20.52 56.40
152663 2024-05-02 13:57:39 Terrasse 28.00 27.46 36.80
152662 2024-05-02 13:38:49 Bahnzimmer 18.50 17.86 55.60
152661 2024-05-02 13:33:33 Aussentemperatur 21.10 20.73 56.20
152660 2024-05-02 13:29:29 Terrasse 28.60 27.89 35.70
152659 2024-05-02 13:08:48 Bahnzimmer 18.40 17.78 56.70
152658 2024-05-02 13:05:31 Aussentemperatur 22.90 22.65 53.90
152657 2024-05-02 13:01:37 Terrasse 30.70 29.72 33.10
152656 2024-05-02 12:38:47 Bahnzimmer 18.30 17.63 55.30
152655 2024-05-02 12:37:06 Aussentemperatur 23.70 23.53 53.90
152654 2024-05-02 12:33:17 Terrasse 31.80 30.85 32.20
152653 2024-05-02 12:08:47 Bahnzimmer 18.10 17.36 53.50
152652 2024-05-02 12:07:48 Aussentemperatur 18.50 18.06 63.20
152651 2024-05-02 12:05:03 Terrasse 31.70 30.85 33.20
152650 2024-05-02 11:39:20 Aussentemperatur 18.10 17.64 64.30
152649 2024-05-02 11:38:46 Bahnzimmer 18.10 17.36 53.50
152648 2024-05-02 11:36:36 Terrasse 30.90 30.03 34.00
152647 2024-05-02 11:10:53 Aussentemperatur 17.50 17.00 65.00
152646 2024-05-02 11:08:45 Bahnzimmer 18.20 17.47 53.40
152645 2024-05-02 11:08:09 Terrasse 29.50 28.74 35.80
152644 2024-05-02 10:42:26 Aussentemperatur 17.00 16.48 65.90
152643 2024-05-02 10:39:44 Terrasse 28.10 27.58 37.40
152642 2024-05-02 10:38:45 Bahnzimmer 18.20 17.47 53.30
152641 2024-05-02 10:13:58 Aussentemperatur 16.50 15.93 66.20
152640 2024-05-02 10:11:10 Terrasse 25.60 25.26 40.00
152639 2024-05-02 10:08:44 Bahnzimmer 18.30 17.57 53.20
152638 2024-05-02 09:45:30 Aussentemperatur 16.10 15.48 65.70
152637 2024-05-02 09:42:39 Terrasse 23.40 22.89 42.10
152636 2024-05-02 09:38:43 Bahnzimmer 18.50 17.79 52.90
152635 2024-05-02 09:17:03 Aussentemperatur 15.90 15.28 66.50
152634 2024-05-02 09:14:09 Terrasse 21.70 21.09 44.70
152633 2024-05-02 09:08:43 Bahnzimmer 18.40 17.68 52.90
152632 2024-05-02 08:48:37 Aussentemperatur 15.80 15.20 67.50
152631 2024-05-02 08:45:33 Terrasse 20.10 19.38 46.70
152630 2024-05-02 08:38:42 Bahnzimmer 18.40 17.67 52.80
152629 2024-05-02 08:20:11 Aussentemperatur 15.60 15.00 68.50
152628 2024-05-02 08:17:06 Terrasse 18.30 17.51 50.70
152627 2024-05-02 08:08:41 Bahnzimmer 18.00 17.24 53.10
152626 2024-05-02 07:51:45 Aussentemperatur 15.30 14.70 69.60
152625 2024-05-02 07:48:46 Terrasse 17.50 16.68 52.50
152624 2024-05-02 07:38:40 Bahnzimmer 18.00 17.24 53.10
152623 2024-05-02 07:23:20 Aussentemperatur 15.00 14.39 70.20
152622 2024-05-02 07:20:26 Terrasse 17.00 16.16 53.70
152621 2024-05-02 07:08:40 Bahnzimmer 18.00 17.24 53.10
152620 2024-05-02 06:54:55 Aussentemperatur 15.00 14.39 70.20
152619 2024-05-02 06:52:05 Terrasse 16.80 15.95 54.20
152618 2024-05-02 06:38:39 Bahnzimmer 18.00 17.24 53.00
152617 2024-05-02 06:26:32 Aussentemperatur 15.00 14.37 69.50
152616 2024-05-02 06:23:47 Terrasse 16.80 15.94 53.90
152615 2024-05-02 06:08:38 Bahnzimmer 18.00 17.24 53.00
152614 2024-05-02 05:58:09 Aussentemperatur 15.20 14.58 69.00
152613 2024-05-02 05:55:31 Terrasse 17.00 16.15 53.50
152612 2024-05-02 05:38:38 Bahnzimmer 18.00 17.24 53.00
152611 2024-05-02 05:29:47 Aussentemperatur 15.50 14.89 68.20
152610 2024-05-02 05:27:15 Terrasse 17.50 16.67 52.20
152609 2024-05-02 05:08:37 Bahnzimmer 18.00 17.24 52.90
152608 2024-05-02 05:01:24 Aussentemperatur 15.70 15.09 67.50
152607 2024-05-02 04:58:57 Terrasse 17.60 16.77 51.90
152606 2024-05-02 04:38:37 Bahnzimmer 18.00 17.24 52.90
152605 2024-05-02 04:33:01 Aussentemperatur 15.90 15.29 67.00
152604 2024-05-02 04:30:41 Terrasse 17.80 16.98 51.50
152603 2024-05-02 04:08:36 Bahnzimmer 18.00 17.24 52.90
152602 2024-05-02 04:04:38 Aussentemperatur 16.20 15.61 66.50
152601 2024-05-02 04:02:25 Terrasse 18.10 17.29 50.70
152600 2024-05-02 03:38:35 Bahnzimmer 18.00 17.24 52.90
152599 2024-05-02 03:36:13 Aussentemperatur 16.20 15.61 66.50
152598 2024-05-02 03:34:08 Terrasse 18.30 17.50 50.50
152597 2024-05-02 03:08:35 Bahnzimmer 18.10 17.34 52.80
152596 2024-05-02 03:07:49 Aussentemperatur 16.30 15.72 66.50
152595 2024-05-02 03:05:49 Terrasse 18.50 17.72 50.20
152594 2024-05-02 02:39:26 Aussentemperatur 16.40 15.83 66.30
152593 2024-05-02 02:38:34 Bahnzimmer 18.10 17.35 52.90
152592 2024-05-02 02:37:32 Terrasse 18.80 18.04 49.80
152591 2024-05-02 02:11:07 Aussentemperatur 16.70 16.13 65.30
152590 2024-05-02 02:09:15 Terrasse 19.10 18.35 49.10
152589 2024-05-02 02:08:33 Bahnzimmer 18.10 17.35 52.90
152588 2024-05-02 01:42:42 Aussentemperatur 16.90 16.34 64.80
152587 2024-05-02 01:40:58 Terrasse 19.30 18.56 48.70
152586 2024-05-02 01:38:33 Bahnzimmer 18.10 17.34 52.80
152585 2024-05-02 01:14:19 Aussentemperatur 17.00 16.43 64.10
152584 2024-05-02 01:12:52 Terrasse 19.40 18.65 48.00
152583 2024-05-02 01:08:32 Bahnzimmer 18.10 17.34 52.80
152582 2024-05-02 00:45:54 Aussentemperatur 17.00 16.43 64.30
152581 2024-05-02 00:44:33 Terrasse 19.60 18.85 47.30
152580 2024-05-02 00:38:31 Bahnzimmer 18.10 17.34 52.80
152579 2024-05-02 00:17:30 Aussentemperatur 17.10 16.53 63.70
152578 2024-05-02 00:16:16 Terrasse 19.80 19.04 46.30
152577 2024-05-02 00:08:31 Bahnzimmer 18.10 17.35 52.90
152576 2024-05-01 23:49:07 Aussentemperatur 17.30 16.75 63.90
152575 2024-05-01 23:48:00 Terrasse 20.10 19.35 45.20
152574 2024-05-01 23:38:30 Bahnzimmer 18.20 17.45 52.80
152573 2024-05-01 23:20:42 Aussentemperatur 17.20 16.65 64.10
152572 2024-05-01 23:19:44 Terrasse 20.30 19.56 45.10
152571 2024-05-01 23:08:29 Bahnzimmer 18.20 17.45 52.80
152570 2024-05-01 22:52:20 Aussentemperatur 17.40 16.85 63.30
152569 2024-05-01 22:51:27 Terrasse 20.50 19.75 43.70
152568 2024-05-01 22:38:29 Bahnzimmer 18.20 17.45 52.80
152567 2024-05-01 22:23:57 Aussentemperatur 17.60 17.07 63.50
152566 2024-05-01 22:23:12 Terrasse 20.70 20.00 45.00
152565 2024-05-01 22:08:28 Bahnzimmer 18.20 17.45 52.70
152564 2024-05-01 21:56:14 Terrasse 21.30 20.64 44.20
152563 2024-05-01 21:55:35 Aussentemperatur 18.00 17.50 63.10
152562 2024-05-01 21:38:27 Bahnzimmer 18.30 17.56 52.60
152561 2024-05-01 21:27:26 Terrasse 22.00 21.40 43.70
152560 2024-05-01 21:27:14 Aussentemperatur 18.40 17.92 62.10
152559 2024-05-01 21:08:27 Bahnzimmer 18.30 17.56 52.60
152558 2024-05-01 20:58:53 Aussentemperatur 19.00 18.55 60.90
152557 2024-05-01 20:57:21 Terrasse 22.90 22.33 41.50
152556 2024-05-01 20:38:26 Bahnzimmer 18.30 17.56 52.70
152555 2024-05-01 20:30:32 Aussentemperatur 19.50 19.06 59.50
152554 2024-05-01 20:27:04 Terrasse 24.00 23.49 39.80
152553 2024-05-01 20:08:25 Bahnzimmer 18.30 17.56 52.60
152552 2024-05-01 20:02:13 Aussentemperatur 20.30 19.89 57.70
152551 2024-05-01 19:58:52 Terrasse 25.00 24.55 38.20
152550 2024-05-01 19:38:25 Bahnzimmer 18.40 17.67 52.60
152549 2024-05-01 19:33:53 Aussentemperatur 21.00 20.59 55.10
152548 2024-05-01 19:30:39 Terrasse 26.00 25.62 36.90
152547 2024-05-01 19:08:24 Bahnzimmer 18.40 17.67 52.70
152546 2024-05-01 19:05:32 Aussentemperatur 21.60 21.16 51.40
152545 2024-05-01 19:02:25 Terrasse 26.80 26.47 34.30
152544 2024-05-01 18:38:24 Bahnzimmer 18.50 17.78 52.60
152543 2024-05-01 18:37:13 Aussentemperatur 22.40 21.96 48.30
152542 2024-05-01 18:34:19 Terrasse 27.80 27.07 32.60
152541 2024-05-01 18:08:53 Aussentemperatur 23.00 22.56 46.20
152540 2024-05-01 18:08:23 Bahnzimmer 18.50 17.78 52.60
152539 2024-05-01 18:06:03 Terrasse 28.90 27.86 31.20
152538 2024-05-01 17:40:35 Aussentemperatur 24.10 23.72 44.20
152537 2024-05-01 17:38:22 Bahnzimmer 18.40 17.67 52.80
152536 2024-05-01 17:37:53 Terrasse 30.40 29.14 30.10
152535 2024-05-01 17:12:11 Aussentemperatur 24.00 23.69 47.40
152534 2024-05-01 17:09:38 Terrasse 30.80 29.64 31.20
152533 2024-05-01 17:08:22 Bahnzimmer 18.30 17.56 52.80
152532 2024-05-01 16:43:47 Aussentemperatur 24.00 23.68 46.90
152531 2024-05-01 16:41:22 Terrasse 31.20 29.94 30.00
152530 2024-05-01 16:38:21 Bahnzimmer 18.30 17.56 52.80
152529 2024-05-01 16:15:21 Aussentemperatur 24.00 23.72 48.40
152528 2024-05-01 16:13:02 Terrasse 31.50 30.33 30.70
152527 2024-05-01 16:08:20 Bahnzimmer 18.30 17.56 52.80
152526 2024-05-01 15:46:57 Aussentemperatur 24.00 23.67 46.60
152525 2024-05-01 15:44:46 Terrasse 32.00 30.84 30.20
152524 2024-05-01 15:38:20 Bahnzimmer 18.30 17.57 52.90
152523 2024-05-01 15:18:33 Aussentemperatur 24.20 23.88 46.30
152522 2024-05-01 15:16:31 Terrasse 32.70 31.57 29.50
152521 2024-05-01 15:08:19 Bahnzimmer 18.20 17.46 52.90
152520 2024-05-01 14:50:11 Aussentemperatur 24.80 24.55 46.50
152519 2024-05-01 14:48:14 Terrasse 33.80 32.86 29.00
152518 2024-05-01 14:38:18 Bahnzimmer 18.10 17.35 53.10
152517 2024-05-01 14:21:48 Aussentemperatur 24.80 24.57 47.10
152516 2024-05-01 14:19:59 Terrasse 34.10 33.35 29.60
152515 2024-05-01 14:08:18 Bahnzimmer 18.10 17.35 53.10
152514 2024-05-01 13:53:26 Aussentemperatur 25.00 24.79 47.20
152513 2024-05-01 13:51:42 Terrasse 34.00 33.30 30.10
152512 2024-05-01 13:38:17 Bahnzimmer 18.00 17.25 53.30
152511 2024-05-01 13:25:14 Aussentemperatur 24.80 24.58 47.50
152510 2024-05-01 13:23:31 Terrasse 34.20 33.55 30.00
152509 2024-05-01 13:08:16 Bahnzimmer 18.00 17.25 53.40
152508 2024-05-01 12:57:10 Aussentemperatur 26.90 27.11 46.20
152507 2024-05-01 12:55:08 Terrasse 34.00 33.36 30.40
152506 2024-05-01 12:38:16 Bahnzimmer 18.00 17.25 53.40
152505 2024-05-01 12:28:13 Aussentemperatur 23.60 23.45 55.00
152504 2024-05-01 12:26:46 Terrasse 33.30 32.42 30.30
152503 2024-05-01 12:08:15 Bahnzimmer 18.00 17.25 53.50
152502 2024-05-01 11:59:22 Aussentemperatur 19.00 18.55 61.00
152501 2024-05-01 11:58:26 Terrasse 33.00 32.35 32.30
152500 2024-05-01 11:38:15 Bahnzimmer 18.10 17.36 53.50
152499 2024-05-01 11:30:55 Aussentemperatur 18.40 17.90 61.50
152498 2024-05-01 11:30:02 Terrasse 32.20 31.34 32.30
152497 2024-05-01 11:08:14 Bahnzimmer 18.10 17.36 53.50
152496 2024-05-01 11:02:27 Aussentemperatur 17.60 17.07 63.30
152495 2024-05-01 11:01:38 Terrasse 31.00 30.13 33.90
152494 2024-05-01 10:38:13 Bahnzimmer 18.20 17.47 53.60
152493 2024-05-01 10:33:58 Aussentemperatur 17.00 16.43 64.20
152492 2024-05-01 10:33:09 Terrasse 29.00 28.20 35.00
152491 2024-05-01 10:08:13 Bahnzimmer 18.30 17.59 53.90
152490 2024-05-01 10:05:32 Aussentemperatur 16.80 16.21 64.00
152489 2024-05-01 10:04:42 Terrasse 27.30 26.91 36.60
152488 2024-05-01 09:38:12 Bahnzimmer 18.30 17.58 53.60
152487 2024-05-01 09:37:07 Aussentemperatur 16.40 15.82 66.10
152486 2024-05-01 09:36:07 Terrasse 24.80 24.37 39.50
152485 2024-05-01 09:08:42 Aussentemperatur 16.50 15.91 65.40
152484 2024-05-01 09:08:11 Bahnzimmer 18.00 17.24 52.90
152483 2024-05-01 09:07:24 Terrasse 22.60 22.01 42.10
152482 2024-05-01 08:40:18 Aussentemperatur 16.10 15.51 66.90
152481 2024-05-01 08:38:55 Terrasse 21.30 20.63 43.70
152480 2024-05-01 08:38:11 Bahnzimmer 18.00 17.24 52.90
152479 2024-05-01 08:11:51 Aussentemperatur 15.40 14.79 68.80
152478 2024-05-01 08:10:29 Terrasse 19.10 18.30 47.40
152477 2024-05-01 08:08:10 Bahnzimmer 18.00 17.24 52.90
152476 2024-05-01 07:43:23 Aussentemperatur 14.90 14.33 72.30
152475 2024-05-01 07:42:08 Terrasse 18.20 17.38 49.80
152474 2024-05-01 07:38:09 Bahnzimmer 18.00 17.23 52.80
152473 2024-05-01 07:14:59 Aussentemperatur 14.80 14.21 71.70
152472 2024-05-01 07:13:47 Terrasse 17.60 16.73 50.30
152471 2024-05-01 07:08:09 Bahnzimmer 17.90 17.13 53.00
152470 2024-05-01 06:46:32 Aussentemperatur 14.30 13.64 71.20
152469 2024-05-01 06:45:26 Terrasse 16.90 16.00 51.70
152468 2024-05-01 06:38:08 Bahnzimmer 17.90 17.13 53.00
152467 2024-05-01 06:18:10 Aussentemperatur 14.50 13.84 70.20
152466 2024-05-01 06:17:22 Terrasse 17.10 16.17 50.10
152465 2024-05-01 06:08:07 Bahnzimmer 18.00 17.24 53.00
152464 2024-05-01 05:49:48 Aussentemperatur 14.70 14.03 69.10
152463 2024-05-01 05:49:02 Terrasse 17.40 16.46 48.30
152462 2024-05-01 05:38:07 Bahnzimmer 18.00 17.24 53.10
152461 2024-05-01 05:21:23 Aussentemperatur 14.80 14.13 68.70
152460 2024-05-01 05:20:45 Terrasse 17.50 16.56 48.00
152459 2024-05-01 05:08:06 Bahnzimmer 18.00 17.24 53.20
152458 2024-05-01 04:53:02 Aussentemperatur 14.90 14.22 68.00
152457 2024-05-01 04:52:28 Terrasse 17.50 16.55 47.70
152456 2024-05-01 04:38:05 Bahnzimmer 18.00 17.24 53.20
152455 2024-05-01 04:24:40 Aussentemperatur 15.00 14.31 67.30
152454 2024-05-01 04:24:11 Terrasse 17.80 16.84 46.30
152453 2024-05-01 04:08:05 Bahnzimmer 18.00 17.24 53.20
152452 2024-05-01 03:56:16 Aussentemperatur 14.90 14.20 67.20
152451 2024-05-01 03:55:54 Terrasse 17.50 16.50 45.80
152450 2024-05-01 03:38:04 Bahnzimmer 18.00 17.24 53.20
152449 2024-05-01 03:27:53 Aussentemperatur 15.10 14.44 67.80
152448 2024-05-01 03:27:38 Terrasse 17.70 16.75 46.90
152447 2024-05-01 03:08:04 Bahnzimmer 18.00 17.24 53.20
152446 2024-05-01 02:59:31 Aussentemperatur 15.30 14.64 67.10
152445 2024-05-01 02:59:25 Terrasse 18.20 17.28 46.20
152444 2024-05-01 02:38:03 Bahnzimmer 18.00 17.24 53.20
152443 2024-05-01 02:31:09 Terrasse 18.30 17.36 45.00
152442 2024-05-01 02:31:08 Aussentemperatur 15.60 14.96 66.80
152441 2024-05-01 02:08:02 Bahnzimmer 18.10 17.36 53.30
152440 2024-05-01 02:02:55 Terrasse 18.40 17.46 44.60
152439 2024-05-01 02:02:45 Aussentemperatur 15.50 14.85 67.00
152438 2024-05-01 01:38:02 Bahnzimmer 18.10 17.36 53.30
152437 2024-05-01 01:34:38 Terrasse 18.50 17.58 45.10
152436 2024-05-01 01:34:21 Aussentemperatur 15.50 14.88 67.90
152435 2024-05-01 01:08:01 Bahnzimmer 18.10 17.36 53.40
152434 2024-05-01 01:06:22 Terrasse 18.60 17.70 45.50
152433 2024-05-01 01:05:58 Aussentemperatur 15.60 14.99 67.90
152432 2024-05-01 00:38:05 Terrasse 18.80 17.92 45.20
152431 2024-05-01 00:38:00 Bahnzimmer 18.10 17.36 53.40
152430 2024-05-01 00:37:36 Aussentemperatur 15.80 15.22 68.50
152429 2024-05-01 00:09:49 Terrasse 19.00 18.20 47.50
152428 2024-05-01 00:09:14 Aussentemperatur 16.00 15.48 69.80
152427 2024-05-01 00:07:59 Bahnzimmer 18.20 17.47 53.40
152426 2024-04-30 23:41:34 Terrasse 19.40 18.65 48.10
152425 2024-04-30 23:40:53 Aussentemperatur 16.30 15.81 70.00
152424 2024-04-30 23:37:59 Bahnzimmer 18.30 17.58 53.40
152423 2024-04-30 23:13:20 Terrasse 19.90 19.21 48.30
152422 2024-04-30 23:12:31 Aussentemperatur 16.60 16.14 70.00
152421 2024-04-30 23:07:58 Bahnzimmer 18.40 17.69 53.40
152420 2024-04-30 22:45:06 Terrasse 20.40 19.76 48.40
152419 2024-04-30 22:44:10 Aussentemperatur 16.90 16.47 69.90
152418 2024-04-30 22:37:58 Bahnzimmer 18.50 17.79 53.20
152417 2024-04-30 22:18:22 Terrasse 20.80 20.20 48.40
152416 2024-04-30 22:15:48 Aussentemperatur 17.20 16.79 69.40
152415 2024-04-30 22:07:57 Bahnzimmer 18.60 17.90 53.20
152414 2024-04-30 21:47:26 Aussentemperatur 17.20 16.76 68.20
152413 2024-04-30 21:46:29 Terrasse 21.10 20.50 47.20
152412 2024-04-30 21:37:56 Bahnzimmer 18.30 17.58 53.40
152411 2024-04-30 21:19:21 Terrasse 21.70 21.12 45.60
152410 2024-04-30 21:19:04 Aussentemperatur 17.50 17.05 66.80
152409 2024-04-30 21:07:55 Bahnzimmer 18.40 17.69 53.50
152408 2024-04-30 20:50:45 Aussentemperatur 18.10 17.67 65.20
152407 2024-04-30 20:49:04 Terrasse 22.80 22.26 43.20
152406 2024-04-30 20:37:55 Bahnzimmer 18.50 17.80 53.50
152405 2024-04-30 20:22:25 Aussentemperatur 18.70 18.29 63.70
152404 2024-04-30 20:21:08 Terrasse 24.00 23.53 41.10
152403 2024-04-30 20:07:54 Bahnzimmer 18.60 17.91 53.60
152402 2024-04-30 19:54:05 Aussentemperatur 19.70 19.30 60.30
152401 2024-04-30 19:53:41 Terrasse 25.00 24.57 38.90
152400 2024-04-30 19:37:54 Bahnzimmer 18.80 18.14 53.70
152399 2024-04-30 19:25:45 Aussentemperatur 20.10 19.68 58.00
152398 2024-04-30 19:24:34 Terrasse 25.70 25.29 37.10
152397 2024-04-30 19:07:53 Bahnzimmer 19.00 18.36 53.90
152396 2024-04-30 18:57:26 Aussentemperatur 20.80 20.38 55.30
152395 2024-04-30 18:56:26 Terrasse 26.70 26.46 35.70
152394 2024-04-30 18:37:52 Bahnzimmer 19.30 18.68 53.30
152393 2024-04-30 18:29:05 Aussentemperatur 21.30 20.89 53.70
152392 2024-04-30 18:28:11 Terrasse 27.40 26.90 35.00
152391 2024-04-30 18:07:52 Bahnzimmer 19.50 18.90 53.40
152390 2024-04-30 18:00:42 Aussentemperatur 21.10 20.64 52.50
152389 2024-04-30 17:59:59 Terrasse 28.40 27.63 34.20
152388 2024-04-30 17:37:51 Bahnzimmer 19.30 18.72 55.10
152387 2024-04-30 17:32:21 Aussentemperatur 21.70 21.26 51.30
152386 2024-04-30 17:31:45 Terrasse 29.20 28.18 32.20
152385 2024-04-30 17:07:50 Bahnzimmer 19.20 18.63 55.80
152384 2024-04-30 17:03:59 Aussentemperatur 21.90 21.52 52.80
152383 2024-04-30 17:03:33 Terrasse 30.30 29.33 33.40
152382 2024-04-30 16:37:49 Bahnzimmer 19.00 18.37 54.30
152381 2024-04-30 16:35:37 Terrasse 31.10 30.25 34.00
152380 2024-04-30 16:35:36 Aussentemperatur 22.30 21.94 51.80
152379 2024-04-30 16:07:49 Bahnzimmer 18.30 17.57 53.10
152378 2024-04-30 16:07:29 Terrasse 31.80 30.90 32.60
152377 2024-04-30 16:07:13 Aussentemperatur 22.60 22.23 50.30
152376 2024-04-30 15:39:23 Terrasse 32.20 31.36 32.50
152375 2024-04-30 15:38:54 Aussentemperatur 23.00 22.62 48.30
152374 2024-04-30 15:37:48 Bahnzimmer 18.20 17.46 53.20
152373 2024-04-30 15:10:58 Terrasse 32.30 31.34 31.40
152372 2024-04-30 15:10:30 Aussentemperatur 23.20 22.84 48.50
152371 2024-04-30 15:07:47 Bahnzimmer 18.20 17.46 53.20
152370 2024-04-30 14:42:39 Terrasse 32.50 31.55 31.20
152369 2024-04-30 14:42:07 Aussentemperatur 23.30 22.98 49.50
152368 2024-04-30 14:37:47 Bahnzimmer 18.00 17.23 52.70
152367 2024-04-30 14:14:21 Terrasse 32.80 32.13 32.60
152366 2024-04-30 14:13:46 Aussentemperatur 23.60 23.35 51.30
152365 2024-04-30 14:07:46 Bahnzimmer 18.00 17.24 52.90
152364 2024-04-30 13:46:09 Terrasse 32.90 32.31 32.90
152363 2024-04-30 13:45:30 Aussentemperatur 23.90 23.78 54.80
152362 2024-04-30 13:37:45 Bahnzimmer 17.80 17.00 52.20
152361 2024-04-30 13:17:55 Terrasse 33.00 32.68 34.30
152360 2024-04-30 13:17:10 Aussentemperatur 24.00 23.91 55.70
152359 2024-04-30 13:07:45 Bahnzimmer 17.80 16.99 52.00
152358 2024-04-30 12:49:34 Terrasse 32.70 32.56 36.00
152357 2024-04-30 12:48:51 Aussentemperatur 25.80 25.96 58.40
152356 2024-04-30 12:37:44 Bahnzimmer 17.80 17.00 52.10
152355 2024-04-30 12:21:11 Terrasse 31.70 31.26 36.20
152354 2024-04-30 12:19:28 Aussentemperatur 20.50 20.39 68.30
152353 2024-04-30 12:07:43 Bahnzimmer 17.80 16.99 51.90
152352 2024-04-30 11:52:48 Terrasse 31.40 31.12 37.90
152351 2024-04-30 11:50:53 Aussentemperatur 16.80 16.50 75.10
152350 2024-04-30 11:37:43 Bahnzimmer 17.80 16.99 51.90
152349 2024-04-30 11:24:23 Terrasse 29.70 29.25 39.10
152348 2024-04-30 11:22:26 Aussentemperatur 16.20 15.86 75.90
152347 2024-04-30 11:07:42 Bahnzimmer 17.80 16.99 52.00
152346 2024-04-30 10:55:57 Terrasse 28.10 27.84 41.30
152345 2024-04-30 10:53:59 Aussentemperatur 15.50 15.11 76.90
152344 2024-04-30 10:37:41 Bahnzimmer 17.80 17.00 52.20
152343 2024-04-30 10:27:30 Terrasse 26.70 26.75 42.20
152342 2024-04-30 10:25:33 Aussentemperatur 14.80 14.36 77.70
152341 2024-04-30 10:07:41 Bahnzimmer 18.00 17.23 52.50
152340 2024-04-30 09:59:15 Terrasse 24.40 24.06 44.50
152339 2024-04-30 09:57:03 Aussentemperatur 13.90 13.41 79.20
152338 2024-04-30 09:37:40 Bahnzimmer 18.00 17.24 53.10
152337 2024-04-30 09:31:19 Terrasse 21.60 21.14 50.90
152336 2024-04-30 09:28:35 Aussentemperatur 12.90 12.38 81.70
152335 2024-04-30 09:07:40 Bahnzimmer 18.00 17.18 50.80
152334 2024-04-30 09:02:59 Terrasse 18.40 17.76 56.20
152333 2024-04-30 09:00:15 Aussentemperatur 13.20 12.66 79.80
152332 2024-04-30 08:37:39 Bahnzimmer 18.10 17.29 50.70
152331 2024-04-30 08:31:48 Aussentemperatur 12.40 11.80 80.50
152330 2024-04-30 08:30:26 Terrasse 16.00 15.23 60.30
152329 2024-04-30 08:07:38 Bahnzimmer 18.10 17.29 50.70
152328 2024-04-30 08:03:22 Aussentemperatur 11.70 11.04 81.10
152327 2024-04-30 08:01:58 Terrasse 13.70 12.85 66.20
152326 2024-04-30 07:37:38 Bahnzimmer 18.10 17.29 50.70
152325 2024-04-30 07:34:59 Aussentemperatur 11.40 10.68 80.00
152324 2024-04-30 07:33:38 Terrasse 12.80 11.86 65.90
152323 2024-04-30 07:07:37 Bahnzimmer 18.00 17.18 50.70
152322 2024-04-30 07:06:37 Aussentemperatur 11.30 10.55 78.90
152321 2024-04-30 07:05:19 Terrasse 12.30 11.30 65.60
152320 2024-04-30 06:38:15 Aussentemperatur 11.30 10.52 77.90
152319 2024-04-30 06:37:36 Bahnzimmer 18.00 17.18 50.70
152318 2024-04-30 06:37:03 Terrasse 12.40 11.38 64.70
152317 2024-04-30 06:09:54 Aussentemperatur 11.40 10.61 77.10
152316 2024-04-30 06:08:48 Terrasse 12.40 11.36 63.80
152315 2024-04-30 06:07:36 Bahnzimmer 17.90 17.07 50.80
152314 2024-04-30 05:41:31 Aussentemperatur 11.50 10.70 76.20
152313 2024-04-30 05:40:32 Terrasse 12.50 11.45 62.90
152312 2024-04-30 05:37:35 Bahnzimmer 17.80 16.96 50.90
152311 2024-04-30 05:13:10 Aussentemperatur 11.80 11.00 75.10
152310 2024-04-30 05:12:20 Terrasse 12.90 11.84 61.20
152309 2024-04-30 05:07:34 Bahnzimmer 17.60 16.75 51.10
152308 2024-04-30 04:44:50 Aussentemperatur 12.10 11.29 73.80
152307 2024-04-30 04:44:04 Terrasse 13.20 12.14 59.80
152306 2024-04-30 04:37:34 Bahnzimmer 17.70 16.86 51.00
152305 2024-04-30 04:16:30 Aussentemperatur 12.30 11.49 73.10
152304 2024-04-30 04:15:55 Terrasse 13.40 12.35 59.70
152303 2024-04-30 04:07:33 Bahnzimmer 17.70 16.86 51.00
152302 2024-04-30 03:48:08 Aussentemperatur 12.60 11.79 71.80
152301 2024-04-30 03:47:43 Terrasse 13.60 12.53 58.10
152300 2024-04-30 03:37:32 Bahnzimmer 17.80 16.97 51.00
152299 2024-04-30 03:19:44 Aussentemperatur 12.50 11.71 73.00
152298 2024-04-30 03:19:26 Terrasse 13.50 12.44 58.90
152297 2024-04-30 03:07:32 Bahnzimmer 17.80 16.97 51.00
152296 2024-04-30 02:51:22 Aussentemperatur 12.30 11.49 72.80
152295 2024-04-30 02:51:18 Terrasse 13.50 12.45 59.20
152294 2024-04-30 02:37:31 Bahnzimmer 17.80 16.97 51.00
152293 2024-04-30 02:23:08 Terrasse 13.60 12.55 58.90
152292 2024-04-30 02:23:00 Aussentemperatur 12.40 11.60 73.00
152291 2024-04-30 02:07:30 Bahnzimmer 17.80 16.96 50.90
152290 2024-04-30 01:54:39 Aussentemperatur 12.60 11.79 71.90
152289 2024-04-30 01:37:29 Bahnzimmer 17.90 17.07 50.90
152288 2024-04-30 01:26:17 Aussentemperatur 12.90 12.10 71.10
152287 2024-04-30 01:24:13 Terrasse 14.10 13.05 56.90
152286 2024-04-30 01:07:28 Bahnzimmer 18.00 17.18 50.90
152285 2024-04-30 00:57:56 Aussentemperatur 12.80 11.99 71.20
152284 2024-04-30 00:56:15 Terrasse 14.00 12.93 56.40
152283 2024-04-30 00:37:28 Bahnzimmer 18.00 17.18 50.90
152282 2024-04-30 00:29:34 Aussentemperatur 12.60 11.81 72.40
152281 2024-04-30 00:27:52 Terrasse 14.10 13.06 57.40
152280 2024-04-30 00:07:27 Bahnzimmer 18.00 17.18 50.90
152279 2024-04-30 00:01:12 Aussentemperatur 12.70 11.91 72.20
152278 2024-04-29 23:59:35 Terrasse 14.20 13.17 57.30
152277 2024-04-29 23:37:26 Bahnzimmer 18.10 17.29 50.70
152276 2024-04-29 23:32:51 Aussentemperatur 12.70 11.93 72.80
152275 2024-04-29 23:31:20 Terrasse 14.50 13.50 57.10
152274 2024-04-29 23:07:26 Bahnzimmer 18.10 17.29 50.90
152273 2024-04-29 23:04:30 Aussentemperatur 13.00 12.24 72.30
152272 2024-04-29 23:03:03 Terrasse 14.70 13.73 57.80
152271 2024-04-29 22:37:25 Bahnzimmer 18.10 17.29 50.60
152270 2024-04-29 22:36:08 Aussentemperatur 13.30 12.55 71.30
152269 2024-04-29 22:34:47 Terrasse 15.00 14.04 56.70
152268 2024-04-29 22:07:47 Aussentemperatur 13.50 12.74 70.20
152267 2024-04-29 22:07:24 Bahnzimmer 18.20 17.39 50.30
152266 2024-04-29 22:06:31 Terrasse 15.50 14.56 55.60
152265 2024-04-29 21:39:26 Aussentemperatur 13.80 13.03 68.60
152264 2024-04-29 21:38:17 Terrasse 16.00 15.05 53.40
152263 2024-04-29 21:37:24 Bahnzimmer 18.00 17.18 50.70
152262 2024-04-29 21:11:06 Aussentemperatur 14.20 13.44 67.60
152261 2024-04-29 21:10:03 Terrasse 16.60 15.67 51.80
152260 2024-04-29 21:07:23 Bahnzimmer 18.00 17.18 50.80
152259 2024-04-29 20:42:47 Aussentemperatur 14.70 13.93 65.40
152258 2024-04-29 20:41:50 Terrasse 17.50 16.59 49.10
152257 2024-04-29 20:37:22 Bahnzimmer 18.10 17.29 50.60
152256 2024-04-29 20:14:28 Aussentemperatur 15.30 14.51 62.10
152255 2024-04-29 20:13:35 Terrasse 18.40 17.53 47.20
152254 2024-04-29 20:07:21 Bahnzimmer 18.10 17.28 50.50
152253 2024-04-29 19:46:06 Aussentemperatur 15.80 14.99 59.70
152252 2024-04-29 19:45:19 Terrasse 18.80 17.91 45.10
152251 2024-04-29 19:37:21 Bahnzimmer 18.20 17.39 50.20
152250 2024-04-29 19:17:45 Aussentemperatur 16.00 15.20 59.20
152249 2024-04-29 19:17:03 Terrasse 19.30 18.46 44.90
152248 2024-04-29 19:07:20 Bahnzimmer 18.10 17.28 50.20
152247 2024-04-29 18:49:24 Aussentemperatur 16.40 15.61 57.90
152246 2024-04-29 18:48:49 Terrasse 19.70 18.86 43.60
152245 2024-04-29 18:37:19 Bahnzimmer 18.10 17.28 50.20
152244 2024-04-29 18:21:01 Aussentemperatur 16.60 15.79 56.50
152243 2024-04-29 18:20:34 Terrasse 20.30 19.50 42.70
152242 2024-04-29 18:07:18 Bahnzimmer 18.40 17.60 49.80
152241 2024-04-29 17:52:42 Aussentemperatur 17.00 16.20 55.50
152240 2024-04-29 17:52:22 Terrasse 21.20 20.44 40.70
152239 2024-04-29 17:37:18 Bahnzimmer 18.70 17.92 49.70
152238 2024-04-29 17:24:22 Aussentemperatur 17.50 16.75 55.20
152237 2024-04-29 17:24:09 Terrasse 22.00 21.29 39.50
152236 2024-04-29 17:07:17 Bahnzimmer 18.80 18.03 49.70
152235 2024-04-29 16:56:03 Aussentemperatur 18.10 17.41 55.40
152234 2024-04-29 16:55:56 Terrasse 23.10 22.48 38.70
152233 2024-04-29 16:37:16 Bahnzimmer 19.10 18.37 50.00
152232 2024-04-29 16:27:47 Terrasse 24.20 23.64 36.90
152231 2024-04-29 16:27:45 Aussentemperatur 18.40 17.73 55.00
152230 2024-04-29 16:07:16 Bahnzimmer 19.00 18.29 51.00
152229 2024-04-29 15:59:28 Terrasse 25.00 24.53 37.30
152228 2024-04-29 15:59:20 Aussentemperatur 18.20 17.56 56.80
152227 2024-04-29 15:37:15 Bahnzimmer 18.90 18.18 51.00
152226 2024-04-29 15:30:59 Terrasse 23.70 23.14 38.80
152225 2024-04-29 15:30:52 Aussentemperatur 17.40 16.72 58.50
152224 2024-04-29 15:07:14 Bahnzimmer 18.70 17.95 50.90
152223 2024-04-29 15:02:36 Terrasse 22.00 21.33 41.20
152222 2024-04-29 15:02:23 Aussentemperatur 16.40 15.71 61.70
152221 2024-04-29 14:37:14 Bahnzimmer 18.60 17.85 51.00
152220 2024-04-29 14:34:24 Terrasse 22.40 21.78 41.60
152219 2024-04-29 14:33:59 Aussentemperatur 16.30 15.61 62.10
152218 2024-04-29 14:07:13 Bahnzimmer 18.60 17.84 50.70
152217 2024-04-29 14:06:10 Terrasse 22.80 22.20 40.60
152216 2024-04-29 14:05:42 Aussentemperatur 16.50 15.81 61.60
152215 2024-04-29 13:38:07 Terrasse 21.80 21.14 42.20
152214 2024-04-29 13:37:16 Aussentemperatur 15.80 15.08 63.10
152213 2024-04-29 13:37:12 Bahnzimmer 18.50 17.73 50.70
152212 2024-04-29 13:09:59 Terrasse 24.60 24.14 39.30
152211 2024-04-29 13:08:55 Aussentemperatur 16.40 15.74 63.00
152210 2024-04-29 13:07:12 Bahnzimmer 18.70 17.95 50.60
152209 2024-04-29 12:41:43 Terrasse 26.00 25.69 39.70
152208 2024-04-29 12:41:06 Aussentemperatur 19.90 19.56 61.70
152207 2024-04-29 12:37:11 Bahnzimmer 18.80 18.05 50.50
152206 2024-04-29 12:13:29 Terrasse 23.50 22.97 40.70
152205 2024-04-29 12:12:03 Aussentemperatur 14.20 13.52 70.50
152204 2024-04-29 12:07:10 Bahnzimmer 19.10 18.36 49.40
152203 2024-04-29 11:45:06 Terrasse 24.20 23.78 42.30
152202 2024-04-29 11:43:37 Aussentemperatur 13.20 12.47 72.60
152201 2024-04-29 11:37:10 Bahnzimmer 18.70 17.94 50.20
152200 2024-04-29 11:15:15 Aussentemperatur 12.90 12.14 72.40
152199 2024-04-29 11:07:09 Bahnzimmer 18.90 18.16 50.20
152198 2024-04-29 10:46:49 Aussentemperatur 12.50 11.72 73.30
152197 2024-04-29 10:45:27 Terrasse 18.10 17.23 48.60
152196 2024-04-29 10:37:08 Bahnzimmer 19.10 18.36 49.70
152195 2024-04-29 10:18:24 Aussentemperatur 12.10 11.32 75.00
152194 2024-04-29 10:17:12 Terrasse 18.00 17.21 51.80
152193 2024-04-29 10:07:08 Bahnzimmer 19.40 18.68 49.20
152192 2024-04-29 09:50:00 Aussentemperatur 11.80 11.01 75.50
152191 2024-04-29 09:48:49 Terrasse 14.10 13.09 58.20
152190 2024-04-29 09:37:07 Bahnzimmer 19.40 18.66 48.50
152189 2024-04-29 09:21:36 Aussentemperatur 11.50 10.70 76.20
152188 2024-04-29 09:20:55 Terrasse 13.70 12.68 59.60
152187 2024-04-29 09:07:06 Bahnzimmer 19.00 18.25 49.50
152186 2024-04-29 08:53:11 Aussentemperatur 11.10 10.28 77.00
152185 2024-04-29 08:52:28 Terrasse 12.40 11.31 61.70
152184 2024-04-29 08:37:06 Bahnzimmer 19.20 18.45 48.90
152183 2024-04-29 08:24:48 Aussentemperatur 10.80 9.96 77.60
152182 2024-04-29 08:24:02 Terrasse 11.70 10.59 63.90
152181 2024-04-29 08:07:05 Bahnzimmer 19.00 18.24 49.30
152180 2024-04-29 07:56:25 Aussentemperatur 10.50 9.65 78.20
152179 2024-04-29 07:55:41 Terrasse 11.20 10.07 65.00
152178 2024-04-29 07:37:04 Bahnzimmer 19.00 18.22 48.40
152177 2024-04-29 07:28:00 Aussentemperatur 10.00 9.11 78.70
152176 2024-04-29 07:27:20 Terrasse 10.30 9.14 67.30
152175 2024-04-29 07:07:04 Bahnzimmer 18.50 17.68 49.00
152174 2024-04-29 06:59:38 Aussentemperatur 9.70 8.77 78.40
152173 2024-04-29 06:59:01 Terrasse 10.00 8.82 67.50
152172 2024-04-29 06:37:03 Bahnzimmer 18.40 17.58 49.10
152171 2024-04-29 06:31:16 Aussentemperatur 9.60 8.65 77.90
152170 2024-04-29 06:30:44 Terrasse 10.10 8.89 66.00
152169 2024-04-29 06:07:02 Bahnzimmer 18.10 17.25 49.30
152168 2024-04-29 06:02:54 Aussentemperatur 9.60 8.64 77.40
152167 2024-04-29 06:02:39 Terrasse 9.80 8.56 66.20
152166 2024-04-29 05:37:02 Bahnzimmer 18.00 17.14 49.30
152165 2024-04-29 05:34:31 Aussentemperatur 9.40 8.42 77.70
152164 2024-04-29 05:34:19 Terrasse 9.80 8.57 66.60
152163 2024-04-29 05:07:01 Bahnzimmer 17.60 16.72 49.90
152162 2024-04-29 05:06:12 Aussentemperatur 9.60 8.63 77.20
152161 2024-04-29 05:06:08 Terrasse 9.90 8.68 66.40
152160 2024-04-29 04:37:53 Terrasse 10.20 9.00 65.90
152159 2024-04-29 04:37:52 Aussentemperatur 10.00 9.06 76.70
152158 2024-04-29 04:37:00 Bahnzimmer 17.60 16.72 49.80
152157 2024-04-29 04:09:38 Terrasse 10.50 9.30 65.00
152156 2024-04-29 04:09:31 Aussentemperatur 10.00 9.05 76.20
152155 2024-04-29 04:07:00 Bahnzimmer 17.70 16.82 49.70
152154 2024-04-29 03:41:24 Terrasse 10.80 9.61 64.20
152153 2024-04-29 03:41:10 Aussentemperatur 10.20 9.25 75.70
152152 2024-04-29 03:36:59 Bahnzimmer 17.80 16.93 49.70
152151 2024-04-29 03:13:07 Terrasse 10.80 9.61 64.00
152150 2024-04-29 03:12:50 Aussentemperatur 10.30 9.35 75.10
152149 2024-04-29 03:06:59 Bahnzimmer 17.80 16.93 49.70
152148 2024-04-29 02:45:08 Terrasse 10.90 9.70 63.30
152147 2024-04-29 02:44:30 Aussentemperatur 10.40 9.43 74.10
152146 2024-04-29 02:36:58 Bahnzimmer 17.80 16.93 49.60
152145 2024-04-29 02:16:46 Terrasse 11.00 9.78 62.20
152144 2024-04-29 02:16:09 Aussentemperatur 10.50 9.51 73.10
152143 2024-04-29 02:06:57 Bahnzimmer 18.00 17.15 49.50
152142 2024-04-29 01:48:44 Terrasse 11.10 9.89 62.10
152141 2024-04-29 01:47:48 Aussentemperatur 10.50 9.51 72.80
152140 2024-04-29 01:36:57 Bahnzimmer 18.00 17.15 49.50
152139 2024-04-29 01:20:25 Terrasse 11.20 9.98 61.40
152138 2024-04-29 01:19:28 Aussentemperatur 10.60 9.60 72.00
152137 2024-04-29 01:06:56 Bahnzimmer 18.10 17.26 49.40
152136 2024-04-29 00:52:10 Terrasse 11.50 10.28 60.30
152135 2024-04-29 00:51:08 Aussentemperatur 10.70 9.68 70.90
152134 2024-04-29 00:36:55 Bahnzimmer 18.20 17.36 49.30
152133 2024-04-29 00:23:55 Terrasse 11.60 10.35 58.70
152132 2024-04-29 00:22:49 Aussentemperatur 11.00 9.96 69.30
152131 2024-04-29 00:06:55 Bahnzimmer 18.30 17.47 49.10
152130 2024-04-28 23:55:40 Terrasse 11.80 10.54 57.80
152129 2024-04-28 23:54:29 Aussentemperatur 11.20 10.14 67.70
152128 2024-04-28 23:36:54 Bahnzimmer 18.50 17.68 48.90
152127 2024-04-28 23:27:46 Terrasse 11.90 10.63 56.70
152126 2024-04-28 23:26:10 Aussentemperatur 11.40 10.33 66.60
152125 2024-04-28 23:06:53 Bahnzimmer 18.40 17.57 48.90
152124 2024-04-28 22:59:28 Terrasse 12.30 11.02 54.80
152123 2024-04-28 22:57:51 Aussentemperatur 11.60 10.53 65.50
152122 2024-04-28 22:36:53 Bahnzimmer 18.50 17.68 48.90
152121 2024-04-28 22:31:19 Terrasse 12.70 11.41 53.10
152120 2024-04-28 22:29:31 Aussentemperatur 12.10 11.02 63.20
152119 2024-04-28 22:06:52 Bahnzimmer 18.50 17.68 48.90
152118 2024-04-28 22:03:00 Terrasse 12.70 11.40 52.50
152117 2024-04-28 22:01:11 Aussentemperatur 12.00 10.91 63.20
152116 2024-04-28 21:36:51 Bahnzimmer 18.40 17.57 49.00
152115 2024-04-28 21:34:45 Terrasse 13.10 11.82 51.80
152114 2024-04-28 21:32:52 Aussentemperatur 12.30 11.22 62.70
152113 2024-04-28 21:06:51 Bahnzimmer 18.40 17.57 48.90
152112 2024-04-28 21:04:32 Aussentemperatur 12.50 11.45 62.80
152111 2024-04-28 20:36:50 Bahnzimmer 18.40 17.57 48.80
152110 2024-04-28 20:36:11 Aussentemperatur 12.70 11.67 62.90
152109 2024-04-28 20:36:07 Terrasse 13.60 12.36 51.60
152108 2024-04-28 20:07:50 Aussentemperatur 12.80 11.76 62.40
152107 2024-04-28 20:07:35 Terrasse 14.00 12.78 50.60
152106 2024-04-28 20:06:49 Bahnzimmer 18.30 17.47 49.10
152105 2024-04-28 19:39:29 Aussentemperatur 13.00 12.01 63.20
152104 2024-04-28 19:36:49 Bahnzimmer 18.30 17.46 48.90
152103 2024-04-28 19:11:08 Aussentemperatur 13.10 12.14 64.00
152102 2024-04-28 19:08:22 Terrasse 14.30 13.14 52.00
152101 2024-04-28 19:06:48 Bahnzimmer 18.30 17.47 49.10
152100 2024-04-28 18:42:48 Aussentemperatur 13.10 12.13 63.60
152099 2024-04-28 18:40:07 Terrasse 14.60 13.45 51.30
152098 2024-04-28 18:36:47 Bahnzimmer 18.20 17.36 49.10
152097 2024-04-28 18:14:28 Aussentemperatur 13.40 12.47 64.10
152096 2024-04-28 18:11:53 Terrasse 15.10 14.01 51.50
152095 2024-04-28 18:06:47 Bahnzimmer 18.30 17.46 48.90
152094 2024-04-28 17:46:08 Aussentemperatur 13.70 12.78 63.40
152093 2024-04-28 17:43:41 Terrasse 15.80 14.74 50.00
152092 2024-04-28 17:36:46 Bahnzimmer 18.30 17.46 48.90
152091 2024-04-28 17:17:48 Aussentemperatur 14.00 13.08 62.30
152090 2024-04-28 17:15:28 Terrasse 16.60 15.56 47.80
152089 2024-04-28 17:06:45 Bahnzimmer 18.50 17.67 48.50
152088 2024-04-28 16:49:32 Aussentemperatur 14.50 13.60 61.20
152087 2024-04-28 16:47:18 Terrasse 17.80 16.83 45.70
152086 2024-04-28 16:36:45 Bahnzimmer 18.20 17.35 48.90
152085 2024-04-28 16:21:06 Aussentemperatur 14.60 13.77 63.20
152084 2024-04-28 16:18:49 Terrasse 17.50 16.56 48.00
152083 2024-04-28 16:06:44 Bahnzimmer 18.20 17.35 48.80
152082 2024-04-28 15:52:45 Aussentemperatur 14.10 13.22 63.30
152081 2024-04-28 15:50:36 Terrasse 16.80 15.80 48.40
152080 2024-04-28 15:36:43 Bahnzimmer 18.10 17.25 49.20
152079 2024-04-28 15:24:24 Aussentemperatur 14.30 13.43 63.00
152078 2024-04-28 15:22:21 Terrasse 17.40 16.45 47.90
152077 2024-04-28 15:06:43 Bahnzimmer 18.00 17.14 49.20
152076 2024-04-28 14:56:00 Aussentemperatur 14.00 13.15 65.00
152075 2024-04-28 14:54:03 Terrasse 17.30 16.38 49.70
152074 2024-04-28 14:36:42 Bahnzimmer 18.10 17.25 49.30
152073 2024-04-28 14:27:45 Aussentemperatur 15.10 14.16 57.20
152072 2024-04-28 14:25:53 Terrasse 18.50 17.52 42.70
152071 2024-04-28 14:06:42 Bahnzimmer 18.10 17.26 49.60
152070 2024-04-28 13:59:23 Aussentemperatur 14.90 13.97 58.30
152069 2024-04-28 13:57:38 Terrasse 18.60 17.59 41.10
152068 2024-04-28 13:36:41 Bahnzimmer 18.00 17.17 50.20
152067 2024-04-28 13:31:11 Aussentemperatur 15.80 15.02 60.80
152066 2024-04-28 13:29:30 Terrasse 20.10 19.29 42.90
152065 2024-04-28 13:06:40 Bahnzimmer 18.40 17.56 48.60
152064 2024-04-28 13:02:40 Aussentemperatur 14.80 14.02 64.50
152063 2024-04-28 13:00:55 Terrasse 18.30 17.40 46.70
152062 2024-04-28 12:36:40 Bahnzimmer 18.50 17.67 48.50
152061 2024-04-28 12:34:13 Aussentemperatur 13.70 12.84 65.50
152060 2024-04-28 12:32:35 Terrasse 16.80 15.81 48.90
152059 2024-04-28 12:06:39 Bahnzimmer 18.50 17.67 48.60
152058 2024-04-28 12:05:50 Aussentemperatur 13.50 12.68 67.80
152057 2024-04-28 12:04:13 Terrasse 16.10 15.09 50.60
152056 2024-04-28 11:37:26 Aussentemperatur 13.00 12.16 69.00
152055 2024-04-28 11:36:38 Bahnzimmer 18.70 17.89 48.40
152054 2024-04-28 11:09:05 Aussentemperatur 12.70 11.86 70.30
152053 2024-04-28 11:07:44 Terrasse 15.40 14.42 54.70
152052 2024-04-28 11:06:38 Bahnzimmer 18.90 18.10 47.90
152051 2024-04-28 10:40:40 Aussentemperatur 12.20 11.33 71.00
152050 2024-04-28 10:39:23 Terrasse 14.10 13.06 57.30
152049 2024-04-28 10:36:37 Bahnzimmer 18.80 17.98 47.70
152048 2024-04-28 10:12:19 Aussentemperatur 12.30 11.42 70.30
152047 2024-04-28 10:11:07 Terrasse 14.10 13.04 56.50
152046 2024-04-28 10:06:36 Bahnzimmer 18.50 17.66 48.20
152045 2024-04-28 09:44:01 Aussentemperatur 12.70 11.78 67.10
152044 2024-04-28 09:42:54 Terrasse 14.90 13.85 53.70
152043 2024-04-28 09:36:36 Bahnzimmer 18.50 17.65 47.70
152042 2024-04-28 09:15:37 Aussentemperatur 12.30 11.25 63.80
152041 2024-04-28 09:14:33 Terrasse 14.60 13.40 49.30
152040 2024-04-28 09:06:35 Bahnzimmer 18.40 17.54 47.80
152039 2024-04-28 08:47:14 Aussentemperatur 12.00 10.92 63.70
152038 2024-04-28 08:46:11 Terrasse 13.90 12.64 49.70
152037 2024-04-28 08:36:34 Bahnzimmer 18.50 17.66 48.00
152036 2024-04-28 08:18:51 Aussentemperatur 11.70 10.60 64.10
152035 2024-04-28 08:17:51 Terrasse 13.40 12.07 48.80
152034 2024-04-28 08:06:34 Bahnzimmer 18.20 17.33 48.00
152033 2024-04-28 07:50:30 Aussentemperatur 11.60 10.50 64.70
152032 2024-04-28 07:49:32 Terrasse 13.10 11.83 52.30
152031 2024-04-28 07:36:33 Bahnzimmer 17.80 16.89 48.10
152030 2024-04-28 07:22:08 Aussentemperatur 11.40 10.25 63.40
152029 2024-04-28 07:21:18 Terrasse 12.90 11.56 50.20
152028 2024-04-28 07:06:32 Bahnzimmer 17.50 16.57 48.30
152027 2024-04-28 06:53:47 Aussentemperatur 11.40 10.25 63.40
152026 2024-04-28 06:53:01 Terrasse 12.80 11.45 50.50
152025 2024-04-28 06:36:32 Bahnzimmer 17.40 16.46 48.50
152024 2024-04-28 06:25:27 Aussentemperatur 11.50 10.34 62.70
152023 2024-04-28 06:24:45 Terrasse 12.80 11.40 48.40
152022 2024-04-28 06:06:31 Bahnzimmer 17.50 16.57 48.50
152021 2024-04-28 05:57:06 Aussentemperatur 11.50 10.32 61.90
152020 2024-04-28 05:56:29 Terrasse 12.80 11.39 48.10
152019 2024-04-28 05:36:30 Bahnzimmer 17.50 16.57 48.50
152018 2024-04-28 05:28:45 Aussentemperatur 11.40 10.22 62.30
152017 2024-04-28 05:28:14 Terrasse 12.80 11.42 49.20
152016 2024-04-28 05:06:30 Bahnzimmer 17.50 16.57 48.40
152015 2024-04-28 05:00:25 Aussentemperatur 11.50 10.32 61.70
152014 2024-04-28 04:59:58 Terrasse 13.00 11.61 47.90
152013 2024-04-28 04:36:29 Bahnzimmer 17.50 16.57 48.40
152012 2024-04-28 04:32:04 Aussentemperatur 11.70 10.51 60.80
152011 2024-04-28 04:31:43 Terrasse 13.30 11.88 45.90
152010 2024-04-28 04:06:29 Bahnzimmer 17.50 16.57 48.40
152009 2024-04-28 04:03:43 Aussentemperatur 11.70 10.50 60.40
152008 2024-04-28 04:03:29 Terrasse 13.60 12.21 45.70
152007 2024-04-28 03:36:28 Bahnzimmer 17.60 16.68 48.30
152006 2024-04-28 03:35:23 Aussentemperatur 12.10 10.93 59.80
152005 2024-04-28 03:35:14 Terrasse 14.20 12.82 44.00
152004 2024-04-28 03:07:02 Aussentemperatur 12.20 11.02 59.20
152003 2024-04-28 03:06:58 Terrasse 14.20 12.81 43.50
152002 2024-04-28 03:06:27 Bahnzimmer 17.60 16.68 48.30
152001 2024-04-28 02:38:44 Terrasse 14.50 13.11 42.20
152000 2024-04-28 02:38:43 Aussentemperatur 12.50 11.31 57.50
151999 2024-04-28 02:36:27 Bahnzimmer 17.60 16.68 48.30
151998 2024-04-28 02:10:29 Terrasse 14.90 13.51 40.80
151997 2024-04-28 02:10:22 Aussentemperatur 12.70 11.48 55.80
151996 2024-04-28 02:06:26 Bahnzimmer 17.60 16.67 48.20
151995 2024-04-28 01:42:14 Terrasse 15.20 13.84 40.80
151994 2024-04-28 01:42:05 Aussentemperatur 13.10 11.90 55.10
151993 2024-04-28 01:36:25 Bahnzimmer 17.70 16.78 48.20
151992 2024-04-28 01:13:59 Terrasse 15.40 14.04 40.10
151991 2024-04-28 01:13:43 Aussentemperatur 13.00 11.80 55.50
151990 2024-04-28 01:06:25 Bahnzimmer 17.70 16.78 48.20
151989 2024-04-28 00:45:43 Terrasse 15.60 14.26 40.10
151988 2024-04-28 00:45:23 Aussentemperatur 13.10 11.94 56.40
151987 2024-04-28 00:36:24 Bahnzimmer 17.80 16.90 48.30
151986 2024-04-28 00:17:28 Terrasse 15.80 14.48 39.90
151985 2024-04-28 00:17:03 Aussentemperatur 13.30 12.15 55.90
151984 2024-04-28 00:06:23 Bahnzimmer 17.80 16.89 48.20
151983 2024-04-27 23:49:12 Terrasse 15.90 14.57 39.30
151982 2024-04-27 23:48:40 Aussentemperatur 13.10 11.96 57.20
151981 2024-04-27 23:36:23 Bahnzimmer 17.80 16.89 48.20
151980 2024-04-27 23:20:58 Terrasse 16.10 14.80 39.80
151979 2024-04-27 23:20:21 Aussentemperatur 13.30 12.21 58.30
151978 2024-04-27 23:06:22 Bahnzimmer 17.80 16.89 48.10
151977 2024-04-27 22:52:43 Terrasse 16.30 15.06 41.10
151976 2024-04-27 22:52:01 Aussentemperatur 13.50 12.44 58.60
151975 2024-04-27 22:36:21 Bahnzimmer 17.90 17.00 48.10
151974 2024-04-27 22:24:28 Terrasse 16.70 15.45 39.30
151973 2024-04-27 22:23:41 Aussentemperatur 13.70 12.62 57.40
151972 2024-04-27 22:06:21 Bahnzimmer 18.00 17.11 47.90
151971 2024-04-27 21:56:13 Terrasse 16.90 15.67 39.20
151970 2024-04-27 21:55:20 Aussentemperatur 13.90 12.87 58.40
151969 2024-04-27 21:36:20 Bahnzimmer 18.00 17.10 47.80
151968 2024-04-27 21:27:59 Terrasse 17.20 16.00 39.30
151967 2024-04-27 21:27:00 Aussentemperatur 13.90 12.87 58.20
151966 2024-04-27 21:06:19 Bahnzimmer 18.00 17.10 47.70
151965 2024-04-27 20:59:45 Terrasse 17.80 16.66 39.30
151964 2024-04-27 20:58:40 Aussentemperatur 14.20 13.15 56.60
151963 2024-04-27 20:36:19 Bahnzimmer 18.00 17.11 48.00
151962 2024-04-27 20:31:34 Terrasse 18.40 17.28 37.80
151961 2024-04-27 20:30:20 Aussentemperatur 14.50 13.46 55.70
151960 2024-04-27 20:06:18 Bahnzimmer 18.00 17.11 47.90
151959 2024-04-27 20:03:21 Terrasse 19.30 18.23 36.00
151958 2024-04-27 20:02:03 Aussentemperatur 15.10 14.04 52.70
151957 2024-04-27 19:36:17 Bahnzimmer 18.10 17.21 47.70
151956 2024-04-27 19:35:13 Terrasse 20.50 19.48 33.50
151955 2024-04-27 19:33:46 Aussentemperatur 15.80 14.73 49.40
151954 2024-04-27 19:07:08 Terrasse 22.50 21.60 30.50
151953 2024-04-27 19:06:17 Bahnzimmer 18.20 17.32 47.60
151952 2024-04-27 19:05:28 Aussentemperatur 16.80 15.65 42.70
151951 2024-04-27 18:38:54 Terrasse 24.20 23.47 30.60
151950 2024-04-27 18:37:10 Aussentemperatur 17.30 16.20 42.80
151949 2024-04-27 18:36:16 Bahnzimmer 18.30 17.42 47.40
151948 2024-04-27 18:10:28 Terrasse 23.10 22.31 32.40
151947 2024-04-27 18:08:49 Aussentemperatur 17.50 16.43 42.90
151946 2024-04-27 18:06:16 Bahnzimmer 18.30 17.42 47.30
151945 2024-04-27 17:42:12 Terrasse 21.50 20.53 31.50
151944 2024-04-27 17:40:28 Aussentemperatur 17.20 16.13 44.40
151943 2024-04-27 17:36:15 Bahnzimmer 18.30 17.43 47.50
151942 2024-04-27 17:14:01 Terrasse 22.10 21.17 31.00
151941 2024-04-27 17:12:04 Aussentemperatur 17.00 15.92 44.70
151940 2024-04-27 17:06:14 Bahnzimmer 18.60 17.75 47.20
151939 2024-04-27 16:45:53 Terrasse 23.80 22.99 28.90
151938 2024-04-27 16:43:47 Aussentemperatur 18.10 17.04 41.10
151937 2024-04-27 16:36:14 Bahnzimmer 18.50 17.63 47.00
151936 2024-04-27 16:17:46 Terrasse 25.00 24.37 31.30
151935 2024-04-27 16:15:25 Aussentemperatur 18.50 17.61 46.00
151934 2024-04-27 16:06:13 Bahnzimmer 18.30 17.42 47.20
151933 2024-04-27 15:49:22 Terrasse 24.90 24.27 31.40
151932 2024-04-27 15:47:00 Aussentemperatur 18.30 17.39 46.20
151931 2024-04-27 15:36:12 Bahnzimmer 18.20 17.31 47.30
151930 2024-04-27 15:20:58 Terrasse 23.80 23.08 32.50
151929 2024-04-27 15:18:35 Aussentemperatur 17.40 16.48 49.10
151928 2024-04-27 15:06:12 Bahnzimmer 18.10 17.20 47.40
151927 2024-04-27 14:52:43 Terrasse 24.20 23.57 34.10
151926 2024-04-27 14:50:16 Aussentemperatur 17.80 16.93 49.60
151925 2024-04-27 14:36:11 Bahnzimmer 18.10 17.21 47.60
151924 2024-04-27 14:24:25 Terrasse 25.40 24.86 33.20
151923 2024-04-27 14:21:54 Aussentemperatur 18.10 17.25 49.20
151922 2024-04-27 14:06:10 Bahnzimmer 18.00 17.10 47.80
151921 2024-04-27 13:56:03 Terrasse 24.20 23.57 34.20
151920 2024-04-27 13:53:29 Aussentemperatur 17.40 16.52 50.60
151919 2024-04-27 13:36:10 Bahnzimmer 17.70 16.79 48.30
151918 2024-04-27 13:27:51 Terrasse 23.00 22.33 37.50
151917 2024-04-27 13:25:17 Aussentemperatur 17.00 16.24 56.90
151916 2024-04-27 13:06:09 Bahnzimmer 18.10 17.21 47.60
151915 2024-04-27 12:59:41 Terrasse 24.40 23.87 37.20
151914 2024-04-27 12:57:29 Aussentemperatur 20.00 19.51 55.80
151913 2024-04-27 12:36:08 Bahnzimmer 18.20 17.32 47.70
151912 2024-04-27 12:31:15 Terrasse 22.00 21.30 40.10
151911 2024-04-27 12:28:43 Aussentemperatur 16.00 15.41 67.30
151910 2024-04-27 12:06:08 Bahnzimmer 18.30 17.43 47.60
151909 2024-04-27 12:02:44 Terrasse 20.10 19.30 43.30
151908 2024-04-27 12:00:01 Aussentemperatur 12.10 11.27 72.90
151907 2024-04-27 11:36:07 Bahnzimmer 18.30 17.43 47.70
151906 2024-04-27 11:34:29 Terrasse 19.90 19.09 44.00
151905 2024-04-27 11:31:38 Aussentemperatur 11.70 10.87 74.30
151904 2024-04-27 11:06:08 Terrasse 20.30 19.54 44.40
151903 2024-04-27 11:06:06 Bahnzimmer 18.30 17.43 47.70
151902 2024-04-27 11:03:12 Aussentemperatur 10.80 9.93 76.20
151901 2024-04-27 10:37:40 Terrasse 19.00 18.15 45.70
151900 2024-04-27 10:36:05 Bahnzimmer 18.40 17.54 47.70
151899 2024-04-27 10:34:48 Aussentemperatur 10.20 9.33 78.50
151898 2024-04-27 10:09:00 Terrasse 16.60 15.63 50.50
151897 2024-04-27 10:06:24 Aussentemperatur 9.40 8.49 80.30
151896 2024-04-27 10:06:05 Bahnzimmer 18.60 17.76 47.60
151895 2024-04-27 09:40:36 Terrasse 13.90 12.82 56.30
151894 2024-04-27 09:38:02 Aussentemperatur 8.90 7.98 81.70
151893 2024-04-27 09:36:04 Bahnzimmer 19.00 18.19 47.10
151892 2024-04-27 09:12:07 Terrasse 12.50 11.37 60.10
151891 2024-04-27 09:09:42 Aussentemperatur 8.90 7.98 81.70
151890 2024-04-27 09:06:03 Bahnzimmer 19.00 18.17 46.50
151889 2024-04-27 08:43:43 Terrasse 11.50 10.36 63.50
151888 2024-04-27 08:41:20 Aussentemperatur 8.50 7.57 82.80
151887 2024-04-27 08:36:03 Bahnzimmer 18.70 17.85 46.80
151886 2024-04-27 08:15:29 Terrasse 9.70 8.49 67.50
151885 2024-04-27 08:12:59 Aussentemperatur 8.20 7.24 82.90
151884 2024-04-27 08:06:02 Bahnzimmer 18.50 17.64 47.10
151883 2024-04-27 07:47:06 Terrasse 8.60 7.35 70.40
151882 2024-04-27 07:44:35 Aussentemperatur 7.80 6.80 83.00
151881 2024-04-27 07:36:01 Bahnzimmer 18.50 17.63 47.00
151880 2024-04-27 07:18:45 Terrasse 7.80 6.49 70.90
151879 2024-04-27 07:16:10 Aussentemperatur 7.10 6.04 83.10
151878 2024-04-27 07:06:01 Bahnzimmer 18.40 17.52 47.00
151877 2024-04-27 06:50:27 Terrasse 7.10 5.73 71.50
151876 2024-04-27 06:47:46 Aussentemperatur 6.70 5.58 82.60
151875 2024-04-27 06:36:00 Bahnzimmer 18.00 17.09 47.30
151874 2024-04-27 06:22:10 Terrasse 6.70 5.25 69.70
151873 2024-04-27 06:19:24 Aussentemperatur 6.30 5.11 81.50
151872 2024-04-27 06:05:59 Bahnzimmer 17.80 16.88 47.50
151871 2024-04-27 05:53:55 Terrasse 6.90 5.46 69.60
151870 2024-04-27 05:51:06 Aussentemperatur 6.50 5.31 80.60
151869 2024-04-27 05:35:59 Bahnzimmer 17.80 16.88 47.50
151868 2024-04-27 05:25:39 Terrasse 6.90 5.47 69.80
151867 2024-04-27 05:22:45 Aussentemperatur 6.50 5.31 80.50
151866 2024-04-27 05:05:58 Bahnzimmer 17.80 16.88 47.50
151865 2024-04-27 04:57:24 Terrasse 6.80 5.32 68.30
151864 2024-04-27 04:54:25 Aussentemperatur 6.50 5.28 79.60
151863 2024-04-27 04:35:57 Bahnzimmer 17.80 16.88 47.60
151862 2024-04-27 04:29:08 Terrasse 7.00 5.52 67.60
151861 2024-04-27 04:26:15 Aussentemperatur 6.50 5.28 79.30
151860 2024-04-27 04:05:57 Bahnzimmer 17.80 16.88 47.50
151859 2024-04-27 04:00:56 Terrasse 7.00 5.51 67.30
151858 2024-04-27 03:57:52 Aussentemperatur 6.60 5.38 78.90
151857 2024-04-27 03:35:56 Bahnzimmer 17.80 16.88 47.50
151856 2024-04-27 03:32:41 Terrasse 7.20 5.71 66.60
151855 2024-04-27 03:29:34 Aussentemperatur 6.80 5.57 78.10
151854 2024-04-27 03:05:55 Bahnzimmer 17.90 16.98 47.40
151853 2024-04-27 03:04:26 Terrasse 7.50 6.02 65.70
151852 2024-04-27 03:01:13 Aussentemperatur 6.90 5.69 78.30
151851 2024-04-27 02:36:10 Terrasse 7.60 6.12 65.40
151850 2024-04-27 02:35:55 Bahnzimmer 17.80 16.88 47.60
151849 2024-04-27 02:32:54 Aussentemperatur 7.00 5.78 77.50
151848 2024-04-27 02:07:55 Terrasse 7.80 6.33 64.90
151847 2024-04-27 02:05:54 Bahnzimmer 17.80 16.88 47.50
151846 2024-04-27 02:04:35 Aussentemperatur 7.10 5.87 76.90
151845 2024-04-27 01:39:39 Terrasse 8.00 6.55 64.80
151844 2024-04-27 01:36:16 Aussentemperatur 7.30 6.08 76.50
151843 2024-04-27 01:35:53 Bahnzimmer 18.00 17.09 47.40
151842 2024-04-27 01:11:26 Terrasse 8.20 6.74 63.90
151841 2024-04-27 01:07:58 Aussentemperatur 7.50 6.27 75.40
151840 2024-04-27 01:05:53 Bahnzimmer 18.00 17.09 47.40
151839 2024-04-27 00:43:11 Terrasse 8.60 7.15 62.60
151838 2024-04-27 00:39:38 Aussentemperatur 7.80 6.59 75.00
151837 2024-04-27 00:35:52 Bahnzimmer 18.10 17.20 47.20
151836 2024-04-27 00:14:57 Terrasse 9.10 7.68 61.90
151835 2024-04-27 00:11:18 Aussentemperatur 8.00 6.79 74.00
151834 2024-04-27 00:05:51 Bahnzimmer 18.20 17.31 47.10
151833 2024-04-26 23:46:42 Terrasse 9.40 7.98 60.70
151832 2024-04-26 23:43:00 Aussentemperatur 8.30 7.09 73.00
151831 2024-04-26 23:35:51 Bahnzimmer 18.20 17.31 47.10
151830 2024-04-26 23:18:27 Terrasse 9.80 8.39 59.60
151829 2024-04-26 23:14:41 Aussentemperatur 8.60 7.39 71.80
151828 2024-04-26 23:05:50 Bahnzimmer 18.30 17.42 47.10
151827 2024-04-26 22:50:12 Terrasse 10.00 8.58 58.30
151826 2024-04-26 22:46:22 Aussentemperatur 8.80 7.58 70.80
151825 2024-04-26 22:35:49 Bahnzimmer 18.40 17.52 47.00
151824 2024-04-26 22:21:59 Terrasse 10.50 9.09 56.80
151823 2024-04-26 22:18:03 Aussentemperatur 9.00 7.77 69.60
151822 2024-04-26 22:05:49 Bahnzimmer 18.70 17.84 46.70
151821 2024-04-26 21:53:45 Terrasse 11.00 9.58 54.70
151820 2024-04-26 21:49:46 Aussentemperatur 9.50 8.27 67.40
151819 2024-04-26 21:35:48 Bahnzimmer 18.80 17.95 46.60
151818 2024-04-26 21:25:30 Terrasse 11.40 10.00 53.70
151817 2024-04-26 21:21:25 Aussentemperatur 9.70 8.46 66.50
151816 2024-04-26 21:05:47 Bahnzimmer 18.90 18.05 46.20
151815 2024-04-26 20:57:16 Terrasse 11.90 10.47 50.70
151814 2024-04-26 20:53:06 Aussentemperatur 10.00 8.73 64.00
151813 2024-04-26 20:35:47 Bahnzimmer 18.60 17.73 46.50
151812 2024-04-26 20:29:04 Terrasse 12.50 11.06 48.00
151811 2024-04-26 20:24:49 Aussentemperatur 10.70 9.42 61.10
151810 2024-04-26 20:05:46 Bahnzimmer 18.70 17.84 46.40
151809 2024-04-26 20:00:51 Terrasse 13.30 11.90 46.40
151808 2024-04-26 19:56:32 Aussentemperatur 11.20 9.93 59.70
151807 2024-04-26 19:35:45 Bahnzimmer 18.60 17.73 46.50
151806 2024-04-26 19:32:39 Terrasse 14.00 12.61 44.40
151805 2024-04-26 19:28:13 Aussentemperatur 11.70 10.42 57.30
151804 2024-04-26 19:05:45 Bahnzimmer 18.70 17.83 46.30
151803 2024-04-26 19:04:26 Terrasse 14.70 13.39 44.50
151802 2024-04-26 18:59:57 Aussentemperatur 12.20 10.95 56.60
151801 2024-04-26 18:36:15 Terrasse 15.80 14.57 43.60
151800 2024-04-26 18:35:44 Bahnzimmer 18.80 17.94 46.20
151799 2024-04-26 18:31:39 Aussentemperatur 12.80 11.60 56.10
151798 2024-04-26 18:08:06 Terrasse 17.00 15.82 40.60
151797 2024-04-26 18:05:44 Bahnzimmer 18.80 17.94 46.20
151796 2024-04-26 18:03:24 Aussentemperatur 13.60 12.39 52.70
151795 2024-04-26 17:39:57 Terrasse 18.20 17.01 35.80
151794 2024-04-26 17:35:43 Bahnzimmer 18.90 18.05 46.00
151793 2024-04-26 17:35:07 Aussentemperatur 14.30 13.11 50.80
151792 2024-04-26 17:11:42 Terrasse 18.90 17.80 36.40
151791 2024-04-26 17:06:47 Aussentemperatur 14.20 13.03 51.80
151790 2024-04-26 17:05:42 Bahnzimmer 19.10 18.25 45.40
151789 2024-04-26 16:43:27 Terrasse 19.00 17.93 37.20
151788 2024-04-26 16:38:26 Aussentemperatur 14.00 12.82 52.40
151787 2024-04-26 16:35:42 Bahnzimmer 19.10 18.26 45.70
151786 2024-04-26 16:15:10 Terrasse 19.70 18.65 35.40
151785 2024-04-26 16:10:05 Aussentemperatur 14.20 13.03 51.80
151784 2024-04-26 16:05:41 Bahnzimmer 19.10 18.26 45.70
151783 2024-04-26 15:46:51 Terrasse 20.00 18.99 35.90
151782 2024-04-26 15:41:41 Aussentemperatur 13.60 12.43 54.30
151781 2024-04-26 15:35:40 Bahnzimmer 19.00 18.16 46.00
151780 2024-04-26 15:18:31 Terrasse 19.70 18.67 36.30
151779 2024-04-26 15:13:19 Aussentemperatur 13.30 12.13 55.20
151778 2024-04-26 15:05:39 Bahnzimmer 19.00 18.16 46.10
151777 2024-04-26 14:50:06 Terrasse 18.60 17.55 39.70
151776 2024-04-26 14:44:53 Aussentemperatur 12.50 11.30 57.40
151775 2024-04-26 14:35:39 Bahnzimmer 19.10 18.27 46.10
151774 2024-04-26 14:21:48 Terrasse 18.80 17.75 38.70
151773 2024-04-26 14:16:37 Aussentemperatur 13.40 12.28 57.00
151772 2024-04-26 14:05:38 Bahnzimmer 19.20 18.38 46.10
151771 2024-04-26 13:53:32 Terrasse 19.50 18.50 38.00
151770 2024-04-26 13:48:19 Aussentemperatur 13.10 12.00 58.70
151769 2024-04-26 13:35:37 Bahnzimmer 19.10 18.25 45.50
151768 2024-04-26 13:25:14 Terrasse 19.00 18.00 40.10
151767 2024-04-26 13:19:49 Aussentemperatur 12.00 10.89 62.60
151766 2024-04-26 13:05:37 Bahnzimmer 18.80 17.93 45.70
151765 2024-04-26 12:56:58 Terrasse 16.80 15.62 41.60
151764 2024-04-26 12:51:38 Aussentemperatur 11.80 10.69 63.50
151763 2024-04-26 12:35:36 Bahnzimmer 19.10 18.23 44.60
151762 2024-04-26 12:28:41 Terrasse 16.80 15.62 41.40
151761 2024-04-26 12:22:46 Aussentemperatur 9.20 7.91 66.50
151760 2024-04-26 12:05:35 Bahnzimmer 19.10 18.27 46.00
151759 2024-04-26 12:00:39 Terrasse 18.10 17.05 41.60
151758 2024-04-26 11:54:20 Aussentemperatur 7.90 6.48 66.60
151757 2024-04-26 11:35:35 Bahnzimmer 19.30 18.47 45.40
151756 2024-04-26 11:31:35 Terrasse 10.50 8.93 50.90
151755 2024-04-26 11:25:52 Aussentemperatur 6.90 5.44 68.60
151754 2024-04-26 11:05:34 Bahnzimmer 19.30 18.45 44.50
151753 2024-04-26 11:03:05 Terrasse 8.50 6.83 54.50
151752 2024-04-26 10:57:27 Aussentemperatur 6.50 5.01 69.20
151751 2024-04-26 10:35:33 Bahnzimmer 18.80 17.93 45.70
151750 2024-04-26 10:34:47 Terrasse 8.00 6.24 53.20
151749 2024-04-26 10:29:08 Aussentemperatur 6.30 4.80 69.40
151748 2024-04-26 10:06:32 Terrasse 8.10 6.34 52.60
151747 2024-04-26 10:05:32 Bahnzimmer 18.70 17.80 44.90
151746 2024-04-26 10:00:48 Aussentemperatur 6.20 4.70 69.90
151745 2024-04-26 09:38:18 Terrasse 8.20 6.49 54.10
151744 2024-04-26 09:35:32 Bahnzimmer 18.70 17.83 46.10
151743 2024-04-26 09:32:26 Aussentemperatur 5.90 4.39 70.70
151742 2024-04-26 09:10:03 Terrasse 8.20 6.47 53.40
151741 2024-04-26 09:05:31 Bahnzimmer 18.90 18.05 46.10
151740 2024-04-26 09:04:03 Aussentemperatur 5.50 3.99 72.10
151739 2024-04-26 08:41:33 Terrasse 6.10 4.31 59.00
151738 2024-04-26 08:35:41 Aussentemperatur 5.10 3.58 73.20
151737 2024-04-26 08:35:30 Bahnzimmer 19.00 18.16 46.00
151736 2024-04-26 08:13:09 Terrasse 5.60 3.81 61.00
151735 2024-04-26 08:07:20 Aussentemperatur 4.90 3.39 74.40
151734 2024-04-26 08:05:30 Bahnzimmer 18.90 18.01 44.60
151733 2024-04-26 07:44:48 Terrasse 4.50 2.70 65.00
151732 2024-04-26 07:38:55 Aussentemperatur 4.10 2.57 76.90
151731 2024-04-26 07:35:29 Bahnzimmer 18.40 17.49 45.70
151730 2024-04-26 07:16:28 Terrasse 3.50 1.64 66.60
151729 2024-04-26 07:10:31 Aussentemperatur 3.50 1.91 76.90
151728 2024-04-26 07:05:28 Bahnzimmer 18.40 17.49 45.60
151727 2024-04-26 06:48:12 Terrasse 2.90 0.99 66.80
151726 2024-04-26 06:42:09 Aussentemperatur 2.90 1.24 76.20
151725 2024-04-26 06:35:28 Bahnzimmer 18.40 17.48 45.50
151724 2024-04-26 06:19:58 Terrasse 2.50 0.54 66.40
151723 2024-04-26 06:13:49 Aussentemperatur 2.80 1.11 75.80
151722 2024-04-26 06:05:27 Bahnzimmer 18.30 17.38 45.80
151721 2024-04-26 05:51:44 Terrasse 2.70 0.73 65.40
151720 2024-04-26 05:45:31 Aussentemperatur 2.90 1.22 75.50
151719 2024-04-26 05:35:26 Bahnzimmer 18.50 17.59 45.40
151718 2024-04-26 05:17:13 Aussentemperatur 3.10 1.43 75.10
151717 2024-04-26 05:05:26 Bahnzimmer 18.40 17.48 45.40
151716 2024-04-26 04:53:03 Terrasse 2.90 0.95 65.10
151715 2024-04-26 04:48:54 Aussentemperatur 3.20 1.52 74.50
151714 2024-04-26 04:35:25 Bahnzimmer 18.00 17.05 45.90
151713 2024-04-26 04:24:50 Terrasse 3.10 1.14 64.10
151712 2024-04-26 04:20:34 Aussentemperatur 3.20 1.53 74.90
151711 2024-04-26 04:05:24 Bahnzimmer 18.00 17.05 45.80
151710 2024-04-26 03:56:37 Terrasse 3.10 1.13 63.90
151709 2024-04-26 03:52:15 Aussentemperatur 3.10 1.41 74.60
151708 2024-04-26 03:35:24 Bahnzimmer 18.00 17.05 45.90
151707 2024-04-26 03:29:53 Terrasse 3.10 1.13 63.80
151706 2024-04-26 03:23:57 Aussentemperatur 3.30 1.63 74.30
151705 2024-04-26 03:05:23 Bahnzimmer 18.00 17.05 45.80
151704 2024-04-26 02:59:36 Terrasse 3.30 1.34 63.40
151703 2024-04-26 02:55:38 Aussentemperatur 3.30 1.60 73.50
151702 2024-04-26 02:35:22 Bahnzimmer 18.00 17.05 45.90
151701 2024-04-26 02:31:24 Terrasse 3.50 1.55 63.10
151700 2024-04-26 02:27:18 Aussentemperatur 3.40 1.71 73.50
151699 2024-04-26 02:05:22 Bahnzimmer 18.00 17.06 46.00
151698 2024-04-26 02:05:06 Terrasse 3.60 1.65 62.60
151697 2024-04-26 01:59:01 Aussentemperatur 3.60 1.92 72.80
151696 2024-04-26 01:35:21 Bahnzimmer 18.00 17.05 45.90
151695 2024-04-26 01:32:32 Terrasse 3.80 1.86 62.10
151694 2024-04-26 01:30:41 Aussentemperatur 3.90 2.24 72.70
151693 2024-04-26 01:05:20 Bahnzimmer 18.00 17.06 46.00
151692 2024-04-26 01:04:18 Terrasse 4.00 2.08 62.20
151691 2024-04-26 01:02:23 Aussentemperatur 3.90 2.23 72.20
151690 2024-04-26 00:36:21 Terrasse 4.30 2.38 60.90
151689 2024-04-26 00:35:20 Bahnzimmer 18.10 17.16 45.90
151688 2024-04-26 00:34:04 Aussentemperatur 4.00 2.34 72.20
151687 2024-04-26 00:08:32 Terrasse 4.50 2.59 60.80
151686 2024-04-26 00:05:46 Aussentemperatur 4.10 2.43 71.40
151685 2024-04-26 00:05:19 Bahnzimmer 18.20 17.27 45.90
151684 2024-04-25 23:40:22 Terrasse 4.60 2.70 60.60
151683 2024-04-25 23:37:26 Aussentemperatur 4.30 2.64 71.00
151682 2024-04-25 23:35:18 Bahnzimmer 18.40 17.49 45.60
151681 2024-04-25 23:12:14 Terrasse 5.00 3.12 59.80
151680 2024-04-25 23:09:09 Aussentemperatur 4.60 2.95 70.20
151679 2024-04-25 23:05:18 Bahnzimmer 18.60 17.70 45.40
151678 2024-04-25 22:44:28 Terrasse 5.50 3.64 58.60
151677 2024-04-25 22:40:52 Aussentemperatur 5.00 3.37 69.30
151676 2024-04-25 22:35:17 Bahnzimmer 18.60 17.70 45.30
151675 2024-04-25 22:16:20 Terrasse 5.70 3.83 57.50
151674 2024-04-25 22:12:33 Aussentemperatur 5.10 3.42 67.10
151673 2024-04-25 22:05:16 Bahnzimmer 18.60 17.70 45.20
151672 2024-04-25 21:47:54 Terrasse 6.10 4.23 55.90
151671 2024-04-25 21:44:15 Aussentemperatur 5.60 3.94 65.90
151670 2024-04-25 21:35:16 Bahnzimmer 18.60 17.70 45.20
151669 2024-04-25 21:19:49 Terrasse 6.80 4.92 53.20
151668 2024-04-25 21:15:58 Aussentemperatur 6.10 4.43 63.70
151667 2024-04-25 21:05:15 Bahnzimmer 18.60 17.70 45.40
151666 2024-04-25 20:51:33 Terrasse 7.20 5.32 51.30
151665 2024-04-25 20:47:39 Aussentemperatur 6.60 4.92 61.30
151664 2024-04-25 20:35:14 Bahnzimmer 18.40 17.49 45.60
151663 2024-04-25 20:23:19 Terrasse 7.70 5.79 48.50
151662 2024-04-25 20:19:21 Aussentemperatur 7.00 5.31 59.70
151661 2024-04-25 20:05:14 Bahnzimmer 18.60 17.68 44.50
151660 2024-04-25 19:55:05 Terrasse 8.40 6.51 46.60
151659 2024-04-25 19:51:03 Aussentemperatur 7.20 5.50 58.50
151658 2024-04-25 19:35:13 Bahnzimmer 18.50 17.56 44.30
151657 2024-04-25 19:26:53 Terrasse 8.90 7.03 45.20
151656 2024-04-25 19:22:44 Aussentemperatur 7.60 5.95 58.70
151655 2024-04-25 19:05:12 Bahnzimmer 18.30 17.33 44.00
151654 2024-04-25 18:58:38 Terrasse 9.20 7.36 45.20
151653 2024-04-25 18:54:26 Aussentemperatur 7.60 5.95 58.80
151652 2024-04-25 18:35:11 Bahnzimmer 18.40 17.48 45.50
151651 2024-04-25 18:30:22 Terrasse 9.20 7.33 44.20
151650 2024-04-25 18:26:07 Aussentemperatur 7.60 5.94 58.20
151649 2024-04-25 18:05:10 Bahnzimmer 18.60 17.70 45.30
151648 2024-04-25 18:02:10 Terrasse 9.90 8.13 45.20
151647 2024-04-25 17:57:48 Aussentemperatur 7.80 6.19 59.60
151646 2024-04-25 17:35:09 Bahnzimmer 18.70 17.81 45.50
151645 2024-04-25 17:33:53 Terrasse 10.00 8.24 45.40
151644 2024-04-25 17:29:26 Aussentemperatur 7.80 6.23 61.20
151643 2024-04-25 17:05:43 Terrasse 10.60 8.91 45.70
151642 2024-04-25 17:05:09 Bahnzimmer 18.60 17.70 45.50
151641 2024-04-25 17:01:11 Aussentemperatur 8.00 6.49 62.70
151640 2024-04-25 16:37:25 Terrasse 10.50 8.80 45.70
151639 2024-04-25 16:35:08 Bahnzimmer 18.80 17.92 45.20
151638 2024-04-25 16:32:47 Aussentemperatur 7.80 6.28 62.90
151637 2024-04-25 16:09:20 Terrasse 11.90 10.30 44.10
151636 2024-04-25 16:05:07 Bahnzimmer 18.60 17.70 45.40
151635 2024-04-25 16:04:38 Aussentemperatur 9.00 7.60 62.90
151634 2024-04-25 15:40:52 Terrasse 11.50 9.96 48.10
151633 2024-04-25 15:36:05 Aussentemperatur 7.60 6.25 70.10
151632 2024-04-25 15:35:07 Bahnzimmer 18.60 17.70 45.40
151631 2024-04-25 15:12:32 Terrasse 11.00 9.49 51.10
151630 2024-04-25 15:07:41 Aussentemperatur 7.10 5.68 69.40
151629 2024-04-25 15:05:06 Bahnzimmer 18.50 17.59 45.40
151628 2024-04-25 14:44:08 Terrasse 9.40 7.84 55.50
151627 2024-04-25 14:39:19 Aussentemperatur 6.70 5.19 67.50
151626 2024-04-25 14:35:05 Bahnzimmer 18.60 17.70 45.20
151625 2024-04-25 14:16:36 Terrasse 15.80 14.43 38.20
151624 2024-04-25 14:11:14 Aussentemperatur 10.30 8.94 59.40
151623 2024-04-25 14:05:05 Bahnzimmer 18.50 17.59 45.50
151622 2024-04-25 13:48:17 Terrasse 14.50 13.08 41.20
151621 2024-04-25 13:42:54 Aussentemperatur 9.20 7.92 66.80
151620 2024-04-25 13:35:04 Bahnzimmer 18.30 17.37 45.50
151619 2024-04-25 13:19:37 Terrasse 10.50 8.92 50.40
151618 2024-04-25 13:14:18 Aussentemperatur 6.90 5.49 70.80
151617 2024-04-25 13:05:04 Bahnzimmer 18.30 17.37 45.50
151616 2024-04-25 12:51:46 Terrasse 12.30 10.79 46.10
151615 2024-04-25 12:46:41 Aussentemperatur 10.40 9.23 66.40
151614 2024-04-25 12:35:03 Bahnzimmer 18.40 17.48 45.50
151613 2024-04-25 12:22:59 Terrasse 10.60 9.13 54.20
151612 2024-04-25 12:17:33 Aussentemperatur 6.50 5.05 70.70
151611 2024-04-25 12:05:02 Bahnzimmer 18.40 17.48 45.50
151610 2024-04-25 11:55:16 Terrasse 15.40 14.10 42.20
151609 2024-04-25 11:49:11 Aussentemperatur 6.70 5.23 69.00
151608 2024-04-25 11:35:01 Bahnzimmer 18.50 17.59 45.30
151607 2024-04-25 11:26:40 Terrasse 12.40 10.88 45.30
151606 2024-04-25 11:20:49 Aussentemperatur 6.50 4.98 68.00
151605 2024-04-25 11:05:01 Bahnzimmer 18.50 17.59 45.40
151604 2024-04-25 10:57:59 Terrasse 11.70 10.11 45.40
151603 2024-04-25 10:52:24 Aussentemperatur 5.70 4.16 70.10
151602 2024-04-25 10:35:00 Bahnzimmer 18.40 17.48 45.50
151601 2024-04-25 10:29:15 Terrasse 7.60 5.87 55.60
151600 2024-04-25 10:24:02 Aussentemperatur 5.20 3.66 72.10
151599 2024-04-25 10:04:59 Bahnzimmer 18.50 17.59 45.40
151598 2024-04-25 10:00:53 Terrasse 5.60 3.78 60.10
151597 2024-04-25 09:55:42 Aussentemperatur 5.00 3.50 74.30
151596 2024-04-25 09:34:59 Bahnzimmer 18.40 17.48 45.50
151595 2024-04-25 09:32:31 Terrasse 5.00 3.23 64.30
151594 2024-04-25 09:27:19 Aussentemperatur 4.50 3.00 76.30
151593 2024-04-25 09:04:58 Bahnzimmer 18.40 17.49 45.60
151592 2024-04-25 09:04:12 Terrasse 4.00 2.23 67.90
151591 2024-04-25 08:58:57 Aussentemperatur 4.30 2.81 77.50
151590 2024-04-25 08:35:54 Terrasse 3.90 2.13 68.50
151589 2024-04-25 08:34:57 Bahnzimmer 18.40 17.48 45.40
151588 2024-04-25 08:30:38 Aussentemperatur 4.20 2.73 78.70
151587 2024-04-25 08:07:39 Terrasse 3.80 2.05 69.50
151586 2024-04-25 08:04:57 Bahnzimmer 18.30 17.37 45.50
151585 2024-04-25 08:02:17 Aussentemperatur 4.00 2.54 79.80
151584 2024-04-25 07:39:23 Terrasse 3.30 1.56 71.80
151583 2024-04-25 07:34:56 Bahnzimmer 18.40 17.49 45.70
151582 2024-04-25 07:33:56 Aussentemperatur 3.70 2.22 80.40
151581 2024-04-25 07:11:09 Terrasse 3.10 1.37 73.10
151580 2024-04-25 07:05:37 Aussentemperatur 3.70 2.23 80.70
151579 2024-04-25 07:04:55 Bahnzimmer 18.50 17.59 45.20
151578 2024-04-25 06:42:55 Terrasse 3.10 1.37 72.80
151577 2024-04-25 06:37:19 Aussentemperatur 3.90 2.45 80.60
151576 2024-04-25 06:34:55 Bahnzimmer 18.30 17.38 45.70
151575 2024-04-25 06:14:41 Terrasse 3.30 1.58 72.60
151574 2024-04-25 06:08:58 Aussentemperatur 4.00 2.56 80.60
151573 2024-04-25 06:04:54 Bahnzimmer 18.40 17.49 45.60
151572 2024-04-25 05:46:27 Terrasse 3.30 1.58 72.70
151571 2024-04-25 05:40:40 Aussentemperatur 4.00 2.56 80.70
151570 2024-04-25 05:34:53 Bahnzimmer 18.50 17.59 45.40
151569 2024-04-25 05:18:12 Terrasse 3.40 1.69 72.40
151568 2024-04-25 05:12:20 Aussentemperatur 4.00 2.56 80.50
151567 2024-04-25 05:04:53 Bahnzimmer 18.20 17.26 45.50
151566 2024-04-25 04:49:58 Terrasse 3.50 1.76 71.00
151565 2024-04-25 04:44:02 Aussentemperatur 4.10 2.67 80.60
151564 2024-04-25 04:34:52 Bahnzimmer 18.00 17.05 45.70
151563 2024-04-25 04:21:46 Terrasse 3.80 2.08 70.50
151562 2024-04-25 04:15:43 Aussentemperatur 4.30 2.86 79.60
151561 2024-04-25 04:04:51 Bahnzimmer 18.00 17.05 45.80
151560 2024-04-25 03:53:30 Terrasse 3.80 2.08 70.50
151559 2024-04-25 03:47:24 Aussentemperatur 4.40 2.95 78.70
151558 2024-04-25 03:34:51 Bahnzimmer 18.00 17.05 45.70
151557 2024-04-25 03:25:17 Terrasse 3.90 2.14 68.90
151556 2024-04-25 03:19:04 Aussentemperatur 4.40 2.91 77.20
151555 2024-04-25 03:04:50 Bahnzimmer 18.00 17.05 45.70
151554 2024-04-25 02:57:02 Terrasse 3.90 2.16 69.30
151553 2024-04-25 02:50:46 Aussentemperatur 4.50 3.04 77.90
151552 2024-04-25 02:34:49 Bahnzimmer 18.00 17.05 45.80
151551 2024-04-25 02:28:50 Terrasse 4.10 2.39 69.80
151550 2024-04-25 02:22:27 Aussentemperatur 4.70 3.24 77.10
151549 2024-04-25 02:04:49 Bahnzimmer 18.00 17.05 45.60
151548 2024-04-25 02:00:37 Terrasse 4.20 2.49 69.50
151547 2024-04-25 01:54:09 Aussentemperatur 4.70 3.25 77.60
151546 2024-04-25 01:34:48 Bahnzimmer 18.00 17.05 45.80
151545 2024-04-25 01:32:21 Terrasse 4.20 2.48 69.10
151544 2024-04-25 01:25:50 Aussentemperatur 4.70 3.25 77.50
151543 2024-04-25 01:04:47 Bahnzimmer 18.20 17.27 45.70
151542 2024-04-25 01:04:08 Terrasse 4.30 2.57 68.50
151541 2024-04-25 00:57:33 Aussentemperatur 5.00 3.51 74.90
151540 2024-04-25 00:35:54 Terrasse 4.70 2.93 65.40
151539 2024-04-25 00:34:47 Bahnzimmer 18.40 17.48 45.50
151538 2024-04-25 00:29:14 Aussentemperatur 5.20 3.66 72.20
151537 2024-04-25 00:07:38 Terrasse 4.90 3.12 64.10
151536 2024-04-25 00:04:46 Bahnzimmer 18.60 17.70 45.50
151535 2024-04-25 00:00:54 Aussentemperatur 5.20 3.66 72.30
151534 2024-04-24 23:39:22 Terrasse 4.70 2.90 64.20
151533 2024-04-24 23:34:45 Bahnzimmer 19.00 18.12 44.50
151532 2024-04-24 23:32:34 Aussentemperatur 5.20 3.66 72.20
151531 2024-04-24 23:11:07 Terrasse 4.80 2.98 63.00
151530 2024-04-24 23:04:45 Bahnzimmer 19.10 18.25 45.20
151529 2024-04-24 23:04:17 Aussentemperatur 5.30 3.71 69.80
151528 2024-04-24 22:42:52 Terrasse 5.00 3.16 61.40
151527 2024-04-24 22:35:59 Aussentemperatur 5.40 3.79 68.80
151526 2024-04-24 22:34:44 Bahnzimmer 19.10 18.23 44.50
151525 2024-04-24 22:14:39 Terrasse 5.30 3.45 60.00
151524 2024-04-24 22:07:39 Aussentemperatur 5.50 3.89 68.30
151523 2024-04-24 22:04:41 Bahnzimmer 19.00 18.12 44.50
151522 2024-04-24 21:46:24 Terrasse 5.40 3.58 60.80
151521 2024-04-24 21:39:20 Aussentemperatur 5.70 4.11 68.30
151520 2024-04-24 21:34:39 Bahnzimmer 19.30 18.44 44.10
151519 2024-04-24 21:18:47 Terrasse 5.60 3.78 59.90
151518 2024-04-24 21:11:02 Aussentemperatur 5.90 4.31 67.50
151517 2024-04-24 21:04:38 Bahnzimmer 19.30 18.44 44.10
151516 2024-04-24 20:50:14 Terrasse 6.20 4.38 57.80
151515 2024-04-24 20:42:46 Aussentemperatur 6.30 4.70 65.60
151514 2024-04-24 20:34:38 Bahnzimmer 19.20 18.33 44.10
151513 2024-04-24 20:22:04 Terrasse 6.90 5.08 54.90
151512 2024-04-24 20:14:28 Aussentemperatur 6.50 4.88 64.00
151511 2024-04-24 20:04:37 Bahnzimmer 19.00 18.11 44.20
151510 2024-04-24 19:53:50 Terrasse 7.50 5.73 54.60
151509 2024-04-24 19:46:11 Aussentemperatur 6.90 5.32 64.00
151508 2024-04-24 19:34:36 Bahnzimmer 19.00 18.11 44.40
151507 2024-04-24 19:25:41 Terrasse 8.50 6.74 51.30
151506 2024-04-24 19:17:56 Aussentemperatur 7.60 6.01 61.00
151505 2024-04-24 19:04:36 Bahnzimmer 19.00 18.12 44.50
151504 2024-04-24 18:57:28 Terrasse 9.40 7.68 49.30
151503 2024-04-24 18:49:38 Aussentemperatur 8.00 6.41 59.50
151502 2024-04-24 18:34:35 Bahnzimmer 19.20 18.33 44.30
151501 2024-04-24 18:29:15 Terrasse 9.60 7.79 44.80
151500 2024-04-24 18:21:23 Aussentemperatur 8.60 6.94 54.60
151499 2024-04-24 18:04:34 Bahnzimmer 19.40 18.54 44.00
151498 2024-04-24 18:01:04 Terrasse 10.90 9.17 43.10
151497 2024-04-24 17:53:04 Aussentemperatur 9.00 7.40 55.30
151496 2024-04-24 17:34:34 Bahnzimmer 19.30 18.42 43.30
151495 2024-04-24 17:32:51 Terrasse 11.60 9.88 40.90
151494 2024-04-24 17:24:50 Aussentemperatur 9.50 7.92 54.30
151493 2024-04-24 17:04:51 Terrasse 12.00 10.38 43.20
151492 2024-04-24 17:04:33 Bahnzimmer 18.70 17.72 41.90
151491 2024-04-24 16:56:33 Aussentemperatur 9.30 7.80 57.90
151490 2024-04-24 16:36:50 Terrasse 12.70 11.10 41.10
151489 2024-04-24 16:34:33 Bahnzimmer 19.40 18.52 43.20
151488 2024-04-24 16:28:21 Aussentemperatur 9.90 8.33 52.90
151487 2024-04-24 16:08:32 Terrasse 14.20 12.66 37.80
151486 2024-04-24 16:04:32 Bahnzimmer 19.30 18.41 43.00
151485 2024-04-24 15:59:59 Aussentemperatur 9.50 7.94 55.10
151484 2024-04-24 15:40:16 Terrasse 13.70 12.14 38.70
151483 2024-04-24 15:34:31 Bahnzimmer 19.40 18.55 44.10
151482 2024-04-24 15:31:38 Aussentemperatur 9.40 7.86 56.20
151481 2024-04-24 15:12:15 Terrasse 13.60 12.03 38.70
151480 2024-04-24 15:04:31 Bahnzimmer 19.40 18.54 43.90
151479 2024-04-24 15:03:16 Aussentemperatur 8.90 7.31 56.10
151478 2024-04-24 14:44:05 Terrasse 12.90 11.31 40.80
151477 2024-04-24 14:35:01 Aussentemperatur 9.20 7.67 57.10
151476 2024-04-24 14:34:30 Bahnzimmer 18.90 18.00 44.10
151475 2024-04-24 14:15:58 Terrasse 14.00 12.58 42.90
151474 2024-04-24 14:06:37 Aussentemperatur 8.60 7.13 62.00
151473 2024-04-24 14:04:29 Bahnzimmer 18.90 18.03 45.40
151472 2024-04-24 13:47:57 Terrasse 13.30 11.80 42.50
151471 2024-04-24 13:38:21 Aussentemperatur 8.80 7.50 67.70
151470 2024-04-24 13:34:29 Bahnzimmer 18.80 17.92 45.50
151469 2024-04-24 13:19:22 Terrasse 8.50 6.88 56.50
151468 2024-04-24 13:09:34 Aussentemperatur 5.10 3.49 69.90
151467 2024-04-24 13:04:28 Bahnzimmer 19.00 18.13 44.90
151466 2024-04-24 12:51:39 Terrasse 10.50 8.86 48.10
151465 2024-04-24 12:41:56 Aussentemperatur 9.70 8.17 55.20
151464 2024-04-24 12:34:27 Bahnzimmer 18.90 18.02 44.80
151463 2024-04-24 12:23:27 Terrasse 14.40 12.92 39.30
151462 2024-04-24 12:12:37 Aussentemperatur 6.80 5.16 62.40
151461 2024-04-24 12:04:27 Bahnzimmer 19.00 18.13 45.00
151460 2024-04-24 11:55:03 Terrasse 11.50 9.81 42.30
151459 2024-04-24 11:44:15 Aussentemperatur 6.50 4.90 64.90
151458 2024-04-24 11:34:26 Bahnzimmer 19.00 18.12 44.50
151457 2024-04-24 11:26:21 Terrasse 9.40 7.65 47.90
151456 2024-04-24 11:15:54 Aussentemperatur 6.10 4.50 66.50
151455 2024-04-24 11:04:26 Bahnzimmer 18.80 17.86 43.20
151454 2024-04-24 10:58:02 Terrasse 8.60 6.88 52.40
151453 2024-04-24 10:47:30 Aussentemperatur 5.40 3.86 71.30
151452 2024-04-24 10:34:25 Bahnzimmer 18.30 17.37 45.30
151451 2024-04-24 10:29:38 Terrasse 7.40 5.69 57.40
151450 2024-04-24 10:19:09 Aussentemperatur 5.30 3.76 71.90
151449 2024-04-24 10:04:24 Bahnzimmer 18.40 17.47 45.10
151448 2024-04-24 10:01:29 Terrasse 6.10 4.31 59.20
151447 2024-04-24 09:50:51 Aussentemperatur 5.30 3.70 69.30
151446 2024-04-24 09:34:22 Bahnzimmer 18.50 17.58 44.80
151445 2024-04-24 09:33:11 Terrasse 6.50 4.69 56.70
151444 2024-04-24 09:22:36 Aussentemperatur 5.50 3.89 68.50
151443 2024-04-24 09:04:50 Terrasse 6.20 4.38 57.50
151442 2024-04-24 09:04:21 Bahnzimmer 18.20 17.25 44.90
151441 2024-04-24 08:54:15 Aussentemperatur 5.30 3.68 68.90
151440 2024-04-24 08:36:34 Terrasse 5.80 3.95 57.90
151439 2024-04-24 08:34:20 Bahnzimmer 18.60 17.67 44.20
151438 2024-04-24 08:25:55 Aussentemperatur 5.00 3.38 69.90
151437 2024-04-24 08:08:12 Terrasse 5.30 3.50 61.90
151436 2024-04-24 08:04:20 Bahnzimmer 18.60 17.65 43.50
151435 2024-04-24 07:57:35 Aussentemperatur 4.70 3.06 70.40
151434 2024-04-24 07:39:53 Terrasse 4.30 2.45 63.70
151433 2024-04-24 07:34:19 Bahnzimmer 18.80 17.83 41.80
151432 2024-04-24 07:29:14 Aussentemperatur 4.50 2.84 70.40
151431 2024-04-24 07:11:37 Terrasse 3.90 2.03 64.60
151430 2024-04-24 07:04:18 Bahnzimmer 18.90 18.01 44.50
151429 2024-04-24 07:00:55 Aussentemperatur 4.50 2.83 70.00
151428 2024-04-24 06:43:21 Terrasse 3.70 1.83 65.20
151427 2024-04-24 06:34:18 Bahnzimmer 18.80 17.90 44.50
151426 2024-04-24 06:32:36 Aussentemperatur 4.20 2.51 70.10
151425 2024-04-24 06:15:06 Terrasse 3.60 1.70 64.60
151424 2024-04-24 06:04:17 Aussentemperatur 4.20 2.49 69.30
151423 2024-04-24 06:04:17 Bahnzimmer 18.70 17.78 44.40
151422 2024-04-24 05:46:53 Terrasse 3.70 1.80 64.10
151421 2024-04-24 05:35:58 Aussentemperatur 4.40 2.64 66.90
151420 2024-04-24 05:34:16 Bahnzimmer 18.40 17.46 44.60
151419 2024-04-24 05:18:40 Terrasse 4.10 2.12 59.60
151418 2024-04-24 05:07:41 Aussentemperatur 4.70 2.84 61.90
151417 2024-04-24 05:04:16 Bahnzimmer 18.00 17.03 44.90
151416 2024-04-24 04:50:26 Terrasse 4.20 2.09 54.00
151415 2024-04-24 04:39:22 Aussentemperatur 4.90 2.99 59.00
151414 2024-04-24 04:34:15 Bahnzimmer 17.70 16.71 45.50
151413 2024-04-24 04:22:11 Terrasse 4.10 1.94 52.60
151412 2024-04-24 04:11:03 Aussentemperatur 5.00 3.07 58.00
151411 2024-04-24 04:04:14 Bahnzimmer 17.70 16.71 45.40
151410 2024-04-24 03:53:57 Terrasse 4.40 2.25 51.70
151409 2024-04-24 03:42:45 Aussentemperatur 5.00 3.06 57.70
151408 2024-04-24 03:34:14 Bahnzimmer 17.80 16.82 45.30
151407 2024-04-24 03:25:44 Terrasse 4.50 2.33 50.90
151406 2024-04-24 03:14:25 Aussentemperatur 5.00 3.05 57.20
151405 2024-04-24 03:04:13 Bahnzimmer 17.70 16.71 45.50
151404 2024-04-24 02:57:29 Terrasse 4.50 2.33 50.70
151403 2024-04-24 02:46:07 Aussentemperatur 4.80 2.86 58.40
151402 2024-04-24 02:34:13 Bahnzimmer 17.60 16.61 45.60
151401 2024-04-24 02:29:14 Terrasse 4.70 2.60 52.50
151400 2024-04-24 02:17:44 Aussentemperatur 4.40 2.45 59.40
151399 2024-04-24 02:04:12 Bahnzimmer 17.80 16.82 45.40
151398 2024-04-24 02:01:00 Terrasse 4.50 2.37 52.40
151397 2024-04-24 01:49:28 Aussentemperatur 4.50 2.52 58.00
151396 2024-04-24 01:34:11 Bahnzimmer 17.60 16.60 45.40
151395 2024-04-24 01:32:46 Terrasse 4.70 2.54 50.30
151394 2024-04-24 01:21:10 Aussentemperatur 4.70 2.69 56.00
151393 2024-04-24 01:04:33 Terrasse 5.10 2.92 48.10
151392 2024-04-24 01:04:11 Bahnzimmer 17.80 16.82 45.40
151391 2024-04-24 00:52:56 Aussentemperatur 5.50 3.48 52.70
151390 2024-04-24 00:36:21 Terrasse 5.50 3.32 46.50
151389 2024-04-24 00:34:10 Bahnzimmer 18.00 17.04 45.30
151388 2024-04-24 00:24:38 Aussentemperatur 5.70 3.67 51.30
151387 2024-04-24 00:08:07 Terrasse 5.70 3.51 45.40
151386 2024-04-24 00:04:09 Bahnzimmer 18.10 17.14 45.10
151385 2024-04-23 23:56:20 Aussentemperatur 6.00 3.99 51.00
151384 2024-04-23 23:39:53 Terrasse 6.00 3.84 45.30
151383 2024-04-23 23:34:09 Bahnzimmer 18.50 17.57 44.60
151382 2024-04-23 23:28:02 Aussentemperatur 6.00 3.97 50.20
151381 2024-04-23 23:11:39 Terrasse 6.10 3.93 44.50
151380 2024-04-23 23:04:08 Bahnzimmer 18.70 17.78 44.30
151379 2024-04-23 22:59:44 Aussentemperatur 6.30 4.27 49.30
151378 2024-04-23 22:43:26 Terrasse 6.50 4.33 43.20
151377 2024-04-23 22:34:08 Bahnzimmer 18.60 17.67 44.40
151376 2024-04-23 22:31:26 Aussentemperatur 6.40 4.36 48.30
151375 2024-04-23 22:15:13 Terrasse 6.80 4.63 42.00
151374 2024-04-23 22:04:07 Bahnzimmer 18.50 17.57 44.50
151373 2024-04-23 22:03:19 Aussentemperatur 6.80 4.78 47.50
151372 2024-04-23 21:47:27 Terrasse 7.40 5.27 41.20
151371 2024-04-23 21:34:57 Aussentemperatur 7.00 4.98 46.90
151370 2024-04-23 21:34:06 Bahnzimmer 18.20 17.25 44.90
151369 2024-04-23 21:19:07 Terrasse 7.90 5.79 39.90
151368 2024-04-23 21:06:40 Aussentemperatur 7.50 5.50 45.70
151367 2024-04-23 21:04:06 Bahnzimmer 18.10 17.16 45.60
151366 2024-04-23 20:50:56 Terrasse 8.70 6.62 38.10
151365 2024-04-23 20:38:23 Aussentemperatur 8.00 6.02 44.70
151364 2024-04-23 20:34:05 Bahnzimmer 17.80 16.82 45.50
151363 2024-04-23 20:22:46 Terrasse 9.50 7.47 37.00
151362 2024-04-23 20:10:06 Aussentemperatur 8.40 6.45 44.10
151361 2024-04-23 20:04:04 Bahnzimmer 18.00 17.02 44.50
151360 2024-04-23 19:54:33 Terrasse 10.30 8.33 36.00
151359 2024-04-23 19:41:47 Aussentemperatur 8.80 6.85 42.60
151358 2024-04-23 19:34:04 Bahnzimmer 18.00 17.02 44.50
151357 2024-04-23 19:26:22 Terrasse 11.10 9.14 33.40
151356 2024-04-23 19:13:31 Aussentemperatur 9.40 7.50 42.30
151355 2024-04-23 19:04:03 Bahnzimmer 18.00 17.01 44.30
151354 2024-04-23 18:58:13 Terrasse 12.30 10.42 31.80
151353 2024-04-23 18:45:14 Aussentemperatur 9.80 7.95 42.60
151352 2024-04-23 18:34:02 Bahnzimmer 18.10 17.11 43.70
151351 2024-04-23 18:30:00 Terrasse 13.10 11.31 32.50
151350 2024-04-23 18:17:02 Aussentemperatur 10.70 8.89 40.70
151349 2024-04-23 18:04:02 Bahnzimmer 17.90 16.89 43.90
151348 2024-04-23 18:01:42 Terrasse 13.30 11.49 30.90
151347 2024-04-23 17:48:39 Aussentemperatur 10.10 8.24 41.30
151346 2024-04-23 17:34:01 Bahnzimmer 18.00 17.03 45.10
151345 2024-04-23 17:33:25 Terrasse 12.70 10.87 32.20
151344 2024-04-23 17:20:23 Aussentemperatur 10.00 8.12 40.60
151343 2024-04-23 17:05:54 Terrasse 14.70 12.99 29.30
151342 2024-04-23 17:04:01 Bahnzimmer 17.90 16.93 45.50
151341 2024-04-23 16:52:00 Aussentemperatur 10.00 8.14 41.50
151340 2024-04-23 16:38:03 Terrasse 14.50 12.78 29.70
151339 2024-04-23 16:34:00 Bahnzimmer 18.00 17.04 45.40
151338 2024-04-23 16:23:39 Aussentemperatur 10.00 8.14 41.70
151337 2024-04-23 16:09:33 Terrasse 15.10 13.47 30.70
151336 2024-04-23 16:03:59 Bahnzimmer 18.00 17.03 45.10
151335 2024-04-23 15:55:23 Aussentemperatur 10.50 8.69 41.70
151334 2024-04-23 15:41:29 Terrasse 17.00 15.49 28.20
151333 2024-04-23 15:33:59 Bahnzimmer 18.00 17.04 45.20
151332 2024-04-23 15:27:11 Aussentemperatur 11.70 10.00 41.10
151331 2024-04-23 15:13:10 Terrasse 18.40 17.03 28.00
151330 2024-04-23 15:03:58 Bahnzimmer 17.80 16.82 45.30
151329 2024-04-23 14:58:54 Aussentemperatur 11.70 9.98 40.30
151328 2024-04-23 14:44:52 Terrasse 19.20 17.92 28.60
151327 2024-04-23 14:33:57 Bahnzimmer 17.80 16.82 45.40
151326 2024-04-23 14:30:29 Aussentemperatur 10.70 8.89 40.90
151325 2024-04-23 14:16:53 Terrasse 19.50 18.16 25.20
151324 2024-04-23 14:03:57 Bahnzimmer 17.50 16.50 45.70
151323 2024-04-23 14:02:06 Aussentemperatur 11.40 9.67 41.10
151322 2024-04-23 13:34:09 Aussentemperatur 12.30 10.72 43.60
151321 2024-04-23 13:33:56 Bahnzimmer 17.40 16.39 45.90
151320 2024-04-23 13:16:29 Terrasse 20.50 19.34 28.30
151319 2024-04-23 13:05:41 Aussentemperatur 11.30 9.70 46.70
151318 2024-04-23 13:03:55 Bahnzimmer 17.50 16.50 45.80
151317 2024-04-23 12:49:26 Terrasse 20.30 19.11 27.70
151316 2024-04-23 12:37:54 Aussentemperatur 14.90 13.53 41.50
151315 2024-04-23 12:33:55 Bahnzimmer 17.50 16.50 45.70
151314 2024-04-23 12:18:02 Terrasse 22.10 21.10 28.00
151313 2024-04-23 12:08:07 Aussentemperatur 6.30 4.32 51.20
151312 2024-04-23 12:03:54 Bahnzimmer 17.60 16.61 45.60
151311 2024-04-23 11:49:40 Terrasse 21.30 20.27 29.90
151310 2024-04-23 11:39:46 Aussentemperatur 5.90 3.87 50.60
151309 2024-04-23 11:33:53 Bahnzimmer 17.60 16.60 45.50
151308 2024-04-23 11:21:14 Terrasse 20.20 19.08 31.00
151307 2024-04-23 11:11:22 Aussentemperatur 5.30 3.32 55.00
151306 2024-04-23 11:03:53 Bahnzimmer 17.50 16.49 45.50
151305 2024-04-23 10:52:47 Terrasse 18.50 17.26 32.70
151304 2024-04-23 10:43:00 Aussentemperatur 4.90 2.95 57.50
151303 2024-04-23 10:33:52 Bahnzimmer 17.50 16.50 45.70
151302 2024-04-23 10:24:18 Terrasse 16.50 15.11 34.50
151301 2024-04-23 10:14:38 Aussentemperatur 4.50 2.50 57.40
151300 2024-04-23 10:03:51 Bahnzimmer 17.60 16.61 45.70
151299 2024-04-23 09:56:20 Terrasse 13.70 12.13 38.30
151298 2024-04-23 09:46:17 Aussentemperatur 4.20 2.24 60.00
151297 2024-04-23 09:33:51 Bahnzimmer 17.70 16.71 45.50
151296 2024-04-23 09:27:48 Terrasse 10.30 8.48 41.80
151295 2024-04-23 09:17:56 Aussentemperatur 3.80 1.81 60.40
151294 2024-04-23 09:03:50 Bahnzimmer 17.70 16.72 45.60
151293 2024-04-23 08:58:49 Terrasse 8.00 5.95 42.00
151292 2024-04-23 08:49:36 Aussentemperatur 3.50 1.49 60.80
151291 2024-04-23 08:33:50 Bahnzimmer 17.80 16.82 45.40
151290 2024-04-23 08:21:15 Aussentemperatur 3.10 1.09 62.10
151289 2024-04-23 08:03:49 Bahnzimmer 17.60 16.60 45.50
151288 2024-04-23 08:01:56 Terrasse 2.90 0.62 52.50
151287 2024-04-23 07:52:54 Aussentemperatur 2.50 0.49 64.60
151286 2024-04-23 07:33:48 Bahnzimmer 17.60 16.60 45.50
151285 2024-04-23 07:33:37 Terrasse 1.70 -0.58 57.30
151284 2024-04-23 07:24:31 Aussentemperatur 1.80 -0.21 67.00
151283 2024-04-23 07:05:21 Terrasse 1.20 -1.07 59.50
151282 2024-04-23 07:03:48 Bahnzimmer 17.80 16.83 45.60
151281 2024-04-23 06:56:14 Aussentemperatur 1.80 -0.23 66.50
151280 2024-04-23 06:37:05 Terrasse 1.20 -1.08 59.30
151279 2024-04-23 06:33:47 Bahnzimmer 17.80 16.82 45.40
151278 2024-04-23 06:27:56 Aussentemperatur 1.90 -0.11 66.90
151277 2024-04-23 06:09:12 Terrasse 1.30 -0.98 58.90
151276 2024-04-23 06:03:46 Bahnzimmer 17.80 16.82 45.50
151275 2024-04-23 05:59:38 Aussentemperatur 1.70 -0.34 66.30
151274 2024-04-23 05:41:52 Terrasse 1.40 -0.87 58.70
151273 2024-04-23 05:33:46 Bahnzimmer 17.90 16.93 45.40
151272 2024-04-23 05:31:22 Aussentemperatur 2.20 0.20 66.10
151271 2024-04-23 05:14:15 Terrasse 1.70 -0.58 57.20
151270 2024-04-23 05:03:45 Bahnzimmer 17.90 16.93 45.30
151269 2024-04-23 05:03:04 Aussentemperatur 2.20 0.18 65.30
151268 2024-04-23 04:44:48 Terrasse 1.80 -0.48 56.90
151267 2024-04-23 04:34:47 Aussentemperatur 2.50 0.52 65.80
151266 2024-04-23 04:33:44 Bahnzimmer 17.70 16.71 45.50
151265 2024-04-23 04:17:40 Terrasse 2.10 -0.14 57.10
151264 2024-04-23 04:06:29 Aussentemperatur 2.50 0.53 66.00
151263 2024-04-23 04:03:43 Bahnzimmer 17.70 16.71 45.50
151262 2024-04-23 03:49:32 Terrasse 2.20 -0.03 57.10
151261 2024-04-23 03:38:11 Aussentemperatur 2.60 0.64 66.00
151260 2024-04-23 03:21:23 Terrasse 2.40 0.18 56.90
151259 2024-04-23 03:03:37 Bahnzimmer 17.80 16.82 45.50
151258 2024-04-23 02:53:23 Terrasse 2.50 0.29 56.80
151257 2024-04-23 02:41:46 Aussentemperatur 2.90 0.97 65.90
151256 2024-04-23 02:33:36 Bahnzimmer 17.70 16.71 45.50
151255 2024-04-23 02:24:57 Terrasse 2.80 0.59 55.60
151254 2024-04-23 02:13:27 Aussentemperatur 3.10 1.18 65.70
151253 2024-04-23 02:03:35 Bahnzimmer 17.60 16.60 45.50
151252 2024-04-23 01:57:23 Terrasse 2.80 0.61 56.30
151251 2024-04-23 01:45:09 Aussentemperatur 3.00 1.11 67.30
151250 2024-04-23 01:33:35 Bahnzimmer 17.60 16.60 45.50
151249 2024-04-23 01:29:01 Terrasse 2.80 0.67 58.90
151248 2024-04-23 01:16:51 Aussentemperatur 3.00 1.13 68.00
151247 2024-04-23 01:03:34 Bahnzimmer 17.50 16.50 45.70
151246 2024-04-23 01:01:15 Terrasse 2.70 0.59 60.00
151245 2024-04-23 00:48:33 Aussentemperatur 3.10 1.24 68.10
151244 2024-04-23 00:33:33 Bahnzimmer 17.60 16.61 45.60
151243 2024-04-23 00:33:18 Terrasse 3.10 1.04 60.40
151242 2024-04-23 00:20:15 Aussentemperatur 3.10 1.25 68.30
151241 2024-04-23 00:04:58 Terrasse 3.40 1.33 58.90
151240 2024-04-23 00:03:33 Bahnzimmer 17.80 16.82 45.50
151239 2024-04-22 23:51:58 Aussentemperatur 3.40 1.55 67.10
151238 2024-04-22 23:36:42 Terrasse 3.50 1.43 58.20
151237 2024-04-22 23:33:32 Bahnzimmer 18.00 17.04 45.30
151236 2024-04-22 23:23:41 Aussentemperatur 3.50 1.64 66.40
151235 2024-04-22 23:08:52 Terrasse 3.60 1.51 57.30
151234 2024-04-22 23:03:32 Bahnzimmer 18.00 17.04 45.30
151233 2024-04-22 22:55:25 Aussentemperatur 3.60 1.72 65.40
151232 2024-04-22 22:40:48 Terrasse 4.00 1.92 56.10
151231 2024-04-22 22:33:31 Bahnzimmer 18.00 17.04 45.30
151230 2024-04-22 22:27:07 Aussentemperatur 4.00 2.13 64.10
151229 2024-04-22 22:11:36 Terrasse 4.50 2.44 55.00
151228 2024-04-22 22:03:30 Bahnzimmer 18.00 17.04 45.30
151227 2024-04-22 21:58:51 Aussentemperatur 4.50 2.64 62.60
151226 2024-04-22 21:43:29 Terrasse 5.10 3.05 53.10
151225 2024-04-22 21:33:29 Bahnzimmer 18.10 17.15 45.40
151224 2024-04-22 21:30:34 Aussentemperatur 4.90 3.04 60.90
151223 2024-04-22 21:15:29 Terrasse 5.80 3.71 48.90
151222 2024-04-22 21:03:29 Bahnzimmer 17.80 16.82 45.40
151221 2024-04-22 21:02:17 Aussentemperatur 5.20 3.29 58.00
151220 2024-04-22 20:47:51 Terrasse 6.00 3.84 45.40
151219 2024-04-22 20:34:01 Aussentemperatur 5.50 3.60 57.10
151218 2024-04-22 20:33:28 Bahnzimmer 17.60 16.61 45.60
151217 2024-04-22 20:20:08 Terrasse 6.60 4.50 45.50
151216 2024-04-22 20:05:43 Aussentemperatur 5.90 4.07 58.50
151215 2024-04-22 20:03:28 Bahnzimmer 18.00 17.03 45.00
151214 2024-04-22 19:51:24 Terrasse 7.40 5.38 45.40
151213 2024-04-22 19:37:29 Aussentemperatur 6.40 4.60 57.60
151212 2024-04-22 19:33:27 Bahnzimmer 18.10 17.14 44.90
151211 2024-04-22 19:23:53 Terrasse 8.10 6.14 44.80
151210 2024-04-22 19:09:12 Aussentemperatur 6.60 4.85 58.80
151209 2024-04-22 19:03:26 Bahnzimmer 18.10 17.13 44.70
151208 2024-04-22 18:55:56 Terrasse 8.40 6.58 49.30
151207 2024-04-22 18:40:54 Aussentemperatur 6.80 5.09 59.60
151206 2024-04-22 18:33:26 Bahnzimmer 18.20 17.25 44.80
151205 2024-04-22 18:27:57 Terrasse 9.00 7.20 47.50
151204 2024-04-22 18:12:43 Aussentemperatur 7.60 5.91 57.20
151203 2024-04-22 18:03:25 Bahnzimmer 18.10 17.13 44.50
151202 2024-04-22 18:00:12 Terrasse 10.00 8.14 41.40
151201 2024-04-22 17:44:17 Aussentemperatur 7.00 5.31 59.60
151200 2024-04-22 17:33:24 Bahnzimmer 18.10 17.13 44.50
151199 2024-04-22 17:31:47 Terrasse 8.90 7.10 48.20
151198 2024-04-22 17:16:00 Aussentemperatur 7.20 5.46 56.70
151197 2024-04-22 17:03:41 Terrasse 10.40 8.59 42.00
151196 2024-04-22 17:03:24 Bahnzimmer 18.20 17.23 44.40
151195 2024-04-22 16:47:47 Aussentemperatur 8.20 6.50 54.40
151194 2024-04-22 16:35:35 Terrasse 11.90 10.16 38.90
151193 2024-04-22 16:33:23 Bahnzimmer 18.20 17.23 44.20
151192 2024-04-22 16:19:23 Aussentemperatur 7.70 5.92 53.40
151191 2024-04-22 16:07:35 Terrasse 11.70 9.96 39.50
151190 2024-04-22 16:03:23 Bahnzimmer 18.20 17.23 44.10
151189 2024-04-22 15:51:09 Aussentemperatur 8.60 6.87 52.00
151188 2024-04-22 15:39:32 Terrasse 13.10 11.44 37.20
151187 2024-04-22 15:33:22 Bahnzimmer 18.20 17.21 43.50
151186 2024-04-22 15:22:54 Aussentemperatur 9.00 7.32 52.10
151185 2024-04-22 15:11:33 Terrasse 13.60 11.98 36.80
151184 2024-04-22 15:03:21 Bahnzimmer 18.30 17.31 43.00
151183 2024-04-22 14:54:31 Aussentemperatur 8.40 6.66 52.40
151182 2024-04-22 14:43:38 Terrasse 14.70 13.18 36.50
151181 2024-04-22 14:33:21 Bahnzimmer 18.00 16.97 42.50
151180 2024-04-22 14:26:08 Aussentemperatur 8.40 6.77 56.40
151179 2024-04-22 14:15:26 Terrasse 12.20 10.56 41.40
151178 2024-04-22 14:03:20 Bahnzimmer 17.20 16.05 41.20
151177 2024-04-22 13:57:45 Aussentemperatur 7.20 5.47 57.10
151176 2024-04-22 13:47:19 Terrasse 11.60 9.95 43.40
151175 2024-04-22 13:33:19 Bahnzimmer 16.90 15.66 38.90
151174 2024-04-22 13:29:55 Aussentemperatur 10.00 8.47 54.10
151173 2024-04-22 13:19:41 Terrasse 18.00 16.76 34.80
151172 2024-04-22 13:03:19 Bahnzimmer 17.80 16.85 46.40
151171 2024-04-22 13:02:05 Aussentemperatur 12.10 10.74 52.70
151170 2024-04-22 12:51:01 Terrasse 16.00 14.70 40.00
151169 2024-04-22 12:33:18 Bahnzimmer 17.90 16.96 46.40
151168 2024-04-22 12:32:38 Aussentemperatur 6.50 4.84 62.70
151167 2024-04-22 12:04:17 Aussentemperatur 6.60 4.99 64.20
151166 2024-04-22 12:03:17 Bahnzimmer 17.90 16.95 46.30
151165 2024-04-22 11:55:22 Terrasse 14.10 12.68 42.70
151164 2024-04-22 11:35:58 Aussentemperatur 6.30 4.67 64.70
151163 2024-04-22 11:33:17 Bahnzimmer 17.90 16.95 46.20
151162 2024-04-22 11:27:15 Terrasse 12.00 10.43 44.80
151161 2024-04-22 11:07:42 Aussentemperatur 6.60 5.00 64.60
151160 2024-04-22 11:03:16 Bahnzimmer 17.80 16.84 46.20
151159 2024-04-22 10:59:04 Terrasse 15.00 13.60 40.00
151158 2024-04-22 10:39:19 Aussentemperatur 5.90 4.27 66.00
151157 2024-04-22 10:33:16 Bahnzimmer 17.90 16.95 46.10
151156 2024-04-22 10:30:58 Terrasse 13.10 11.61 43.80
151155 2024-04-22 10:10:55 Aussentemperatur 5.30 3.63 66.90
151154 2024-04-22 10:03:15 Bahnzimmer 18.00 17.07 46.50
151153 2024-04-22 10:02:56 Terrasse 11.00 9.38 46.80
151152 2024-04-22 09:42:35 Aussentemperatur 5.00 3.28 65.90
151151 2024-04-22 09:34:35 Terrasse 10.20 8.53 47.90
151150 2024-04-22 09:33:14 Bahnzimmer 18.10 17.17 46.30
151149 2024-04-22 09:14:14 Aussentemperatur 4.50 2.76 67.20
151148 2024-04-22 09:06:24 Terrasse 8.50 6.74 51.10
151147 2024-04-22 09:03:14 Bahnzimmer 18.00 17.07 46.40
151146 2024-04-22 08:45:53 Aussentemperatur 4.00 2.29 70.30
151145 2024-04-22 08:38:27 Terrasse 6.80 4.92 53.10
151144 2024-04-22 08:33:13 Bahnzimmer 18.00 17.07 46.40
151143 2024-04-22 08:17:30 Aussentemperatur 3.50 1.76 71.20
151142 2024-04-22 08:10:32 Terrasse 3.90 1.90 59.70
151141 2024-04-22 08:03:12 Bahnzimmer 18.00 17.06 46.20
151140 2024-04-22 07:49:09 Aussentemperatur 3.20 1.43 71.20
151139 2024-04-22 07:42:32 Terrasse 3.10 1.08 62.00
151138 2024-04-22 07:33:12 Bahnzimmer 18.00 17.06 46.30
151137 2024-04-22 07:20:48 Aussentemperatur 2.60 0.80 72.00
151136 2024-04-22 07:14:07 Terrasse 2.40 0.35 63.40
151135 2024-04-22 07:03:11 Bahnzimmer 18.10 17.17 46.30
151134 2024-04-22 06:52:28 Aussentemperatur 2.40 0.55 71.00
151133 2024-04-22 06:45:25 Terrasse 2.20 0.12 62.90
151132 2024-04-22 06:33:10 Bahnzimmer 18.20 17.28 46.20
151131 2024-04-22 06:24:09 Aussentemperatur 2.10 0.19 69.80
151130 2024-04-22 06:17:11 Terrasse 2.00 -0.12 62.30
151129 2024-04-22 06:03:10 Bahnzimmer 18.00 17.07 46.50
151128 2024-04-22 05:55:52 Aussentemperatur 2.50 0.58 68.00
151127 2024-04-22 05:48:57 Terrasse 2.10 -0.06 60.20
151126 2024-04-22 05:33:09 Bahnzimmer 18.20 17.29 46.50
151125 2024-04-22 05:27:34 Aussentemperatur 2.30 0.38 68.80
151124 2024-04-22 05:20:43 Terrasse 2.10 -0.05 60.70
151123 2024-04-22 05:03:08 Bahnzimmer 18.30 17.39 46.30
151122 2024-04-22 04:59:19 Aussentemperatur 2.70 0.78 67.30
151121 2024-04-22 04:52:31 Terrasse 2.50 0.32 58.00
151120 2024-04-22 04:33:08 Bahnzimmer 18.00 17.07 46.60
151119 2024-04-22 04:31:03 Aussentemperatur 3.00 1.08 66.00
151118 2024-04-22 04:24:18 Terrasse 2.70 0.51 56.70
151117 2024-04-22 04:03:07 Bahnzimmer 18.00 17.07 46.70
151116 2024-04-22 04:02:45 Aussentemperatur 3.10 1.19 66.20
151115 2024-04-22 03:56:05 Terrasse 2.90 0.73 56.90
151114 2024-04-22 03:34:28 Aussentemperatur 3.10 1.17 65.20
151113 2024-04-22 03:33:07 Bahnzimmer 18.10 17.18 46.70
151112 2024-04-22 03:27:51 Terrasse 3.00 0.83 56.60
151111 2024-04-22 03:06:11 Aussentemperatur 3.30 1.39 65.40
151110 2024-04-22 03:03:06 Bahnzimmer 18.10 17.18 46.70
151109 2024-04-22 02:59:40 Terrasse 3.10 0.94 56.50
151108 2024-04-22 02:37:55 Aussentemperatur 3.60 1.71 65.00
151107 2024-04-22 02:33:05 Bahnzimmer 18.10 17.19 46.80
151106 2024-04-22 02:31:26 Terrasse 3.50 1.35 55.50
151105 2024-04-22 02:09:36 Aussentemperatur 3.60 1.72 65.20
151104 2024-04-22 02:03:11 Terrasse 3.50 1.34 55.10
151103 2024-04-22 02:03:05 Bahnzimmer 18.20 17.29 46.70
151102 2024-04-22 01:41:18 Aussentemperatur 3.80 1.93 65.00
151101 2024-04-22 01:34:57 Terrasse 3.70 1.56 54.90
151100 2024-04-22 01:33:04 Bahnzimmer 18.20 17.30 46.80
151099 2024-04-22 01:12:59 Aussentemperatur 3.80 1.93 64.80
151098 2024-04-22 01:06:42 Terrasse 3.80 1.67 54.90
151097 2024-04-22 01:03:03 Bahnzimmer 18.20 17.30 47.00
151096 2024-04-22 00:44:43 Aussentemperatur 4.00 2.17 65.60
151095 2024-04-22 00:38:28 Terrasse 3.90 1.80 55.60
151094 2024-04-22 00:33:03 Bahnzimmer 18.30 17.41 46.90
151093 2024-04-22 00:16:24 Aussentemperatur 4.20 2.36 64.70
151092 2024-04-22 00:10:15 Terrasse 4.10 1.98 54.00
151091 2024-04-22 00:03:02 Bahnzimmer 18.50 17.63 46.90
151090 2024-04-21 23:48:06 Aussentemperatur 4.20 2.36 64.70
151089 2024-04-21 23:42:01 Terrasse 4.30 2.21 54.40
151088 2024-04-21 23:33:01 Bahnzimmer 18.40 17.53 47.10
151087 2024-04-21 23:19:47 Aussentemperatur 4.40 2.57 64.20
151086 2024-04-21 23:13:47 Terrasse 4.50 2.40 53.50
151085 2024-04-21 23:03:01 Bahnzimmer 18.50 17.64 47.10
151084 2024-04-21 22:51:30 Aussentemperatur 4.50 2.72 65.60
151083 2024-04-21 22:45:33 Terrasse 4.80 2.73 53.40
151082 2024-04-21 22:33:00 Bahnzimmer 18.70 17.86 47.10
151081 2024-04-21 22:23:13 Aussentemperatur 4.90 3.17 66.20
151080 2024-04-21 22:17:20 Terrasse 5.00 2.97 54.20
151079 2024-04-21 22:02:59 Bahnzimmer 18.90 18.07 46.90
151078 2024-04-21 21:54:54 Aussentemperatur 4.90 3.18 66.40
151077 2024-04-21 21:49:58 Terrasse 5.10 3.10 54.80
151076 2024-04-21 21:32:59 Bahnzimmer 19.20 18.39 46.40
151075 2024-04-21 21:26:35 Aussentemperatur 4.90 3.20 67.20
151074 2024-04-21 21:21:07 Terrasse 5.30 3.35 56.20
151073 2024-04-21 21:02:58 Bahnzimmer 19.20 18.39 46.70
151072 2024-04-21 20:58:15 Aussentemperatur 5.00 3.31 67.20
151071 2024-04-21 20:53:38 Terrasse 5.30 3.34 55.70
151070 2024-04-21 20:32:57 Bahnzimmer 19.10 18.29 47.00
151069 2024-04-21 20:29:58 Aussentemperatur 5.00 3.33 67.80
151068 2024-04-21 20:25:12 Terrasse 5.60 3.68 56.00
151067 2024-04-21 20:02:57 Bahnzimmer 19.10 18.30 47.20
151066 2024-04-21 20:01:41 Aussentemperatur 5.20 3.53 67.20
151065 2024-04-21 19:56:57 Terrasse 6.10 4.19 54.70
151064 2024-04-21 19:33:24 Aussentemperatur 5.50 3.84 66.40
151063 2024-04-21 19:32:56 Bahnzimmer 19.20 18.42 47.60
151062 2024-04-21 19:28:45 Terrasse 6.70 4.79 52.40
151061 2024-04-21 19:05:07 Aussentemperatur 5.90 4.28 66.50
151060 2024-04-21 19:02:56 Bahnzimmer 19.10 18.31 47.80
151059 2024-04-21 19:00:35 Terrasse 7.40 5.56 52.10
151058 2024-04-21 18:36:50 Aussentemperatur 6.30 4.69 65.10
151057 2024-04-21 18:32:55 Bahnzimmer 19.30 18.50 46.50
151056 2024-04-21 18:32:24 Terrasse 8.40 6.61 50.20
151055 2024-04-21 18:08:36 Aussentemperatur 6.90 5.34 65.00
151054 2024-04-21 18:04:17 Terrasse 9.30 7.56 49.00
151053 2024-04-21 18:02:54 Bahnzimmer 19.20 18.39 46.60
151052 2024-04-21 17:40:14 Aussentemperatur 7.00 5.46 65.10
151051 2024-04-21 17:36:01 Terrasse 9.50 7.76 48.20
151050 2024-04-21 17:32:54 Bahnzimmer 19.10 18.28 46.70
151049 2024-04-21 17:11:52 Aussentemperatur 6.60 5.09 68.10
151048 2024-04-21 17:07:48 Terrasse 9.20 7.48 50.00
151047 2024-04-21 17:02:53 Bahnzimmer 19.20 18.39 46.70
151046 2024-04-21 16:43:33 Aussentemperatur 6.80 5.30 67.70
151045 2024-04-21 16:39:43 Terrasse 9.80 8.13 49.50
151044 2024-04-21 16:32:52 Bahnzimmer 19.40 18.60 46.20
151043 2024-04-21 16:15:29 Aussentemperatur 8.60 7.25 66.40
151042 2024-04-21 16:11:49 Terrasse 14.00 12.64 45.40
151041 2024-04-21 16:02:52 Bahnzimmer 19.30 18.50 46.40
151040 2024-04-21 15:47:07 Aussentemperatur 8.20 6.88 69.00
151039 2024-04-21 15:43:26 Terrasse 13.00 11.60 47.80
151038 2024-04-21 15:32:51 Bahnzimmer 19.20 18.39 46.40
151037 2024-04-21 15:18:46 Aussentemperatur 7.40 6.09 72.60
151036 2024-04-21 15:15:06 Terrasse 11.10 9.62 51.80
151035 2024-04-21 15:02:50 Bahnzimmer 19.20 18.38 46.30
151034 2024-04-21 14:50:20 Aussentemperatur 6.50 5.19 76.00
151033 2024-04-21 14:46:40 Terrasse 9.20 7.63 55.80
151032 2024-04-21 14:32:50 Bahnzimmer 19.00 18.17 46.60
151031 2024-04-21 14:21:56 Aussentemperatur 6.20 4.89 77.30
151030 2024-04-21 14:18:16 Terrasse 8.60 7.07 59.50
151029 2024-04-21 14:02:49 Bahnzimmer 19.20 18.39 46.50
151028 2024-04-21 13:53:36 Aussentemperatur 5.70 4.38 78.60
151027 2024-04-21 13:50:09 Terrasse 8.30 6.73 59.20
151026 2024-04-21 13:32:48 Bahnzimmer 19.10 18.28 46.40
151025 2024-04-21 13:25:19 Aussentemperatur 6.70 5.55 81.50
151024 2024-04-21 13:21:46 Terrasse 9.90 8.51 59.90
151023 2024-04-21 13:02:48 Bahnzimmer 18.80 17.95 46.70
151022 2024-04-21 12:56:48 Aussentemperatur 5.60 4.40 83.70
151021 2024-04-21 12:53:02 Terrasse 7.00 5.50 66.80
151020 2024-04-21 12:32:47 Bahnzimmer 18.90 18.06 46.60
151019 2024-04-21 12:28:20 Aussentemperatur 4.10 2.78 84.70
151018 2024-04-21 12:24:35 Terrasse 4.80 3.19 70.90
151017 2024-04-21 12:02:47 Bahnzimmer 19.20 18.38 46.30
151016 2024-04-21 11:59:54 Aussentemperatur 3.00 1.54 83.70
151015 2024-04-21 11:56:16 Terrasse 3.30 1.56 71.60
151014 2024-04-21 11:32:46 Bahnzimmer 19.50 18.69 45.50
151013 2024-04-21 11:31:37 Aussentemperatur 3.20 1.75 83.10
151012 2024-04-21 11:28:02 Terrasse 3.60 1.86 70.60
151011 2024-04-21 11:03:19 Aussentemperatur 3.50 2.06 82.70
151010 2024-04-21 11:02:45 Bahnzimmer 19.50 18.68 45.00
151009 2024-04-21 10:59:48 Terrasse 3.90 2.19 70.50
151008 2024-04-21 10:35:03 Aussentemperatur 3.60 2.14 81.20
151007 2024-04-21 10:32:45 Bahnzimmer 19.70 18.85 42.90
151006 2024-04-21 10:31:36 Terrasse 4.10 2.38 69.40
151005 2024-04-21 10:06:45 Aussentemperatur 3.60 2.09 79.50
151004 2024-04-21 10:03:19 Terrasse 3.80 2.06 69.90
151003 2024-04-21 10:02:44 Bahnzimmer 20.10 19.38 46.40
151002 2024-04-21 09:38:27 Aussentemperatur 3.60 2.03 77.00
151001 2024-04-21 09:35:11 Terrasse 3.70 1.86 66.60
151000 2024-04-21 09:32:43 Bahnzimmer 20.30 19.61 46.80
150999 2024-04-21 09:10:06 Aussentemperatur 3.50 1.94 77.80
150998 2024-04-21 09:06:54 Terrasse 3.80 1.98 67.00
150997 2024-04-21 09:02:43 Bahnzimmer 20.30 19.61 46.80
150996 2024-04-21 08:41:47 Aussentemperatur 3.30 1.73 78.20
150995 2024-04-21 08:38:39 Terrasse 4.00 2.19 66.30
150994 2024-04-21 08:32:42 Bahnzimmer 20.10 19.40 47.10
150993 2024-04-21 08:13:28 Aussentemperatur 3.30 1.72 78.00
150992 2024-04-21 08:10:17 Terrasse 3.10 1.25 68.30
150991 2024-04-21 08:02:41 Bahnzimmer 20.00 19.29 47.20
150990 2024-04-21 07:45:10 Aussentemperatur 3.30 1.75 79.00
150989 2024-04-21 07:42:01 Terrasse 2.80 0.95 69.40
150988 2024-04-21 07:32:41 Bahnzimmer 20.00 19.29 47.20
150987 2024-04-21 07:16:51 Aussentemperatur 3.30 1.77 80.00
150986 2024-04-21 07:13:48 Terrasse 2.90 1.06 69.50
150985 2024-04-21 07:02:40 Bahnzimmer 19.70 18.97 47.50
150984 2024-04-21 06:48:32 Aussentemperatur 3.30 1.79 80.60
150983 2024-04-21 06:45:34 Terrasse 2.80 0.97 70.10
150982 2024-04-21 06:32:39 Bahnzimmer 19.30 18.53 47.80
150981 2024-04-21 06:20:14 Aussentemperatur 3.30 1.80 80.80
150980 2024-04-21 06:17:18 Terrasse 2.80 0.95 69.50
150979 2024-04-21 06:02:39 Bahnzimmer 18.90 18.10 48.20
150978 2024-04-21 05:51:54 Aussentemperatur 3.30 1.77 80.00
150977 2024-04-21 05:49:03 Terrasse 2.70 0.85 69.80
150976 2024-04-21 05:32:38 Bahnzimmer 18.90 18.11 48.30
150975 2024-04-21 05:23:38 Aussentemperatur 3.50 2.05 82.10
150974 2024-04-21 05:20:48 Terrasse 2.90 1.12 71.70
150973 2024-04-21 05:02:37 Bahnzimmer 18.80 18.00 48.40
150972 2024-04-21 04:55:20 Aussentemperatur 3.60 2.19 83.40
150971 2024-04-21 04:52:35 Terrasse 3.00 1.27 73.30
150970 2024-04-21 04:32:37 Bahnzimmer 18.90 18.12 48.70
150969 2024-04-21 04:27:04 Aussentemperatur 3.90 2.57 85.20
150968 2024-04-21 04:24:22 Terrasse 3.30 1.61 73.80
150967 2024-04-21 04:02:36 Bahnzimmer 19.00 18.22 48.60
150966 2024-04-21 03:58:47 Aussentemperatur 4.20 2.91 85.40
150965 2024-04-21 03:56:10 Terrasse 3.90 2.23 72.00
150964 2024-04-21 03:32:36 Bahnzimmer 19.00 18.23 48.70
150963 2024-04-21 03:30:29 Aussentemperatur 4.50 3.28 87.10
150962 2024-04-21 03:27:56 Terrasse 4.10 2.52 74.90
150961 2024-04-21 03:02:35 Bahnzimmer 19.00 18.23 48.70
150960 2024-04-21 03:02:11 Aussentemperatur 4.70 3.50 87.00
150959 2024-04-21 02:59:42 Terrasse 4.40 2.87 75.70
150958 2024-04-21 02:33:53 Aussentemperatur 5.00 3.84 87.30
150957 2024-04-21 02:32:34 Bahnzimmer 19.10 18.34 48.70
150956 2024-04-21 02:31:26 Terrasse 4.70 3.20 75.80
150955 2024-04-21 02:05:34 Aussentemperatur 5.00 3.84 87.50
150954 2024-04-21 02:03:12 Terrasse 4.60 3.11 76.40
150953 2024-04-21 02:02:34 Bahnzimmer 19.00 18.23 48.90
150952 2024-04-21 01:37:16 Aussentemperatur 5.10 3.95 87.50
150951 2024-04-21 01:34:58 Terrasse 4.70 3.23 76.80
150950 2024-04-21 01:32:33 Bahnzimmer 19.20 18.45 48.80
150949 2024-04-21 01:08:58 Aussentemperatur 5.10 3.91 86.00
150948 2024-04-21 01:06:44 Terrasse 4.90 3.44 76.40
150947 2024-04-21 01:02:32 Bahnzimmer 19.40 18.67 48.80
150946 2024-04-21 00:40:40 Aussentemperatur 5.30 4.12 85.70
150945 2024-04-21 00:38:30 Terrasse 4.90 3.43 75.90
150944 2024-04-21 00:32:32 Bahnzimmer 19.70 18.99 48.40
150943 2024-04-21 00:12:21 Aussentemperatur 5.30 4.13 86.10
150942 2024-04-21 00:10:13 Terrasse 4.90 3.43 76.00
150941 2024-04-21 00:02:31 Bahnzimmer 20.00 19.31 47.90
150940 2024-04-20 23:44:02 Aussentemperatur 5.10 3.91 86.10
150939 2024-04-20 23:41:57 Terrasse 4.80 3.32 76.00
150938 2024-04-20 23:32:30 Bahnzimmer 20.30 19.63 47.70
150937 2024-04-20 23:15:42 Aussentemperatur 5.10 3.88 85.00
150936 2024-04-20 23:13:42 Terrasse 4.90 3.41 75.10
150935 2024-04-20 23:02:30 Bahnzimmer 20.30 19.63 47.50
150934 2024-04-20 22:47:24 Aussentemperatur 5.10 3.86 83.90
150933 2024-04-20 22:45:27 Terrasse 5.00 3.48 73.70
150932 2024-04-20 22:32:29 Bahnzimmer 20.30 19.63 47.50
150931 2024-04-20 22:19:05 Aussentemperatur 5.20 3.95 83.30
150930 2024-04-20 22:17:12 Terrasse 5.00 3.46 73.00
150929 2024-04-20 22:02:28 Bahnzimmer 20.30 19.63 47.60
150928 2024-04-20 21:50:4